[[{"header":{"parameterUnit":"m.s-1","parameterCategory":1,"la1":30.6,"la2":29.2853,"lo1":-89.7004,"lo2":-87.6739,"dx":0.0162,"dy":0.0183,"nx":112,"ny":82,"refTime":"2023-01-02T18:00:00:Z","depth":0,"parameterNumber":2,"parameterNumberName":"U-component_of_WINDS"},"data":[0.0,0.0,0.0,0.0,0.0,0.0,0.0,0.0,0.0,0.0,0.0,0.0,0.0,0.0,0.0,0.0,0.0,0.0,0.0,0.0,0.0,0.0,0.0,0.0,0.0,0.0,0.0,0.0,0.0,0.0,0.0,0.0,0.0,0.0,0.0,0.0,0.0,0.0,0.0,0.0,0.0,0.0,0.0,0.0,0.0,0.0,0.0,0.0,0.0,0.0,0.0,0.0,0.0,0.0,0.0,0.0,0.0,0.0,0.0,0.0,0.0,0.0,0.0,0.0,0.0,0.0,0.0,0.0,0.0,0.0,0.0,0.0,0.0,0.0,0.0,0.0,0.0,0.0,0.0,0.0,0.0,0.0,0.0,0.0,0.0,0.0,0.0,0.0,0.0,0.0,-2.5308,-2.5308,-2.5308,-2.5308,-2.5308,-2.5308,-2.5331,-2.5406,0.0,0.0,0.0,0.0,0.0,0.0,0.0,0.0,0.0,0.0,0.0,0.0,0.0,0.0,0.0,0.0,0.0,0.0,0.0,0.0,0.0,0.0,0.0,0.0,0.0,0.0,0.0,0.0,0.0,0.0,0.0,0.0,0.0,0.0,0.0,0.0,0.0,0.0,0.0,0.0,0.0,0.0,0.0,0.0,0.0,0.0,0.0,0.0,0.0,0.0,0.0,0.0,0.0,0.0,0.0,0.0,0.0,0.0,0.0,0.0,0.0,0.0,0.0,0.0,0.0,0.0,0.0,0.0,0.0,0.0,0.0,0.0,0.0,0.0,0.0,0.0,0.0,0.0,0.0,0.0,0.0,0.0,0.0,0.0,0.0,0.0,0.0,0.0,0.0,0.0,0.0,0.0,0.0,0.0,0.0,0.0,0.0,0.0,0.0,0.0,0.0,0.0,0.0,0.0,-2.5308,-2.5308,-2.5308,-2.5308,-2.5308,-2.5308,-2.5331,-2.5406,0.0,0.0,0.0,0.0,0.0,0.0,0.0,0.0,0.0,0.0,0.0,0.0,0.0,0.0,0.0,0.0,0.0,0.0,0.0,0.0,0.0,0.0,0.0,0.0,0.0,0.0,0.0,0.0,0.0,0.0,0.0,0.0,0.0,0.0,0.0,0.0,0.0,0.0,0.0,0.0,0.0,0.0,0.0,0.0,0.0,0.0,0.0,0.0,0.0,0.0,0.0,0.0,0.0,0.0,0.0,0.0,0.0,0.0,0.0,0.0,0.0,0.0,0.0,0.0,0.0,0.0,0.0,0.0,0.0,0.0,0.0,0.0,0.0,0.0,0.0,0.0,0.0,0.0,0.0,0.0,0.0,0.0,0.0,0.0,0.0,0.0,0.0,0.0,0.0,0.0,0.0,0.0,0.0,0.0,0.0,0.0,0.0,0.0,0.0,0.0,0.0,0.0,0.0,-2.4827,-2.5308,-2.5308,-2.5308,-2.5308,-2.5308,-2.5308,-2.5303,-2.5336,-2.3775,0.0,0.0,0.0,0.0,0.0,0.0,0.0,0.0,0.0,0.0,0.0,0.0,0.0,0.0,0.0,0.0,0.0,0.0,0.0,0.0,0.0,0.0,0.0,0.0,0.0,0.0,0.0,0.0,0.0,0.0,0.0,0.0,0.0,0.0,0.0,0.0,0.0,0.0,0.0,0.0,0.0,0.0,0.0,0.0,0.0,0.0,0.0,0.0,0.0,0.0,0.0,0.0,0.0,0.0,0.0,0.0,0.0,0.0,0.0,0.0,0.0,0.0,0.0,0.0,0.0,0.0,0.0,0.0,0.0,0.0,0.0,0.0,0.0,0.0,0.0,0.0,0.0,0.0,0.0,0.0,0.0,0.0,0.0,0.0,0.0,0.0,0.0,0.0,0.0,0.0,0.0,0.0,0.0,0.0,0.0,0.0,0.0,0.0,0.0,0.0,0.0,0.0,-2.5269,-2.534,-2.5572,-2.5615,-2.561,-2.5605,-2.5605,-2.5518,-2.5282,-2.3688,0.0,0.0,0.0,0.0,0.0,0.0,0.0,0.0,0.0,0.0,0.0,0.0,0.0,0.0,0.0,0.0,0.0,0.0,0.0,0.0,0.0,0.0,0.0,0.0,0.0,0.0,0.0,0.0,0.0,0.0,0.0,0.0,0.0,0.0,0.0,0.0,0.0,0.0,0.0,0.0,0.0,0.0,0.0,0.0,0.0,0.0,0.0,0.0,0.0,0.0,0.0,0.0,0.0,0.0,0.0,0.0,0.0,0.0,0.0,0.0,0.0,0.0,0.0,0.0,0.0,0.0,0.0,0.0,0.0,0.0,0.0,0.0,0.0,0.0,0.0,0.0,0.0,0.0,0.0,0.0,0.0,0.0,0.0,0.0,0.0,0.0,0.0,0.0,0.0,0.0,0.0,0.0,0.0,0.0,0.0,0.0,0.0,0.0,0.0,0.0,0.0,0.0,-2.5187,-2.5472,-2.6418,-2.6505,-2.6514,-2.6512,-2.6507,-2.6132,-2.5255,-2.3625,0.0,0.0,0.0,0.0,0.0,0.0,0.0,0.0,0.0,0.0,0.0,0.0,0.0,0.0,0.0,0.0,0.0,0.0,0.0,0.0,0.0,0.0,0.0,0.0,0.0,0.0,0.0,0.0,0.0,0.0,0.0,0.0,0.0,0.0,0.0,0.0,0.0,0.0,0.0,0.0,0.0,0.0,0.0,0.0,0.0,0.0,0.0,0.0,0.0,0.0,0.0,0.0,0.0,0.0,0.0,0.0,0.0,0.0,0.0,0.0,0.0,0.0,0.0,0.0,0.0,0.0,0.0,0.0,0.0,0.0,0.0,0.0,0.0,0.0,0.0,0.0,0.0,0.0,0.0,0.0,0.0,0.0,0.0,0.0,0.0,0.0,0.0,0.0,0.0,0.0,0.0,0.0,0.0,0.0,0.0,0.0,0.0,0.0,0.0,0.0,0.0,0.0,-2.5444,-2.592,-2.6424,-2.6929,-2.7266,-2.7336,-2.6768,-2.6293,-2.6022,0.0,0.0,0.0,0.0,0.0,0.0,0.0,0.0,0.0,0.0,0.0,0.0,0.0,0.0,0.0,0.0,0.0,0.0,0.0,0.0,0.0,0.0,0.0,0.0,0.0,0.0,0.0,0.0,0.0,0.0,0.0,0.0,0.0,0.0,0.0,0.0,0.0,0.0,0.0,0.0,0.0,0.0,0.0,0.0,0.0,0.0,0.0,0.0,0.0,0.0,0.0,0.0,0.0,0.0,0.0,0.0,0.0,0.0,0.0,0.0,0.0,0.0,0.0,0.0,0.0,0.0,0.0,0.0,0.0,0.0,0.0,0.0,0.0,0.0,0.0,0.0,0.0,0.0,0.0,0.0,0.0,0.0,0.0,0.0,0.0,0.0,0.0,0.0,0.0,0.0,0.0,0.0,0.0,0.0,0.0,0.0,0.0,0.0,0.0,0.0,0.0,0.0,-2.4993,-2.5687,-2.6272,-2.6965,-2.7521,-2.7885,-2.7974,-2.7124,-2.6512,-2.6319,0.0,0.0,0.0,0.0,0.0,0.0,0.0,0.0,0.0,0.0,0.0,0.0,0.0,0.0,0.0,0.0,0.0,0.0,0.0,0.0,0.0,0.0,0.0,0.0,0.0,0.0,0.0,0.0,0.0,0.0,0.0,0.0,0.0,0.0,0.0,0.0,0.0,0.0,0.0,0.0,0.0,0.0,0.0,0.0,0.0,0.0,0.0,0.0,0.0,0.0,0.0,0.0,0.0,0.0,0.0,0.0,0.0,0.0,0.0,0.0,0.0,0.0,0.0,0.0,0.0,0.0,0.0,0.0,0.0,0.0,0.0,0.0,0.0,0.0,0.0,0.0,0.0,0.0,0.0,0.0,0.0,0.0,0.0,0.0,0.0,0.0,0.0,0.0,0.0,0.0,0.0,0.0,0.0,0.0,0.0,0.0,0.0,0.0,0.0,0.0,0.0,0.0,-2.5661,-2.5901,-2.6476,-2.82,-2.8406,-2.8407,-2.8412,-2.7677,-2.6841,0.0,0.0,0.0,0.0,0.0,0.0,0.0,0.0,0.0,0.0,0.0,0.0,0.0,0.0,0.0,0.0,0.0,0.0,0.0,0.0,0.0,0.0,0.0,0.0,0.0,0.0,0.0,0.0,0.0,0.0,0.0,0.0,0.0,0.0,0.0,0.0,0.0,0.0,0.0,0.0,0.0,0.0,0.0,0.0,0.0,0.0,0.0,0.0,0.0,0.0,0.0,0.0,0.0,0.0,0.0,0.0,0.0,0.0,0.0,0.0,0.0,0.0,0.0,0.0,0.0,0.0,0.0,0.0,0.0,0.0,0.0,0.0,0.0,0.0,0.0,0.0,0.0,0.0,0.0,0.0,0.0,0.0,0.0,0.0,0.0,0.0,0.0,0.0,0.0,0.0,0.0,0.0,0.0,0.0,0.0,0.0,0.0,0.0,0.0,0.0,0.0,0.0,0.0,-2.541,-2.6107,-2.6907,-2.8137,-2.8774,-2.9139,-2.9249,-2.8381,-2.7522,-2.6793,0.0,0.0,0.0,0.0,0.0,0.0,0.0,0.0,0.0,0.0,0.0,0.0,0.0,0.0,0.0,0.0,0.0,0.0,0.0,0.0,0.0,0.0,0.0,0.0,0.0,0.0,0.0,0.0,0.0,0.0,0.0,0.0,0.0,0.0,0.0,0.0,0.0,0.0,0.0,0.0,0.0,0.0,0.0,0.0,0.0,0.0,0.0,0.0,0.0,0.0,0.0,0.0,0.0,0.0,0.0,0.0,0.0,0.0,0.0,0.0,0.0,0.0,0.0,0.0,0.0,0.0,0.0,0.0,0.0,0.0,0.0,0.0,0.0,0.0,0.0,0.0,0.0,0.0,0.0,0.0,0.0,0.0,0.0,0.0,0.0,0.0,0.0,0.0,0.0,0.0,0.0,0.0,0.0,0.0,0.0,0.0,0.0,0.0,0.0,0.0,0.0,0.0,-2.574,-2.6653,-2.7526,-2.8425,-2.8942,-2.927,-2.9358,-2.8501,-2.7812,-2.7409,0.0,0.0,0.0,0.0,0.0,0.0,0.0,0.0,0.0,0.0,0.0,0.0,0.0,0.0,0.0,0.0,0.0,0.0,0.0,0.0,0.0,0.0,0.0,0.0,0.0,0.0,0.0,0.0,0.0,0.0,0.0,0.0,0.0,0.0,0.0,0.0,0.0,0.0,0.0,0.0,0.0,0.0,0.0,0.0,0.0,0.0,0.0,0.0,0.0,0.0,0.0,0.0,0.0,0.0,0.0,0.0,0.0,0.0,0.0,0.0,0.0,0.0,0.0,0.0,0.0,0.0,0.0,0.0,0.0,0.0,0.0,0.0,0.0,0.0,0.0,0.0,0.0,0.0,0.0,0.0,0.0,0.0,0.0,0.0,0.0,0.0,0.0,0.0,0.0,0.0,0.0,0.0,0.0,0.0,0.0,0.0,0.0,0.0,0.0,0.0,0.0,0.0,-2.6392,-2.7353,-2.8191,-2.8913,-2.9005,-2.9005,-2.9005,-2.8338,-2.789,-2.7798,0.0,0.0,0.0,0.0,0.0,0.0,0.0,0.0,0.0,0.0,0.0,0.0,0.0,0.0,0.0,0.0,0.0,0.0,0.0,0.0,0.0,0.0,0.0,0.0,0.0,0.0,0.0,0.0,0.0,0.0,0.0,0.0,0.0,0.0,0.0,0.0,0.0,0.0,0.0,0.0,0.0,0.0,0.0,0.0,0.0,0.0,0.0,0.0,0.0,0.0,0.0,0.0,0.0,0.0,0.0,0.0,0.0,0.0,0.0,0.0,-2.6795,-2.6207,0.0,0.0,0.0,0.0,0.0,0.0,0.0,0.0,0.0,0.0,0.0,0.0,0.0,0.0,0.0,0.0,0.0,0.0,0.0,0.0,0.0,0.0,0.0,0.0,0.0,0.0,0.0,0.0,0.0,0.0,0.0,0.0,0.0,0.0,0.0,0.0,0.0,0.0,0.0,0.0,-2.6465,-2.7302,-2.8128,-2.8913,-2.9005,-2.9005,-2.9005,-2.884,-2.8473,-2.7842,-2.6722,0.0,0.0,0.0,0.0,0.0,0.0,0.0,0.0,0.0,0.0,0.0,0.0,0.0,0.0,0.0,0.0,0.0,0.0,0.0,0.0,0.0,0.0,0.0,0.0,0.0,0.0,0.0,0.0,0.0,0.0,0.0,0.0,0.0,0.0,0.0,0.0,0.0,0.0,0.0,0.0,0.0,0.0,0.0,0.0,0.0,0.0,0.0,0.0,0.0,0.0,0.0,0.0,0.0,0.0,0.0,0.0,0.0,0.0,0.0,-2.7301,-2.6773,0.0,0.0,0.0,0.0,0.0,0.0,0.0,0.0,0.0,0.0,0.0,0.0,0.0,0.0,0.0,0.0,0.0,0.0,0.0,0.0,0.0,0.0,0.0,0.0,0.0,0.0,0.0,0.0,0.0,0.0,0.0,0.0,0.0,0.0,0.0,0.0,0.0,0.0,0.0,0.0,-2.6645,-2.7453,-2.8099,-2.8516,-2.87,-2.8803,-2.8803,-2.8935,-2.8822,-2.8411,-2.7622,0.0,0.0,0.0,0.0,0.0,0.0,0.0,0.0,0.0,0.0,0.0,0.0,0.0,0.0,0.0,0.0,0.0,0.0,0.0,0.0,0.0,0.0,0.0,0.0,0.0,0.0,0.0,0.0,0.0,0.0,0.0,0.0,0.0,0.0,0.0,0.0,0.0,0.0,0.0,0.0,0.0,0.0,0.0,0.0,0.0,0.0,0.0,0.0,0.0,0.0,0.0,0.0,0.0,-2.8499,-2.8499,-2.8499,-2.8499,-2.8485,-2.8386,-2.761,-2.6949,-2.6471,-2.6602,0.0,0.0,0.0,0.0,0.0,0.0,0.0,0.0,0.0,0.0,0.0,0.0,0.0,0.0,0.0,0.0,0.0,0.0,0.0,0.0,0.0,0.0,-2.4075,-2.3848,-2.3802,-2.3553,-2.2672,0.0,0.0,0.0,0.0,0.0,0.0,0.0,0.0,0.0,0.0,0.0,-2.6832,-2.7607,-2.8156,-2.8298,-2.855,-2.8766,-2.8897,-2.9009,-2.9047,-2.9047,-2.8164,-2.7244,0.0,0.0,0.0,0.0,0.0,0.0,0.0,0.0,0.0,0.0,0.0,0.0,0.0,0.0,0.0,0.0,0.0,0.0,0.0,0.0,0.0,0.0,0.0,0.0,0.0,0.0,0.0,0.0,0.0,0.0,0.0,0.0,-2.411,-2.411,0.0,0.0,0.0,0.0,0.0,0.0,0.0,0.0,0.0,0.0,0.0,0.0,0.0,-2.8162,-2.9141,-2.9037,-2.9358,-3.0095,-3.0095,-3.0095,-3.0095,-3.0095,-2.9978,-2.9765,-2.9852,0.0,-2.7799,-2.712,0.0,0.0,0.0,0.0,0.0,0.0,0.0,0.0,0.0,0.0,0.0,0.0,0.0,0.0,0.0,0.0,0.0,0.0,0.0,0.0,0.0,0.0,-2.5431,-2.5412,-2.5394,-2.5353,-2.5218,-2.4139,-2.3177,-2.3177,-2.3739,-2.4043,0.0,0.0,0.0,0.0,0.0,0.0,-2.6903,-2.7607,-2.837,-2.9069,-2.9169,-2.9469,-3.0115,-2.9605,-2.9271,-2.9271,-2.7843,-2.6959,-2.6813,-2.4682,0.0,0.0,0.0,0.0,0.0,0.0,0.0,0.0,0.0,0.0,0.0,0.0,0.0,0.0,0.0,0.0,0.0,0.0,0.0,0.0,0.0,0.0,0.0,0.0,0.0,0.0,0.0,0.0,0.0,-2.374,-2.4296,-2.4566,-2.5007,-2.5487,0.0,0.0,0.0,0.0,0.0,0.0,0.0,0.0,0.0,-2.7692,-2.8425,-2.9033,-2.9413,-2.9413,-2.9572,-2.9887,-2.9887,-2.9887,-2.9887,-2.9887,-2.9823,-2.9742,-2.9839,-2.9502,-2.8851,-2.8433,-2.834,-2.8376,0.0,0.0,0.0,0.0,-2.7137,-2.7192,-2.6586,-2.6373,-2.6302,-2.5857,0.0,0.0,0.0,0.0,0.0,0.0,0.0,-2.5676,-2.5508,-2.5469,-2.546,-2.533,-2.532,-2.532,-2.532,-2.4777,-2.4392,-2.4645,-2.4979,-2.5104,-2.4759,-2.5126,0.0,0.0,0.0,-2.6755,-2.7632,-2.8049,-2.8555,-2.9343,-2.957,-2.9819,-3.0139,-3.0024,-2.9914,-2.9914,-2.8863,-2.7988,-2.7377,-2.6082,-2.4912,0.0,0.0,0.0,0.0,0.0,0.0,0.0,0.0,0.0,0.0,0.0,0.0,0.0,0.0,0.0,0.0,0.0,0.0,0.0,0.0,0.0,0.0,0.0,0.0,0.0,0.0,0.0,0.0,-2.4362,-2.4691,-2.5043,-2.5429,-2.5889,0.0,0.0,0.0,0.0,0.0,0.0,-2.762,-2.8219,-2.8612,-2.8662,-2.9196,-2.9575,-2.9799,-2.9817,-2.9903,-3.0093,-3.0093,-3.0093,-3.0093,-3.0093,-3.0093,-3.0093,-3.0093,-3.0093,-3.0041,-2.956,-2.9399,-2.9405,-2.8726,-2.8443,-2.8378,-2.8223,-2.8099,-2.7907,-2.7228,-2.7006,-2.6886,-2.6303,-2.5972,-2.5795,-2.5795,0.0,0.0,0.0,0.0,-2.6059,-2.5869,-2.5813,-2.577,-2.5619,-2.5592,-2.5592,-2.5592,-2.5592,-2.5571,-2.5535,-2.5667,-2.5742,-2.5544,-2.5672,0.0,-2.6336,-2.6558,-2.7109,-2.8247,-2.8558,-2.8972,-2.973,-3.0021,-3.0258,-3.0433,-3.0469,-3.0472,-3.0472,-2.9763,-2.8896,-2.7914,-2.7317,-2.6288,-2.4729,0.0,0.0,0.0,0.0,0.0,0.0,0.0,0.0,0.0,0.0,0.0,0.0,0.0,0.0,0.0,0.0,0.0,0.0,0.0,0.0,0.0,0.0,0.0,0.0,0.0,0.0,0.0,0.0,0.0,-2.5557,-2.6183,0.0,0.0,0.0,0.0,-2.7774,-2.8486,-2.8947,-2.9,-2.9034,-2.9141,-2.9334,-2.9403,-2.9798,-3.0627,-3.0645,-3.0989,-3.1679,-3.1679,-3.1679,-3.1679,-3.1679,-3.1679,-3.1679,-3.1679,-3.1679,-3.1558,-3.0093,-2.9673,-2.9934,-2.9572,-2.936,-2.9176,-2.8606,-2.8105,-2.7686,-2.7369,-2.7277,-2.726,-2.7225,-2.6707,-2.607,-2.607,-2.607,0.0,0.0,-2.6638,-2.7225,-2.721,-2.721,-2.7194,-2.7194,-2.7178,-2.7178,-2.7178,-2.7178,-2.6763,-2.531,-2.5601,-2.5846,-2.517,0.0,-2.6952,-2.6228,-2.7351,-2.8316,-2.8385,-2.9006,-2.9748,-3.0541,-3.0645,-3.0956,-3.1664,-3.1078,-3.068,-3.068,-2.9937,-2.9143,-2.8401,-2.7674,-2.7003,-2.6401,-2.4861,0.0,0.0,0.0,0.0,0.0,0.0,0.0,0.0,0.0,0.0,0.0,0.0,0.0,0.0,0.0,0.0,0.0,0.0,0.0,0.0,0.0,0.0,0.0,0.0,0.0,0.0,0.0,0.0,-2.6251,-2.6962,0.0,-2.6981,-2.7701,-2.806,-2.7756,-2.8196,-2.8498,-2.8517,-2.9137,-2.952,-2.9595,-3.0051,-3.0461,-3.077,-3.077,-3.0985,-3.1485,-3.1257,-3.1276,-3.1466,-3.1257,-3.1159,-3.1179,-3.1372,-3.1485,-3.1451,-3.1124,-3.0767,-3.0387,-2.9765,-2.9486,-2.9405,-2.9194,-2.8987,-2.8791,-2.821,-2.8006,-2.792,-2.7437,-2.7109,-2.6868,-2.6868,-2.6868,-2.6837,-2.6611,-2.7093,-2.764,-2.747,-2.7773,-2.8163,-2.8339,-2.8391,-2.8442,-2.8663,-2.8713,-2.8558,-2.8006,-2.773,-2.7506,-2.723,-2.804,-2.8627,-2.8334,-2.8765,-2.9299,-2.9799,-3.011,-3.0558,-3.1317,-3.1403,-3.1507,-3.1783,-3.1558,-3.1403,-3.1403,-3.0679,-3.0144,-2.9886,-2.8661,-2.7916,-2.7735,-2.6177,-2.5265,0.0,0.0,0.0,0.0,0.0,0.0,0.0,0.0,0.0,0.0,0.0,0.0,0.0,0.0,0.0,0.0,0.0,0.0,0.0,0.0,0.0,0.0,0.0,0.0,0.0,0.0,-2.6285,-2.6789,-2.7367,-2.7597,-2.7295,-2.801,-2.8378,-2.8053,-2.8466,-2.8739,-2.8739,-2.9362,-2.9728,-2.9768,-3.0335,-3.0645,-3.0703,-3.0764,-3.0925,-3.1123,-3.0905,-3.0925,-3.1123,-3.0905,-3.0804,-3.0808,-3.1024,-3.1123,-3.1142,-3.1372,-3.1175,-3.0698,-3.0401,-3.004,-2.9728,-2.9728,-2.9557,-2.9282,-2.8904,-2.8765,-2.8696,-2.8196,-2.7975,-2.7876,-2.7876,-2.7809,-2.7691,-2.747,-2.7755,-2.8107,-2.7908,-2.8221,-2.8645,-2.8815,-2.887,-2.8942,-2.914,-2.921,-2.9211,-2.9316,-2.9042,-2.8765,-2.8765,-2.9179,-2.9506,-2.9506,-2.973,-3.0093,-3.0627,-3.0903,-3.1248,-3.1748,-3.18,-3.18,-3.18,-3.18,-3.18,-3.18,-3.1334,-3.0973,-3.0696,-2.9713,-2.9041,-2.8782,-2.7523,-2.6461,-2.5582,0.0,0.0,0.0,0.0,0.0,0.0,0.0,0.0,0.0,0.0,0.0,0.0,0.0,0.0,0.0,0.0,0.0,0.0,0.0,0.0,0.0,0.0,0.0,-2.6572,-2.6931,-2.7088,-2.7104,-2.7411,-2.7639,-2.7618,-2.829,-2.8715,-2.8694,-2.9362,-2.9788,-2.9788,-2.9772,-2.9799,-2.9859,-3.0128,-3.033,-3.0477,-3.0662,-3.0784,-3.0767,-3.0784,-3.0784,-3.0767,-3.0784,-3.0784,-3.0784,-3.0767,-3.0767,-3.0804,-3.0804,-3.0804,-3.0865,-3.1504,-3.1132,-3.0223,-3.0223,-2.9712,-2.9067,-2.9385,-2.9489,-2.9472,-2.9472,-2.9247,-2.8981,-2.8981,-2.8814,-2.8588,-2.8588,-2.8605,-2.8619,-2.8603,-2.8619,-2.8636,-2.8636,-2.8655,-2.8672,-2.8672,-2.8672,-2.8749,-2.9011,-2.9332,-2.9524,-2.9541,-2.9558,-2.9575,-2.9558,-3.0213,0.0,-3.0696,-3.1333,-3.1764,-3.1781,-3.1764,-3.18,-3.18,-3.18,-3.18,-3.18,-3.18,-3.1472,-3.0766,-3.0696,-3.0317,-2.9523,-2.8799,-2.7713,-2.6197,0.0,0.0,0.0,0.0,0.0,0.0,0.0,0.0,0.0,0.0,0.0,0.0,0.0,0.0,0.0,0.0,0.0,0.0,0.0,0.0,0.0,0.0,-2.6302,-2.6512,-2.6618,-2.6864,-2.7396,-2.8033,-2.8244,-2.7932,-2.8551,-2.8835,-2.8514,-2.881,-2.8997,-2.8997,-2.9198,-2.9312,-2.9319,-2.9387,-2.9544,-2.9766,-2.9832,-3.0054,-3.0439,-3.0241,-3.0258,-3.0418,-3.0236,-3.0146,-3.0167,-3.0351,-3.0439,-3.046,-3.0686,-3.0804,-3.0825,-3.1004,-3.0906,-3.0639,-3.0639,-3.0169,-2.953,-2.9606,-2.9306,-2.8849,-2.8849,-2.8794,-2.8703,-2.8703,-2.8663,-2.855,-2.8323,-2.8609,-2.8999,-2.8792,-2.9144,-2.9599,-2.9795,-2.984,-2.9901,-3.0142,-3.0199,-3.0221,-3.0283,-3.0378,-3.0421,-3.0384,-3.0817,-3.1089,-3.0834,-3.1003,-3.1045,-3.0796,-3.0946,-3.1179,-3.1411,-3.1447,-3.1542,-3.1781,-3.18,-3.18,-3.18,-3.18,-3.1714,-3.1507,-3.099,-3.0317,-2.9523,-2.9299,-2.8989,0.0,0.0,0.0,0.0,0.0,0.0,0.0,0.0,0.0,0.0,0.0,0.0,0.0,0.0,0.0,0.0,0.0,0.0,0.0,0.0,0.0,0.0,-2.626,-2.6561,-2.6825,-2.7004,-2.7289,-2.7716,-2.824,-2.8467,-2.8201,-2.8561,-2.8825,-2.8836,-2.8934,-2.9115,-2.941,-2.9572,-2.9646,-2.9646,-2.9751,-2.9895,-3.0046,-3.0273,-3.039,-3.0363,-3.0324,-3.0244,-3.013,-2.9968,-2.9896,-2.9902,-3.0065,-3.0113,-3.0135,-3.0347,-3.0431,-3.0452,0.0,0.0,0.0,0.0,-3.0335,-2.9969,-3.0109,-2.9881,-2.9529,-2.9529,-2.9432,-2.9314,-2.9314,-2.9214,-2.909,-2.8907,-2.916,-2.9461,-2.9291,-2.9572,-2.9946,-3.0108,-3.0113,-3.0194,-3.0368,-3.0431,-3.0472,-3.058,-3.0584,0.0,-3.0715,-3.11,-3.1315,-3.1103,-3.1083,-3.1024,-3.0825,-3.0804,-3.0868,-3.1064,-3.1083,-3.1179,-3.1353,-3.1504,0.0,0.0,0.0,-3.18,-3.18,-3.1386,0.0,0.0,0.0,-2.9834,-2.9506,-2.9075,0.0,0.0,-2.635,-2.6178,0.0,0.0,0.0,0.0,0.0,0.0,0.0,0.0,0.0,0.0,0.0,0.0,0.0,0.0,0.0,0.0,-2.6087,-2.6734,-2.7411,-2.7898,-2.8126,-2.8048,-2.8326,-2.8519,-2.8519,-2.8581,-2.8889,-2.9489,-2.9494,-2.9771,-3.0371,0.0,0.0,0.0,0.0,-3.0766,-3.0842,-3.1322,-3.1262,-3.0662,-3.0903,-3.0668,-3.001,-3.001,-2.9961,-2.9896,-2.9896,-2.9896,-2.9896,-2.9896,-2.9896,-2.9946,-3.0493,-3.0518,-3.0246,-3.0246,-3.0246,-3.0309,-3.0601,0.0,0.0,-3.0703,-3.0497,-3.0246,-3.0246,-3.0087,-2.9896,-2.9896,-2.9896,-2.9896,-2.9896,-2.9896,-2.9896,-2.9896,-2.9896,-2.9896,-2.9896,-2.9896,-2.9968,-3.0204,-3.0246,-3.0351,-3.0642,-3.0747,-3.0804,-3.0747,-3.0727,-3.076,-3.082,-3.0799,-3.0853,-3.0978,-3.0994,0.0,-3.1056,-3.1317,-3.1492,-3.1492,-3.1798,-3.197,-3.1921,-3.1921,-3.1576,-3.0834,-3.0817,-3.0472,-2.9765,-2.9679,-2.9644,-2.9627,-2.8868,-2.8523,0.0,0.0,0.0,0.0,0.0,0.0,0.0,0.0,0.0,0.0,0.0,0.0,0.0,0.0,0.0,-2.6834,-2.7103,-2.7442,-2.8119,-2.8746,-2.8934,-2.8377,-2.8861,-2.9202,-2.9202,-2.9694,-3.0063,-3.0202,-3.0202,-3.0263,-3.0386,-3.0402,-3.0402,-3.0402,-3.0438,-3.0695,-3.1108,-3.1223,-3.1413,-3.1715,-3.1754,0.0,-3.071,-3.071,-3.0409,-2.9896,-2.9896,-2.9896,-2.9896,-2.9896,-2.9896,-2.9902,-3.0033,-3.0038,-2.9989,-2.9989,-2.9989,-2.9989,-3.0038,-3.006,-3.006,-3.006,-3.0017,-2.9989,-2.9989,-2.9946,0.0,-2.9896,-2.9896,-2.9896,-2.9896,-2.9896,-2.9896,-2.9896,-2.9896,-2.9896,-2.9896,-2.9896,-2.9918,-2.9968,-2.9989,-2.9995,-3.006,-3.0472,-3.0723,-3.0439,-3.0414,-3.0523,-3.0843,-3.088,-3.122,-3.2083,-3.2172,-3.2282,-3.2543,-3.2629,-3.2667,-3.2667,-3.2991,-3.3043,-3.2695,-3.2697,-3.2334,-3.1593,-3.1576,-3.1507,-3.1351,-3.0748,-3.0455,-3.0437,-2.9661,-2.9299,0.0,0.0,0.0,0.0,0.0,0.0,0.0,0.0,0.0,0.0,0.0,-2.5025,0.0,0.0,-2.658,-2.7288,-2.7965,-2.8519,-2.8858,-2.9464,-2.9648,-2.8996,-2.9479,-2.9894,-2.9894,-3.0202,-3.054,-3.0889,-3.0905,-3.1059,-3.1397,-3.1413,-3.1413,-3.1413,-3.1413,-3.1531,-3.1794,-3.1982,-3.2067,-3.2117,-3.224,-3.1999,-3.1438,-3.1066,-3.071,-3.0376,-3.0042,-2.9896,-2.9896,-2.9896,-2.9896,-2.9896,-2.9896,-2.9896,-2.9896,-2.9896,-2.9896,-2.9896,-2.9896,-2.9896,-2.9896,-2.9896,-2.9896,-2.9896,-2.9896,-2.9896,-2.9896,-2.9896,-2.9896,-2.9896,-2.9896,-2.9896,-2.9896,-2.9896,-2.9896,-2.9896,-2.9896,-2.9896,-2.9896,-2.9896,-3.0172,-3.0393,-3.0393,-3.0958,-3.121,-3.0675,-3.0898,-3.1206,-3.1413,-3.1438,-3.1653,-3.218,-3.2252,-3.2321,-3.2504,-3.2646,-3.2818,-3.2994,-3.3309,-3.3414,-3.3217,-3.3395,-3.3317,-3.2974,-3.2938,-3.2938,-3.2938,-3.2595,-3.2405,-3.2386,-3.199,-3.1386,0.0,0.0,0.0,0.0,0.0,0.0,0.0,0.0,-2.4702,-2.5379,-2.5496,-2.5749,-2.6457,-2.7134,-2.7642,-2.7765,-2.8812,-2.9587,-2.9587,-3.0156,-3.0386,-2.9858,-3.0274,-3.0586,-3.0586,-3.0709,-3.1028,-3.1536,-3.1582,-3.184,-3.2367,-3.2398,-3.2398,-3.2398,-3.2398,-3.2425,-3.2496,-3.2773,-3.2776,-3.2507,-3.272,-3.2602,-3.219,-3.1584,-3.1163,-3.0856,-3.0204,-2.9896,-2.9896,-2.9896,-2.9896,-2.9896,-2.9896,-2.9896,-2.9896,-2.9896,-2.9896,-2.9896,-2.9896,-2.9896,-2.9896,-2.9896,-2.9896,-2.9896,-2.9896,-2.9896,-2.9896,-2.9896,-2.9896,-2.9896,-2.9896,-2.9896,-2.9896,-2.9896,-2.9896,-2.9896,-2.9896,-2.9896,-2.9929,-3.0075,-3.0538,-3.0953,-3.1082,-3.1713,-3.1963,-3.1228,-3.1616,-3.206,-3.2206,-3.2222,-3.2271,-3.24,-3.2417,-3.2417,-3.2417,-3.266,-3.2961,-3.3301,-3.3597,-3.3706,-3.3618,-3.3922,-3.4054,-3.3997,-3.398,-3.4017,-3.4113,-3.4113,-3.4113,-3.4113,-3.4113,-3.344,-2.4194,-2.4087,-2.4071,-2.4066,-2.4128,-2.4327,0.0,0.0,-2.541,-2.6118,-2.6272,-2.6472,-2.7149,-2.7842,-2.8488,-2.9089,-2.9787,-3.0279,-3.0279,-3.0874,-3.1243,-3.1208,-3.1228,-3.1274,-3.1274,-3.1828,-3.2198,-3.2275,-3.2275,-3.2321,-3.2398,-3.2398,-3.2398,-3.2398,-3.2398,-3.2551,-3.2843,-3.287,-3.3118,-3.3531,-3.3556,-3.3356,-3.2967,-3.2886,-3.2141,-3.0856,-3.0204,-2.9896,-2.9896,-2.9896,-2.9896,-2.9896,-2.9896,-2.9896,-2.9896,-2.9896,-2.9896,-2.9896,-2.9896,-2.9896,-2.9896,-2.9896,-2.9896,-2.9896,-2.9896,-2.9896,-2.9896,-2.9896,-2.9896,-2.9896,-2.9896,-2.9896,-2.9896,-2.9896,-2.9896,-2.9896,-2.9896,-2.9896,-3.0075,-3.0661,-3.0856,-3.1114,-3.1746,-3.2481,-3.2724,-3.1996,-3.1963,-3.2238,-3.2886,-3.2967,-3.3194,-3.3793,-3.3874,-3.3874,-3.3874,-3.3883,-3.408,-3.4468,-3.4539,-3.4406,-3.4052,-3.408,-3.392,-3.3581,-3.3564,-3.3741,-3.4113,-3.4113,-3.4113,-3.4113,-3.4113,-3.401,-2.4405,-2.4302,-2.4394,0.0,-2.4881,-2.5066,-2.578,-2.5949,-2.6134,-2.6826,-2.698,-2.7303,-2.8365,-2.8796,-2.9187,0.0,-3.0551,-3.0982,-3.0982,-3.1551,-3.1967,-3.1967,-3.1735,-3.1665,-3.1955,-3.198,-3.212,-3.237,-3.1908,-3.1823,-3.237,-3.2148,-3.1979,-3.1979,-3.1979,-3.2051,-3.2206,-3.2206,-3.2566,-3.3229,-3.3398,-3.3463,-3.3439,-3.283,-3.1756,-3.0345,-2.9706,-2.9425,-2.9425,-2.9425,-2.9425,-2.947,-2.9792,-2.9896,-2.9896,-2.9896,-2.9896,-2.9896,-2.9896,-2.9896,-2.9896,-2.9896,-2.9896,-2.9896,-2.9896,-2.9896,-2.9896,-2.9896,-2.9896,-2.9896,-2.9896,-2.9896,-2.9896,-2.9896,-2.9896,-2.9896,-2.9896,-3.022,-3.0571,-3.0856,-3.1584,-3.2287,-3.2579,-3.321,-3.3582,-3.3275,-3.3226,-3.334,-3.3631,-3.368,-3.3777,-3.4068,-3.4101,-3.4101,-3.4101,-3.4101,-3.4176,-3.4349,-3.457,-3.4631,-3.4459,-3.4863,-3.5001,-3.4831,-3.5023,-3.5208,-3.537,-3.537,-3.537,-3.537,-3.537,-3.5469,-2.4956,-2.4887,0.0,-2.545,-2.5588,-2.5795,-2.6503,-2.6695,-2.6857,-2.7534,-2.7827,-2.8258,-2.9218,-2.972,-3.012,-3.0612,-3.1243,-3.1686,-3.1686,-3.198,-3.2259,-3.2398,-3.1866,-3.1695,-3.2176,-3.1781,-3.1695,-3.2176,-3.1451,-3.1306,-3.1992,-3.1695,-3.1495,-3.1495,-3.1495,-3.1495,-3.1495,-3.1495,-3.1838,-3.2496,-3.2904,-3.3156,-3.3214,-3.2159,-3.1083,-3.0031,-2.9242,-2.8889,-2.8889,-2.9028,-2.9097,-2.9143,-2.9687,-2.9896,-2.9896,-2.9896,-2.9896,-2.9896,-2.9896,-2.9896,-2.9896,-2.9896,-2.9896,-2.9896,-2.9896,-2.9896,-2.9896,-2.9896,-2.9896,-2.9896,-2.9896,-2.9896,-2.9896,-2.9896,-2.9896,-2.9945,-3.0139,-3.0571,-3.1017,-3.1422,-3.2368,-3.317,-3.334,-3.3777,-3.4101,-3.4101,-3.4101,-3.4101,-3.4101,-3.4101,-3.4101,-3.4101,-3.4101,-3.4101,-3.4101,-3.4101,-3.4101,-3.4101,-3.4472,-3.4691,-3.4691,-3.5293,-3.5694,-3.5805,-3.6045,-3.6216,-3.6301,-3.6301,-3.6301,-3.6301,-3.6301,-3.6402,-2.6341,0.0,-2.6318,-2.628,-2.6334,-2.6534,-2.7211,-2.7365,-2.7565,-2.8242,-2.8904,-2.9341,-2.9371,-3.0458,-3.1362,-3.1378,-3.1921,-3.2367,-3.2367,-3.1992,-3.1894,-3.2342,-3.1595,-3.1204,0.0,-3.1292,-3.1234,-3.171,-3.1263,-3.1029,-3.1058,-3.1029,-3.1029,-3.1029,-3.1029,-3.1029,-3.1029,-3.1029,-3.1146,-3.1463,-3.2241,-3.2461,-3.2093,-3.0924,-3.032,-3.0212,-2.8898,-2.8312,-2.836,-2.8889,-2.9097,-2.9143,-2.9687,-2.9896,-2.9896,-2.9896,-2.9896,-2.9896,-2.9896,-2.9896,-2.9896,-2.9896,-2.9896,-2.9896,-2.9896,-2.9896,-2.9896,-2.9896,-2.9896,-2.9896,-2.9896,-2.9896,-2.9896,-2.9896,-2.9896,-3.0075,-3.0726,-3.0888,-3.1325,-3.2757,-3.3064,-3.3315,-3.3955,-3.4084,-3.4101,-3.4101,-3.4101,-3.4101,-3.4101,-3.4101,-3.4101,-3.4101,-3.4101,-3.4101,-3.4101,-3.4101,-3.4101,-3.4101,-3.4472,-3.4691,-3.4691,-3.5015,-3.5407,-3.5788,-3.5827,-3.598,-3.6301,-3.6301,-3.6301,-3.6301,-3.6301,-3.6301,-2.6402,0.0,-2.6488,-2.6919,-2.7042,-2.7226,-2.7919,-2.8057,-2.8134,-2.835,-2.8925,-2.9525,-2.9971,-3.0797,-3.1563,-3.1982,-3.2244,-3.2287,-3.1979,-3.1781,-3.1638,-3.148,-3.0925,0.0,0.0,0.0,0.0,-3.1204,-3.0523,-3.0342,-3.097,-3.0703,-3.0523,-3.0523,-3.0523,-3.0523,-3.0523,-3.0523,-3.0748,-3.1146,-3.1707,-3.1821,-3.1491,-3.1116,-3.0487,-2.9656,-2.8796,-2.8188,-2.7775,-2.7947,-2.824,-2.8614,-2.9159,-2.9598,-2.9896,-2.9896,-2.9896,-2.9896,-2.9896,-2.9896,-2.9896,-2.9896,-2.9896,-2.9896,-2.9896,-2.9896,-2.9896,-2.9896,-2.9896,-2.9896,-2.9896,-2.9896,-2.9896,-2.9896,-3.0253,-3.0635,-3.0856,-3.1665,-3.2514,-3.2983,-3.3453,-3.3825,-3.4052,-3.4101,-3.4101,-3.4101,-3.4101,-3.4101,-3.4101,-3.4101,-3.4101,-3.4101,-3.4101,-3.4101,-3.4101,-3.4101,-3.4101,-3.4101,-3.4472,-3.4691,-3.4691,-3.527,-3.5655,-3.5805,-3.6023,-3.6195,-3.6301,-3.6301,-3.6301,-3.6301,-3.6301,-3.6402,-2.7103,-2.7103,-2.7211,-2.7642,-2.7765,-2.7873,-2.8304,-2.8411,-2.8411,-2.8411,-2.911,-2.9879,-3.0325,-3.1151,-3.189,-3.2321,-3.2259,-3.2035,-3.1739,-3.1567,-3.135,-3.1029,-3.0583,-3.0433,0.0,0.0,0.0,-3.0703,-3.0052,-2.9867,-3.0463,-3.019,-3.0052,-3.0052,-3.0052,-3.0052,-3.0052,-3.0052,-3.0328,-3.0881,-3.1058,-3.1146,-3.1174,-3.0848,-3.0133,-2.9106,-2.8485,-2.7861,-2.7265,-2.7414,-2.7715,-2.807,-2.8614,-2.9159,-2.9621,-2.9621,-2.9748,-2.9896,-2.9896,-2.9896,-2.9896,-2.9896,-2.9896,-2.9896,-2.9896,-2.9896,-2.9896,-2.9896,-2.9896,-2.9896,-2.9896,-2.9896,-2.9961,-3.0204,-3.0603,-3.105,-3.1568,-3.2433,-3.3161,-3.3404,-3.3809,-3.4101,-3.4101,-3.4101,-3.4101,-3.4101,-3.4101,-3.4101,-3.4101,-3.4101,-3.4101,-3.4101,-3.4101,-3.4101,-3.4101,-3.4101,-3.4101,-3.4101,-3.4578,-3.4866,-3.4866,-3.5588,-3.598,-3.598,-3.6195,-3.6301,-3.6301,-3.6301,-3.6301,-3.6301,-3.6301,-3.6402,-2.8411,-2.8411,-2.8411,-2.8411,-2.8411,-2.8411,-2.8411,-2.8411,-2.8411,-2.8411,-2.9433,-3.034,0.0,0.0,-3.2336,-3.2336,-3.1977,-3.171,-3.1682,-3.1263,-3.097,0.0,0.0,0.0,0.0,0.0,0.0,-3.0235,0.0,-2.9602,-2.9602,-2.9602,-2.9602,-2.9602,-2.9602,-2.9602,-2.9602,-2.9602,-2.9931,-3.063,-3.0251,-3.0477,-3.1116,-3.0075,-2.9276,-2.8665,-2.7971,-2.7333,-2.6832,-2.7291,-2.7464,-2.754,-2.8046,-2.8614,-2.9097,-2.9097,-2.9448,-2.9896,-2.9896,-2.9896,-2.9896,-2.9896,-2.9896,-2.9896,-2.9896,-2.9896,-2.9896,-2.9896,-2.9896,-2.9896,-2.9896,-2.9913,-3.0107,-3.0742,-3.0969,-3.139,-3.2789,-3.3137,-3.334,-3.3971,-3.4101,-3.4101,-3.4101,-3.4101,-3.4101,-3.4101,-3.4101,-3.4101,-3.4101,-3.4101,-3.4101,-3.4101,-3.4101,-3.4101,-3.4101,-3.4126,-3.4126,-3.4101,-3.4802,-3.5224,-3.5201,-3.592,-3.6301,-3.6301,-3.6301,-3.6301,-3.6301,-3.6301,-3.6301,-3.6301,-3.6335,-3.637,-2.8411,-2.8411,-2.8411,-2.8411,-2.8411,-2.8411,-2.8411,-2.8411,-2.8411,-2.8411,-2.9064,-2.9648,0.0,0.0,0.0,-3.1643,-3.1688,0.0,-3.1234,-3.0762,0.0,-2.9991,0.0,-2.9789,-2.9789,-2.9665,0.0,0.0,-2.9665,-2.9602,-2.9602,-2.9602,-2.9602,-2.9602,-2.9602,-2.9602,-2.9602,-2.9602,-2.9682,-2.9884,-3.0036,-3.0203,-3.0372,-2.9826,-2.9276,-2.8665,-2.7971,-2.7265,-2.6604,-2.6855,-2.7111,-2.7373,-2.76,-2.828,-2.9097,-2.9097,-2.9448,-2.9896,-2.9896,-2.9896,-2.9896,-2.9896,-2.9896,-2.9896,-2.9896,-2.9896,-2.9896,-2.9896,-2.9896,-2.9896,-2.9896,-3.0263,-3.0678,-3.0856,-3.1753,-3.2643,-3.3016,-3.3485,-3.389,-3.4068,-3.4101,-3.4101,-3.4101,-3.4101,-3.4101,-3.4101,-3.4101,-3.4101,-3.4101,-3.4101,-3.4101,-3.4101,-3.4101,-3.4101,-3.4101,-3.4374,-3.4423,-3.4126,-3.5068,-3.5521,-3.5224,-3.592,-3.6301,-3.6301,-3.6301,-3.6301,-3.6301,-3.6301,-3.6301,-3.6318,-3.6904,-3.727,-2.8411,-2.8411,-2.8411,-2.8411,-2.8411,-2.8411,-2.8411,-2.8411,-2.8411,-2.8411,-2.8925,0.0,0.0,0.0,0.0,0.0,0.0,0.0,-3.0984,-3.0613,-3.0144,0.0,-2.9789,0.0,-2.9602,-2.9602,-2.9602,0.0,-2.9602,-2.9602,-2.9602,-2.9602,-2.9602,-2.9602,-2.9602,-2.9602,-2.9602,-2.9602,-2.9602,-2.9602,-2.9927,-3.008,-3.0097,-2.9737,-2.9247,-2.8581,-2.7888,-2.7157,-2.6418,-2.6592,-2.6788,-2.6979,-2.7137,-2.7815,-2.8756,-2.8756,-2.9227,-2.9896,-2.9896,-2.9896,-2.9896,-2.9896,-2.9896,-2.9896,-2.9896,-2.9896,-2.9896,-2.9896,-2.9896,-2.9961,-3.0247,-3.0635,-3.1066,-3.1697,-3.2498,-3.3178,-3.3469,-3.3825,-3.4101,-3.4101,-3.4101,-3.4101,-3.4101,-3.4101,-3.4101,-3.4101,-3.4101,-3.4101,-3.4101,-3.4101,-3.4101,-3.4101,-3.4101,-3.4101,-3.4101,-3.4472,-3.4594,-3.4374,-3.527,-3.57,-3.5476,-3.6006,-3.6301,-3.6301,-3.6301,-3.6301,-3.6301,-3.6646,-3.6882,-3.6988,-3.7659,-3.8153,-2.8381,-2.8411,-2.8411,-2.8411,-2.8411,-2.8411,-2.8411,-2.8334,-2.8273,-2.8273,0.0,-2.9012,-2.9012,-2.9617,-3.0309,-3.0905,0.0,-3.019,-3.0793,-3.051,-3.0052,-2.9634,-2.996,-3.0052,-2.9634,-2.9602,-2.9602,-2.9602,-2.9602,-2.9602,-2.9602,-2.9602,-2.9602,-2.9602,-2.9602,-2.9602,-2.9602,-2.9602,-2.9602,-2.9634,-2.9958,-3.008,-3.0097,-2.9651,-2.9074,-2.8439,-2.7663,-2.6949,-2.6299,-2.6431,-2.651,-2.651,-2.6712,-2.7418,-2.8288,-2.8288,-2.8982,-2.9896,-2.9896,-2.9896,-2.9896,-2.9896,-2.9896,-2.9896,-2.9896,-2.9896,-2.9896,-2.9896,-2.9896,-3.0042,-3.0726,-3.0969,-3.139,-3.2757,-3.3161,-3.3372,-3.3971,-3.4101,-3.4101,-3.4101,-3.4101,-3.4101,-3.4101,-3.4101,-3.4101,-3.4101,-3.4101,-3.4101,-3.4101,-3.4101,-3.4101,-3.4101,-3.4101,-3.4126,-3.4176,-3.4546,-3.4763,-3.4763,-3.547,-3.5849,-3.5805,-3.6131,-3.6301,-3.6301,-3.6404,-3.6456,-3.6456,-3.7271,-3.7741,-3.7976,-3.8542,-3.9042,-2.8338,-2.8411,-2.8411,-2.8411,-2.8411,-2.8411,-2.8411,-2.798,0.0,0.0,-2.7226,-2.6919,-2.6919,-2.7919,-2.8781,-2.8904,0.0,0.0,0.0,0.0,-2.9696,0.0,0.0,0.0,0.0,0.0,0.0,0.0,-2.9602,-2.9602,-2.9602,-2.9602,-2.9602,-2.9602,-2.9602,-2.9602,-2.9602,-2.9602,-2.9665,-2.9761,-3.0005,-3.008,-3.0083,-2.9116,-2.8541,-2.8197,-2.7025,-2.644,-2.6299,-2.6431,-2.651,-2.651,-2.6712,-2.7418,-2.8288,-2.8288,-2.8982,-2.9896,-2.9896,-2.9896,-2.9896,-2.9896,-2.9896,-2.9896,-2.9896,-2.9896,-2.9896,-2.9896,-2.9896,-3.0042,-3.0726,-3.1341,-3.2044,-3.2886,-3.3518,-3.3955,-3.4068,-3.4101,-3.4101,-3.4101,-3.4101,-3.4101,-3.4101,-3.4101,-3.4101,-3.4101,-3.4101,-3.4101,-3.4101,-3.4101,-3.4101,-3.4101,-3.4101,-3.4226,-3.457,-3.4913,-3.5108,-3.5108,-3.581,-3.6088,-3.5827,-3.6131,-3.6301,-3.6301,-3.6939,-3.7305,-3.7305,-3.8025,-3.8538,-3.8812,-3.9516,-4.0084,-2.8162,-2.8286,-2.8411,-2.8411,-2.815,-2.7873,-2.7873,0.0,0.0,0.0,-2.6611,-2.6402,-2.6402,0.0,0.0,-2.8288,0.0,0.0,0.0,0.0,0.0,0.0,0.0,0.0,0.0,0.0,0.0,-2.9602,-2.9602,-2.9602,-2.9602,-2.9602,-2.9602,-2.9602,-2.9602,-2.9602,-2.9602,-2.9651,-2.9713,-2.9713,-3.0021,-3.0127,-2.9917,-2.8929,-2.8354,-2.8011,-2.6746,-2.6353,-2.6616,-2.6759,-2.7004,-2.7348,-2.753,-2.8052,-2.8709,-2.8709,-2.9227,-2.9896,-2.9896,-2.9896,-2.9896,-2.9896,-2.9896,-2.9896,-2.9896,-2.9896,-2.9896,-2.9896,-3.0156,-3.0587,-3.1299,-3.2028,-3.274,-3.3437,-3.3874,-3.4101,-3.4101,-3.4275,-3.4349,-3.4151,-3.4275,-3.4349,-3.4126,-3.4101,-3.4101,-3.4101,-3.4101,-3.4101,-3.4101,-3.4101,-3.4101,-3.4101,-3.43,-3.4497,-3.4691,-3.5195,-3.5521,-3.5521,-3.6006,-3.6237,-3.6067,-3.6199,-3.649,-3.6904,-3.7305,-3.7702,-3.8082,-3.8936,-3.9534,-3.9808,-4.0539,-4.1129,-2.7788,-2.7951,-2.8084,-2.7989,-2.758,-2.718,-2.718,-2.6657,0.0,0.0,-2.6041,-2.5949,-2.5949,0.0,-2.6503,0.0,-2.8141,0.0,0.0,0.0,0.0,0.0,0.0,0.0,0.0,0.0,0.0,-2.9602,-2.9602,-2.9602,-2.9602,-2.9602,-2.9602,-2.9602,-2.9602,-2.9602,-2.9602,-2.9699,-2.9699,-2.9665,-3.0144,-3.0088,-2.9582,-2.8857,-2.8325,-2.7883,-2.677,-2.6602,-2.717,-2.7272,-2.765,-2.8152,-2.8264,-2.8638,-2.9097,-2.9097,-2.9448,-2.9896,-2.9896,-2.9896,-2.9896,-2.9896,-2.9896,-2.9896,-2.9896,-2.9896,-2.9913,-3.0075,-3.049,-3.1114,-3.2012,-3.2659,-3.3259,-3.3939,-3.4101,-3.4101,-3.4101,-3.4423,-3.4594,-3.43,-3.4472,-3.4594,-3.4275,-3.4151,-3.4101,-3.4101,-3.4101,-3.4126,-3.4226,-3.4226,-3.425,-3.4333,-3.4546,-3.4763,-3.493,-3.547,-3.5832,-3.5915,-3.6135,-3.6387,-3.6542,-3.6559,-3.6922,-3.7719,-3.7892,-3.8294,-3.8926,-3.9867,-4.0495,-4.0813,-4.1389,-4.1892,-2.7111,-2.7113,-2.7045,-2.6677,-2.6556,-2.6495,-2.6495,0.0,0.0,-2.5389,-2.4933,-2.4502,-2.4502,0.0,0.0,0.0,0.0,-2.7893,0.0,0.0,0.0,0.0,0.0,0.0,0.0,0.0,-2.9602,-2.9602,-2.9602,-2.9602,-2.9602,-2.9602,-2.9602,-2.9602,-2.9602,-2.9602,-2.9602,-2.9602,-2.9682,-2.9777,-3.0312,-3.0009,-2.8974,-2.8771,-2.8359,-2.7775,-2.7103,-2.7272,-2.7981,-2.8006,-2.8119,-2.8264,-2.8288,-2.8638,-2.9097,-2.9097,-2.9448,-2.9896,-2.9896,-2.9896,-2.9896,-2.9896,-2.9896,-2.9896,-2.9896,-2.9896,-3.0026,-3.0652,-3.0856,-3.1228,-3.2627,-3.3032,-3.3259,-3.3939,-3.4101,-3.4101,-3.4101,-3.4423,-3.4691,-3.4643,-3.4667,-3.4691,-3.4643,-3.4349,-3.4101,-3.4101,-3.4101,-3.4226,-3.4594,-3.4643,-3.4747,-3.5062,-3.4842,-3.4961,-3.5633,-3.5761,-3.5937,-3.6237,-3.628,-3.6628,-3.7374,-3.7392,-3.7754,-3.8474,-3.9146,-3.964,-3.9951,-4.0739,-4.1331,-4.1785,-4.1835,-4.2019,-2.6788,-2.6835,-2.6885,-2.6492,-2.6072,-2.5749,-2.5749,0.0,0.0,-2.4697,-2.4502,-2.4302,-2.4302,-2.4533,-2.4841,-2.5219,-2.6305,0.0,-2.8308,0.0,0.0,0.0,0.0,0.0,0.0,0.0,-2.9602,-2.9602,-2.9602,-2.9602,-2.9602,-2.9602,-2.9602,-2.9602,-2.9602,-2.9602,-2.9602,-2.9682,-2.9713,-2.9682,-3.0387,-3.0025,-2.8768,-2.8728,-2.8371,-2.7769,-2.7153,-2.755,-2.8567,-2.8567,-2.8865,-2.925,-2.909,-2.925,-2.956,-2.9403,-2.9576,-2.9896,-2.9896,-2.9896,-2.9896,-2.9896,-2.9896,-2.9896,-2.9896,-2.9896,-3.0042,-3.071,-3.1212,-3.1817,-3.2821,-3.3388,-3.3761,-3.4036,-3.4275,-3.4448,-3.4448,-3.4937,-3.5287,-3.5055,-3.5195,-3.5218,-3.4787,-3.457,-3.4374,-3.4126,-3.43,-3.4521,-3.4667,-3.4866,-3.5131,-3.5521,-3.543,-3.5476,-3.5783,-3.5963,-3.6152,-3.6301,-3.6749,-3.7185,-3.7495,-3.7944,-3.8491,-3.925,-3.972,-4.0214,-4.0756,-4.1345,-4.1723,-4.1895,-4.2061,-4.2205,-2.6382,-2.6379,-2.6425,-2.5917,-2.5395,-2.4989,0.0,0.0,0.0,-2.4302,-2.4302,-2.4302,-2.4302,-2.4302,-2.4456,-2.4927,-2.5887,-2.6928,-2.7966,0.0,0.0,0.0,0.0,-2.982,0.0,-2.982,-2.982,-2.982,-2.982,-2.9758,-2.9602,-2.9727,-2.9727,-2.9602,-2.9602,-2.9602,-2.9602,-2.9682,-2.9761,-2.9806,-3.0319,-2.9899,-2.8632,-2.8708,-2.8393,-2.7794,-2.7505,-2.807,-2.9198,-2.9198,-2.947,-2.988,-2.9687,-2.9732,-2.9896,-2.9704,-2.9748,-2.9896,-2.9896,-2.9896,-2.9896,-2.9896,-2.9896,-2.9896,-2.9896,-3.0042,-3.035,-3.1017,-3.1985,-3.2932,-3.3557,-3.3999,-3.43,-3.4407,-3.457,-3.4715,-3.4835,-3.5339,-3.5717,-3.543,-3.5611,-3.565,-3.5125,-3.4913,-3.4747,-3.448,-3.4675,-3.489,-3.5008,-3.5224,-3.5521,-3.5915,-3.5958,-3.5958,-3.5958,-3.6156,-3.6404,-3.6628,-3.7202,-3.7702,-3.8112,-3.8646,-3.9267,-4.0026,-4.0296,-4.0669,-4.1209,-4.1679,-4.1895,-4.1913,-4.2184,-4.2308,-2.576,-2.5519,-2.531,-2.4508,-2.4317,-2.4317,0.0,0.0,0.0,-2.4302,-2.4302,-2.4302,-2.4302,-2.4302,-2.4302,-2.4317,-2.5435,-2.6398,-2.6672,-2.8452,0.0,0.0,0.0,-3.0282,-3.0282,-3.0282,-3.0282,-3.0282,-3.0282,-3.0083,-2.9634,-3.0052,-3.0083,-2.9602,-2.9602,-2.9602,-2.9602,-2.9602,-2.9837,-3.0282,-3.009,-2.9476,-2.8525,-2.8717,-2.847,-2.7913,-2.8304,-2.902,-2.988,-2.988,-2.988,-2.9896,-2.9896,-2.9896,-2.9896,-2.9896,-2.9896,-2.9896,-2.9896,-2.9896,-2.9896,-2.9896,-2.9896,-2.9896,-2.9896,-3.036,-3.105,-3.1785,-3.3288,-3.4747,-3.5108,-3.4937,-3.4787,-3.5108,-3.4937,-3.4787,-3.5108,-3.5521,-3.5805,-3.5788,-3.5805,-3.5805,-3.5805,-3.5453,-3.5201,-3.5201,-3.5201,-3.5339,-3.5739,-3.5788,-3.592,-3.6259,-3.6301,-3.6301,-3.6301,-3.6301,-3.6628,-3.7443,-3.7512,-3.8146,-3.9612,-3.9681,-4.006,-4.0877,-4.1094,-4.1192,-4.1209,-4.1679,-4.1895,-4.1913,-4.2184,-4.2308,-2.6208,-2.5779,-2.537,-2.4843,-2.4513,-2.4302,-2.4302,0.0,-2.4302,-2.4302,-2.4302,-2.4302,-2.4302,-2.4302,-2.4302,-2.4302,-2.5185,-2.6198,0.0,0.0,0.0,0.0,-3.0572,-3.0643,0.0,0.0,-3.0282,-3.0282,-3.0282,-3.0372,-3.0553,-3.0403,-3.0083,-2.9602,-2.9898,-2.9929,-2.9602,-3.0235,-3.0463,-3.0312,-3.0423,-2.9928,-2.8917,-2.8989,-2.8742,-2.8343,-2.863,-2.909,-2.9643,-2.9814,-2.9792,-2.9621,-2.9621,-2.9748,-2.9896,-2.9687,-2.9748,-2.9896,-2.9896,-2.9896,-2.9896,-2.9896,-2.9896,-3.0043,-3.0778,-3.1139,-3.1627,-3.3094,-3.4236,-3.5078,-3.5178,-3.5108,-3.5078,-3.5178,-3.5316,-3.5476,-3.5588,-3.5876,-3.6135,-3.6135,-3.6135,-3.6067,-3.5849,-3.5677,-3.5521,-3.5247,-3.543,-3.5655,-3.5766,-3.6002,-3.6195,-3.6301,-3.6784,-3.7133,-3.7133,-3.7133,-3.7443,-3.8203,-3.8715,-3.9198,-3.9681,-4.0239,-4.0706,-4.1094,-4.134,-4.1542,-4.1679,-4.2019,-4.2166,-4.2184,-4.2267,-4.2308,-2.6264,-2.587,-2.5408,-2.5001,-2.4599,-2.4302,0.0,0.0,-2.4302,-2.4302,-2.4302,-2.4302,-2.4302,-2.4302,-2.4302,-2.4302,-2.5238,-2.6306,0.0,0.0,0.0,-3.096,0.0,0.0,0.0,-3.0822,-3.0822,-3.0822,-3.0822,-3.0881,-3.0999,-3.0881,-3.0613,-3.0144,-3.0235,-3.0251,-3.0144,-3.0703,-3.094,-3.0807,-3.0498,-3.0048,-2.9505,-2.9103,-2.8857,-2.8669,-2.8897,-2.9175,0.0,-2.9687,-2.9643,-2.9515,-2.9621,-2.9732,-2.9896,-2.971,-2.977,-2.9896,-2.9896,-2.9896,-2.9896,-2.9896,-3.0168,-3.0729,-3.1936,-3.2395,-3.284,-3.4359,-3.5099,-3.5453,-3.5571,-3.5521,-3.5453,-3.5571,-3.57,-3.5832,-3.5958,-3.6152,-3.6301,-3.6301,-3.6301,-3.6237,-3.6006,-3.6002,-3.5898,-3.5655,-3.5832,-3.6002,-3.6002,-3.6174,-3.6422,-3.6715,-3.7202,-3.7737,-3.8267,-3.8082,-3.8237,-3.8957,-3.9439,-3.9836,-4.0129,-4.0636,-4.0995,-4.1209,-4.1453,-4.167,-4.1784,-4.2019,-4.2205,-4.2308,-4.2308,-4.2308,0.0,-2.5772,-2.5446,-2.504,-2.4639,-2.4343,-2.4302,-2.4302,0.0,-2.4302,-2.4302,-2.4302,-2.4302,-2.4302,-2.4317,-2.4364,-2.5503,-2.6641,0.0,-2.9187,0.0,0.0,-3.1739,0.0,-3.1653,-3.1682,-3.171,-3.171,-3.171,-3.1523,-3.1102,-3.1466,-3.1523,-3.1102,-3.0643,-3.0583,-3.0999,-3.1058,-3.1262,-3.162,-3.034,-2.9894,-3.016,-2.9171,-2.8803,-2.8904,-2.9075,-2.9259,-2.947,-2.9493,-2.9493,-2.9531,-2.9792,-2.9896,-2.9896,-2.9896,-2.9896,-2.9896,-2.9896,-2.9902,-2.994,-3.0033,-3.0784,-3.1888,-3.3279,-3.3947,-3.4465,-3.554,-3.5849,-3.5915,-3.6216,-3.6067,-3.5898,-3.6237,-3.6067,-3.592,-3.6237,-3.6301,-3.6301,-3.6301,-3.6301,-3.6301,-3.6301,-3.6301,-3.6301,-3.6301,-3.6301,-3.6301,-3.6301,-3.6353,-3.6663,-3.7426,-3.7599,-3.8198,-3.9577,-3.906,-3.8974,-3.9733,-3.9784,-4.0112,-4.0877,-4.0912,-4.0995,-4.1232,-4.1498,-4.1648,-4.1648,-4.1849,-4.2061,-4.2308,-4.2308,-4.2308,-2.4837,0.0,-2.5854,-2.5465,-2.5059,-2.4679,0.0,-2.4302,-2.4302,-2.4302,-2.4302,-2.4302,-2.4302,-2.4302,-2.4471,-2.4973,-2.5826,-2.6795,-2.7996,0.0,0.0,-3.1662,-3.2007,-3.1936,-3.1234,-3.1495,-3.171,-3.171,-3.171,-3.1809,-3.2048,-3.1838,-3.1809,-3.2048,-3.161,-3.1263,-3.0999,-3.1709,-3.1693,-3.0943,-3.0453,-3.0125,-2.9878,-2.9273,-2.9029,-2.9075,-2.9289,-2.9328,-2.9213,-2.9418,-2.9493,-2.9531,-2.9792,-2.9896,-2.9896,-2.9896,-2.9896,-2.9896,-2.9896,-3.0038,-3.0345,-3.1219,-3.224,-3.3275,-3.4168,-3.4508,-3.4797,-3.5887,-3.6195,-3.6195,-3.628,-3.6237,-3.6195,-3.628,-3.6237,-3.6216,-3.628,-3.6301,-3.6301,-3.6301,-3.6301,-3.6301,-3.6301,-3.6301,-3.6301,-3.6301,-3.6301,-3.6301,-3.6301,-3.6835,-3.7305,-3.7478,-3.8491,-3.9319,-3.9664,-3.9526,-3.9767,-4.0584,-4.0636,-4.0705,-4.0894,-4.0912,-4.1082,-4.1498,-4.1913,-4.2142,-4.2142,-4.2166,-4.2246,-4.2308,-4.2308,-4.2308,-2.4,-2.4526,-2.5073,-2.5009,-2.4697,-2.4383,-2.4307,-2.4302,-2.4302,-2.4302,-2.4302,-2.4302,-2.4302,-2.4564,-2.4887,0.0,-2.618,0.0,0.0,0.0,-3.19,-3.2018,-3.2259,-3.2188,0.0,-3.1866,-3.2007,-3.2007,-3.2007,-3.2148,-3.2398,-3.2148,-3.2148,-3.2398,-3.2148,-3.1894,-3.1652,-3.2132,-3.1949,-3.1004,-3.072,-3.0348,-2.9932,-2.9484,-2.935,-2.948,-2.9486,-2.9403,-2.9305,-2.9425,-2.9493,-2.9531,-2.9792,-2.9896,-2.9896,-2.9896,-2.9896,-2.9924,-3.0038,-3.0284,-3.0717,-3.1819,-3.2825,-3.3775,-3.4651,-3.5176,-3.5557,-3.6138,-3.6301,-3.6301,-3.6301,-3.6301,-3.6301,-3.6301,-3.6301,-3.6301,-3.6301,-3.6301,-3.6301,-3.6301,-3.6301,-3.6301,-3.6301,-3.6301,-3.6301,-3.6301,-3.6301,-3.6422,-3.6801,-3.7215,-3.7771,-3.8444,-3.9215,-3.9836,-4.0215,-4.0233,-4.0446,-4.0877,-4.0912,-4.0912,-4.0912,-4.0912,-4.1129,-4.1582,-4.1934,-4.2184,-4.2308,-4.2308,-4.2308,-4.2308,-4.2308,-4.2308,-2.3224,-2.3473,-2.3836,-2.4291,-2.4138,-2.3966,-2.423,-2.4302,-2.4302,-2.4302,-2.4302,-2.4333,-2.442,-2.4933,0.0,0.0,0.0,0.0,-3.0294,-3.1628,-3.2355,-3.2315,-3.237,0.0,-3.2315,-3.237,-3.2398,-3.2398,-3.2398,-3.2398,-3.2398,-3.2398,-3.2398,-3.2398,-3.2398,-3.2398,-3.2398,-3.229,-3.1932,-3.1308,-3.0861,-3.0409,-2.999,-2.9605,-2.9598,-2.9814,-2.9554,-2.9448,-2.9493,-2.9493,-2.9515,-2.9576,-2.9814,-2.9896,-2.9902,-2.9946,-2.9968,-2.9995,-3.033,-3.0708,-3.1231,-3.2295,-3.3199,-3.4028,-3.5067,-3.5801,-3.6301,-3.6301,-3.6301,-3.6301,-3.6301,-3.6301,-3.6301,-3.6301,-3.6301,-3.6301,-3.6301,-3.6301,-3.6301,-3.6301,-3.6301,-3.6301,-3.6301,-3.6301,-3.6335,-3.6456,-3.6473,-3.6766,-3.7581,-3.7771,-3.8323,-3.956,-3.9802,-4.0146,-4.0843,-4.0912,-4.0912,-4.0912,-4.0912,-4.0912,-4.0912,-4.0965,-4.1198,-4.1582,-4.1849,-4.2082,-4.2308,-4.2308,-4.2308,-4.2308,-4.2308,-4.2308,-2.2465,-2.2707,-2.321,-2.416,-2.4358,-2.4311,-2.4296,-2.4302,-2.4302,-2.4302,-2.4302,-2.4466,-2.5035,-2.5219,-2.5681,0.0,0.0,-3.0258,0.0,0.0,-3.2259,-3.1838,0.0,-3.2259,-3.1838,-3.2176,-3.2398,-3.2398,-3.2398,-3.2398,-3.2398,-3.2398,-3.2398,-3.2398,-3.2398,-3.2398,-3.2398,-3.1828,-3.133,-3.0881,-3.0251,-2.9831,-2.9585,-2.9307,-2.9305,-2.9554,-2.9282,-2.9305,-2.9493,-2.9493,-2.9643,-2.9836,-2.988,-2.9896,-2.9924,-3.0156,-3.0246,-3.033,-3.0945,-3.1588,-3.2349,-3.347,-3.4344,-3.5084,-3.5883,-3.6215,-3.6301,-3.6301,-3.6301,-3.6301,-3.6301,-3.6301,-3.6301,-3.6301,-3.6301,-3.6301,-3.6301,-3.6301,-3.6301,-3.6301,-3.6301,-3.6301,-3.6301,-3.6301,-3.6525,-3.7198,-3.7323,-3.7599,-3.8318,-3.8974,-3.9439,-3.9681,-4.0325,-4.0774,-4.0894,-4.0912,-4.0912,-4.0912,-4.0912,-4.0912,-4.0912,-4.129,-4.1538,-4.1604,-4.2019,-4.2267,-4.2308,-4.2308,-4.2308,-4.2308,-4.2308,-4.2308,-2.2178,-2.2704,-2.3217,-2.3694,-2.3941,-2.4122,-2.4271,-2.4302,-2.4302,-2.4302,-2.4302,-2.4502,-2.5173,0.0,-2.6457,-2.8211,0.0,-3.0617,-3.1316,-3.1967,-3.2315,0.0,0.0,-3.2315,-3.2092,-3.2287,-3.2398,-3.2398,-3.2398,-3.2398,-3.2398,-3.2398,-3.2398,-3.2398,-3.2398,-3.2398,-3.2398,-3.1526,-3.0975,-3.0791,-3.0212,-2.9714,-2.9282,-2.9464,-2.9509,-2.9493,-2.9509,-2.9598,-2.9726,-2.9726,-2.9792,-2.9896,-2.9896,-2.9995,-3.0156,-3.0456,-3.0686,-3.0935,-3.1639,-3.223,-3.2882,-3.4243,-3.4921,-3.5335,-3.6077,-3.6301,-3.6301,-3.6301,-3.6301,-3.6301,-3.6301,-3.6301,-3.6301,-3.6301,-3.6301,-3.6301,-3.6301,-3.6301,-3.6301,-3.6301,-3.6301,-3.6301,-3.6301,-3.6663,-3.706,-3.7443,-3.7858,-3.8353,-3.9094,-3.9491,-3.9871,-4.0284,-4.0687,-4.0912,-4.0912,-4.0912,-4.0912,-4.0912,-4.0912,-4.0942,-4.1065,-4.1272,-4.1498,-4.1762,-4.1977,-4.2163,-4.2308,-4.2308,-4.2308,-4.2308,-4.2308,-4.2308,-2.2361,-2.303,-2.3524,-2.3548,-2.3756,-2.3989,-2.4251,-2.4302,-2.4327,-2.4502,-2.4527,-2.4773,0.0,-2.6518,0.0,-2.9581,-3.0294,-3.0874,-3.1536,-3.2074,-3.2398,-3.2398,-3.2398,-3.2398,-3.2398,-3.2398,-3.2398,-3.2398,-3.2398,-3.2398,-3.2398,-3.2398,-3.2398,-3.2398,-3.2398,-3.2425,-3.2523,-3.1374,-3.0816,-3.0876,-3.0243,-2.9728,-2.9298,-2.9659,-2.9732,-2.9598,-2.9732,-2.9836,-2.9896,-2.9896,-2.9896,-2.9918,-2.9968,-3.0215,-3.058,-3.0808,-3.1241,-3.1769,-3.2315,-3.2916,-3.3628,-3.4818,-3.5318,-3.5559,-3.6128,-3.6301,-3.6301,-3.6301,-3.6301,-3.6301,-3.6301,-3.6301,-3.6301,-3.6301,-3.6301,-3.6301,-3.6301,-3.6301,-3.6301,-3.6301,-3.6301,-3.6353,-3.6542,-3.7077,-3.7616,-3.7961,-3.8513,-3.9129,-3.9871,-3.9974,-4.0215,-4.0843,-4.0912,-4.0935,-4.0965,-4.0965,-4.0989,-4.1059,-4.1059,-4.1134,-4.1277,-4.1346,-4.1529,-4.1895,-4.1977,-4.2082,-4.2308,-4.2308,-4.2308,-4.2308,-4.2308,-4.2308,-2.3122,-2.3589,-2.3935,-2.4243,-2.4344,-2.4348,-2.4296,-2.4302,-2.4487,-2.5096,-2.5219,-2.5635,0.0,-2.8319,-2.9643,-3.1012,-3.1316,-3.1551,-3.2228,0.0,-3.2398,-3.2398,-3.2398,-3.2398,-3.2398,-3.2398,-3.2398,-3.2398,-3.2398,-3.2398,-3.2398,-3.2398,-3.2398,-3.2398,-3.2398,-3.2551,-3.287,-3.1493,-3.0901,-3.107,-3.0051,-2.9647,-2.9852,-2.9621,-2.9643,-2.9858,-2.9621,-2.9665,-2.9896,-2.9896,-2.9896,-2.9924,-3.0177,-3.0662,-3.1237,-3.1257,-3.1912,-3.2779,-3.2848,-3.3815,-3.5042,-3.5145,-3.5663,-3.6232,-3.6284,-3.6301,-3.6301,-3.6301,-3.6301,-3.6301,-3.6301,-3.6301,-3.6301,-3.6301,-3.6301,-3.6301,-3.6301,-3.6301,-3.6301,-3.6301,-3.6301,-3.6542,-3.7288,-3.7461,-3.7961,-3.9336,-3.9577,-3.9905,-4.0722,-4.0825,-4.0843,-4.0894,-4.0912,-4.0989,-4.1163,-4.1186,-4.1277,-4.1538,-4.156,-4.156,-4.1582,-4.1762,-4.187,-4.1895,-4.2145,-4.2287,-4.2308,-4.2308,-4.2308,-4.2308,-4.2308,-4.2308,-2.2936,-2.364,-2.3967,-2.4324,-2.4551,-2.4645,-2.4364,-2.4302,-2.4502,-2.5158,-2.5296,0.0,0.0,0.0,-2.9843,-3.1166,-3.1409,-3.1613,-3.2305,-3.2398,-3.2398,-3.2398,-3.2398,-3.2398,-3.2398,-3.2398,-3.2398,-3.2398,-3.2398,-3.2398,-3.2398,-3.2398,-3.2398,-3.2398,-3.2594,-3.2773,-3.2897,-3.1663,-3.1083,-3.1151,-2.9856,-2.9305,-2.9396,-2.9464,-2.9576,-2.9643,-2.971,-2.9814,-2.9896,-2.9896,-2.9896,-2.9946,-3.0414,-3.0905,-3.1366,-3.2036,-3.255,-3.3041,-3.399,-3.4714,-3.5266,-3.5732,-3.6077,-3.6301,-3.6301,-3.6301,-3.6301,-3.6301,-3.6301,-3.6301,-3.6301,-3.6301,-3.6301,-3.6301,-3.6301,-3.6301,-3.6301,-3.6301,-3.6301,-3.6301,-3.6697,-3.715,-3.7461,-3.8272,-3.906,-3.9612,-4.0233,-4.0712,-4.0884,-4.1152,-4.1272,-4.1094,-4.1226,-4.138,-4.1431,-4.1547,-4.1679,-4.1784,-4.167,-4.167,-4.1784,-4.1852,-4.1977,-4.2163,-4.2246,-4.2308,-4.2308,-4.2308,-4.2308,-4.2308,-4.2308,-4.2308,-2.299,-2.3824,-2.4166,-2.4491,-2.4824,-2.4962,-2.4426,-2.4471,-2.4825,-2.5503,-2.6142,-2.708,-2.8735,0.0,0.0,0.0,-3.1732,-3.1859,-3.2336,-3.2398,-3.2398,-3.2398,-3.2398,-3.2398,-3.2398,-3.2398,-3.2398,-3.2398,-3.2398,-3.2398,-3.2398,-3.2398,-3.2398,-3.2398,-3.2746,-3.2924,-3.3032,-3.1909,-3.1281,-3.1176,-2.9761,-2.9144,-2.9236,-2.9418,-2.9554,-2.9643,-2.9814,-2.9896,-2.9918,-2.9995,-3.0146,-3.0384,-3.0784,-3.1314,-3.1895,-3.262,-3.3214,-3.3783,-3.4818,-3.5335,-3.5628,-3.6146,-3.6301,-3.6301,-3.6301,-3.6301,-3.6301,-3.6301,-3.6301,-3.6322,-3.6402,-3.6364,-3.6301,-3.6301,-3.6364,-3.6423,-3.6423,-3.6485,-3.6579,-3.6821,-3.7307,-3.7849,-3.8352,-3.9289,-4.0013,-4.0255,-4.0878,-4.1272,-4.1129,-4.1403,-4.152,-4.1363,-4.1475,-4.1626,-4.1675,-4.1827,-4.1934,-4.2019,-4.1892,-4.187,-4.2019,-4.2019,-4.2103,-4.2287,-4.2308,-4.2308,-4.2308,-4.2308,-4.2308,-4.2308,-4.2308,-4.2308,-2.3401,-2.4192,-2.456,-2.4843,-2.5198,-2.5275,-2.4487,-2.482,-2.5518,-2.6257,-2.7996,-2.9587,-3.0279,-3.0951,0.0,-3.2275,-3.2398,-3.2398,-3.2398,-3.2398,-3.2398,-3.2398,-3.2398,-3.2398,-3.2398,-3.2398,-3.2398,-3.2398,-3.2398,-3.2398,-3.2398,-3.2398,-3.2398,-3.2398,-3.2746,-3.3032,-3.3309,-3.216,-3.1469,-3.1169,-2.9785,-2.9236,-2.9509,-2.9509,-2.9643,-2.9902,-2.9902,-2.9918,-2.9924,-3.0199,-3.0703,-3.1312,-3.1312,-3.1965,-3.2921,-3.2921,-3.3886,-3.5197,-3.5197,-3.568,-3.6301,-3.6301,-3.6301,-3.6301,-3.6301,-3.6301,-3.6301,-3.6301,-3.6301,-3.6364,-3.6623,-3.6502,-3.6301,-3.6301,-3.6502,-3.6702,-3.6702,-3.6866,-3.7235,-3.797,-3.8111,-3.8638,-4.0239,-4.0502,-4.0766,-4.1499,-4.1604,-4.1604,-4.1604,-4.1604,-4.1604,-4.1604,-4.1604,-4.1692,-4.1892,-4.1895,-4.2019,-4.2287,-4.2308,-4.2308,-4.2308,-4.2308,-4.2308,-4.2308,-4.2308,-4.2308,-4.2308,-4.2308,-4.2308,-4.2308,-4.2308,-4.2308,-2.3594,-2.3999,-2.3929,-2.5035,-2.4981,-2.4719,-2.4945,-2.5158,-2.5635,-2.6842,-2.8334,-2.9587,-3.0279,-3.0951,0.0,-3.2275,-3.2398,-3.2398,-3.2398,-3.2398,-3.2398,-3.2398,-3.2398,-3.2398,-3.2398,-3.2398,-3.2398,-3.2398,-3.2398,-3.2398,-3.2398,-3.2398,-3.2398,-3.2398,-3.292,-3.3229,-3.3309,-3.2485,-3.1797,-3.1184,-3.0097,-2.9446,-2.9213,-2.9213,-2.9582,-3.0177,-3.0177,-3.0326,-3.0539,-3.0621,-3.1211,-3.208,-3.208,-3.2772,-3.38,-3.4318,-3.48,-3.5266,-3.5783,-3.6111,-3.6301,-3.6301,-3.6423,-3.6582,-3.6582,-3.6582,-3.6582,-3.6582,-3.6582,-3.6561,-3.6444,-3.6609,-3.6791,-3.6791,-3.6745,-3.6742,-3.6869,-3.7369,-3.7848,-3.8058,-3.9006,-3.994,-4.0414,-4.0941,-4.1341,-4.1569,-4.1719,-4.187,-4.2079,-4.1934,-4.1892,-4.2079,-4.2082,-4.2121,-4.2184,-4.2166,-4.2225,-4.2287,-4.2308,-4.2308,-4.2308,-4.2308,-4.2308,-4.2308,-4.2308,-4.2308,-4.2308,-4.2308,-4.2308,-4.2308,-4.2308,-4.2308,-2.3498,-2.3918,-2.3808,-2.4979,-2.4902,-2.4741,-2.5561,-2.5949,-2.6457,0.0,-2.8873,-2.991,-3.0325,-3.1166,0.0,-3.2321,-3.2398,-3.2398,-3.2398,-3.2398,-3.2398,-3.2398,-3.2398,-3.2398,-3.2398,-3.2398,-3.2398,-3.2398,-3.2398,-3.2398,-3.2398,-3.2523,-3.2551,-3.2398,-3.2985,-3.3256,-3.3123,-3.2665,-3.2012,-3.1176,-3.0463,-2.9887,-2.947,-2.947,-2.9788,-3.0293,-3.0439,-3.0703,-3.1021,-3.1308,-3.1913,-3.2633,-3.294,-3.3659,-3.4576,-3.5025,-3.5387,-3.5697,-3.6146,-3.6301,-3.6301,-3.6301,-3.6482,-3.6702,-3.6702,-3.6763,-3.6826,-3.6826,-3.6826,-3.6788,-3.6731,-3.6851,-3.6987,-3.6888,-3.6987,-3.7175,-3.7512,-3.8091,-3.8685,-3.9186,-4.0067,-4.0827,-4.1167,-4.157,-4.1888,-4.1888,-4.1977,-4.2103,-4.2287,-4.2145,-4.2124,-4.2287,-4.2308,-4.2308,-4.2308,-4.2308,-4.2308,-4.2308,-4.2308,-4.2308,-4.2308,-4.2308,-4.2308,-4.2308,-4.2308,-4.2308,-4.2308,-4.2308,-4.2308,-4.2308,-4.2308,-4.2308,-2.3084,-2.3802,-2.4014,-2.4687,-2.4902,-2.5179,-2.6183,-2.6903,-2.7611,-2.835,0.0,-3.0417,-3.0479,-3.1551,-3.2398,-3.2398,-3.2398,-3.2398,-3.2398,-3.2398,-3.2398,-3.2398,-3.2398,-3.2398,-3.2398,-3.2398,-3.2398,-3.2398,-3.2398,-3.2425,-3.2425,-3.2718,-3.2746,-3.2453,-3.2973,-3.315,-3.2897,-3.2713,-3.2208,-3.1336,-3.0975,-3.0596,-3.025,-3.0076,-3.014,-3.0398,-3.0831,-3.1165,-3.1487,-3.2256,-3.2772,-3.3179,-3.3904,-3.4645,-3.5283,-3.5283,-3.5714,-3.6301,-3.6301,-3.6301,-3.6301,-3.6322,-3.6523,-3.6742,-3.6763,-3.6869,-3.7027,-3.7027,-3.7027,-3.7066,-3.722,-3.7182,-3.7046,-3.6846,-3.726,-3.7864,-3.8441,-3.8956,-3.9661,-4.0883,-4.1163,-4.1431,-4.2162,-4.2308,-4.2308,-4.2308,-4.2308,-4.2308,-4.2308,-4.2308,-4.2308,-4.2308,-4.2308,-4.2308,-4.2308,-4.2308,-4.2308,-4.2308,-4.2308,-4.2308,-4.2308,-4.2308,-4.2308,-4.2308,-4.2308,-4.2308,-4.2308,-4.2308,-4.2308,-4.2308,-4.2308,-4.2308,-2.2161,-2.3026,-2.3592,-2.4321,-2.4859,-2.5425,-2.6217,-2.6903,-2.7734,-2.895,-2.9833,-3.0555,-3.1089,-3.1844,-3.2398,-3.2398,-3.2398,-3.2398,-3.2398,-3.2398,-3.2398,-3.2398,-3.2398,-3.2398,-3.2398,-3.2398,-3.2398,-3.2398,-3.2398,-3.2523,-3.2773,-3.2621,-3.2594,-3.2773,-3.2924,-3.2951,-3.2897,-3.2864,-3.2708,-3.244,-3.2369,-3.2259,-3.2078,-3.0647,-3.0393,-3.1137,-3.2044,-3.2492,-3.2618,-3.3409,-3.4123,-3.4714,-3.4887,-3.5404,-3.6059,-3.6059,-3.6163,-3.6301,-3.6301,-3.6301,-3.6322,-3.6544,-3.6748,-3.6968,-3.7105,-3.7201,-3.7239,-3.7239,-3.7239,-3.7201,-3.7105,-3.7411,-3.7739,-3.7541,-3.7595,-3.7954,-3.8852,-3.959,-4.0273,-4.0973,-4.1609,-4.2091,-4.2272,-4.2308,-4.2308,-4.2308,-4.2308,-4.2308,-4.2308,-4.2308,-4.2308,-4.2308,-4.2308,-4.2308,-4.2308,-4.2308,-4.2308,-4.2308,-4.2308,-4.2308,-4.2308,-4.2308,-4.2308,-4.2308,-4.2308,-4.2308,-4.2308,-4.2308,-4.2308,-4.2308,-4.2308,-4.2308,-2.1874,-2.2935,-2.3762,-2.4454,-2.4799,-2.5209,-2.6171,-2.6747,-2.7496,-2.9073,-2.9925,-3.0494,-3.0859,-3.1736,-3.2398,-3.2398,-3.2398,-3.2398,-3.2398,-3.2398,-3.2398,-3.2398,-3.2398,-3.2398,-3.2398,-3.2398,-3.2398,-3.2398,-3.2398,-3.248,-3.2648,-3.2648,-3.2648,-3.2648,-3.2816,-3.2816,-3.2648,-3.3118,-3.3157,-3.2812,-3.3272,-3.3342,-3.3114,-3.2152,-3.2062,-3.2674,-3.3242,-3.3473,-3.3524,-3.43,-3.4835,-3.5232,-3.5576,-3.5956,-3.6301,-3.6301,-3.6301,-3.6301,-3.6301,-3.6364,-3.6523,-3.6643,-3.6906,-3.7163,-3.7259,-3.7372,-3.7484,-3.7595,-3.7631,-3.7631,-3.765,-3.7931,-3.8294,-3.869,-3.8798,-3.9017,-3.9801,-4.0563,-4.1216,-4.1761,-4.2105,-4.2308,-4.2308,-4.2308,-4.2308,-4.2308,-4.2308,-4.2308,-4.2308,-4.2308,-4.2308,-4.2308,-4.2308,-4.2308,-4.2308,-4.2308,-4.2308,-4.2308,-4.2308,-4.2308,-4.2308,-4.2308,-4.2308,-4.2308,-4.2308,-4.2308,-4.2308,-4.2308,-4.2308,-4.2308,-4.2308,-4.2246,-2.1519,-2.2872,-2.4048,-2.4646,-2.474,-2.4973,-2.6122,-2.6554,-2.7183,-2.8819,-2.9807,-3.0432,-3.054,-3.1582,-3.2398,-3.2398,-3.2398,-3.2398,-3.2398,-3.2398,-3.2398,-3.2398,-3.2398,-3.2398,-3.2398,-3.2398,-3.2398,-3.2398,-3.2398,-3.2425,-3.248,-3.2676,-3.2718,-3.2496,-3.2746,-3.2784,-3.2559,-3.3397,-3.3604,-3.3267,-3.4128,-3.4397,-3.4072,-3.4072,-3.4079,-3.4113,-3.4234,-3.4303,-3.4355,-3.5076,-3.5387,-3.5439,-3.6059,-3.6301,-3.6301,-3.6301,-3.6301,-3.6301,-3.6343,-3.6523,-3.6702,-3.6766,-3.7025,-3.7316,-3.7391,-3.7539,-3.7721,-3.7984,-3.8069,-3.8119,-3.8334,-3.854,-3.891,-3.9792,-4.0253,-4.0593,-4.0996,-4.157,-4.2122,-4.2606,-4.2474,-4.2308,-4.2308,-4.2308,-4.2308,-4.2308,-4.2308,-4.2308,-4.2308,-4.2308,-4.2308,-4.2308,-4.2308,-4.2308,-4.2308,-4.2308,-4.2308,-4.2308,-4.2308,-4.2308,-4.2308,-4.2308,-4.2308,-4.2308,-4.2308,-4.2308,-4.2308,-4.2308,-4.2308,-4.2308,-4.2267,-4.2103,-2.0082,-2.2072,-2.4,-2.4366,-2.4652,-2.5124,0.0,0.0,-2.6983,0.0,-2.9375,-3.0571,-3.1151,-3.189,-3.2398,-3.2398,-3.2398,-3.2398,-3.2398,-3.2398,-3.2398,-3.2398,-3.2398,-3.2398,-3.2398,-3.2398,-3.2398,-3.2398,-3.2398,-3.2523,-3.2816,-3.2594,-3.2578,-3.2843,-3.287,-3.3011,-3.3261,-3.3614,-3.4219,-3.5063,-3.5705,-3.5989,-3.5928,-3.5928,-3.526,-3.4148,-3.4766,-3.5042,-3.5111,-3.5852,-3.6146,-3.6163,-3.6266,-3.6301,-3.6301,-3.6301,-3.6301,-3.6322,-3.6582,-3.6664,-3.6763,-3.7122,-3.7259,-3.7372,-3.7774,-3.7932,-3.8001,-3.8269,-3.835,-3.835,-3.8382,-3.9103,-3.9826,-3.9967,-4.1243,-4.2375,-4.2233,-4.2259,-4.242,-4.2644,-4.2474,-4.2308,-4.2308,-4.2308,-4.2308,-4.2308,-4.2308,-4.2308,-4.2308,-4.2308,-4.2308,-4.2308,-4.2308,-4.2308,-4.2308,-4.2308,-4.2308,-4.2308,-4.2308,-4.2308,-4.2308,-4.2308,-4.2308,-4.2308,-4.2308,-4.2308,-4.2308,-4.2308,-4.2308,-4.2287,-4.2061,-4.1917,-2.0842,-2.2272,-2.3522,-2.4489,-2.4892,-2.525,-2.5925,-2.6104,-2.6461,-2.7597,-2.8685,-2.9782,-3.0861,-3.1621,-3.2141,-3.2364,-3.2398,-3.2398,-3.2398,-3.2398,-3.2398,-3.2398,-3.2398,-3.2398,-3.2398,-3.2398,-3.2398,-3.2398,-3.2398,-3.2453,-3.2621,-3.2765,-3.2911,-3.306,-3.3439,-3.3691,-3.3836,-3.4423,-3.5105,-3.5902,-3.6178,-3.6301,-3.6301,-3.6301,-3.5956,-3.5335,-3.568,-3.5818,-3.5835,-3.6163,-3.6301,-3.6301,-3.6301,-3.6301,-3.6301,-3.6301,-3.6301,-3.6343,-3.6602,-3.6766,-3.6926,-3.7219,-3.7484,-3.7721,-3.7932,-3.8103,-3.8285,-3.8559,-3.8621,-3.8762,-3.9374,-3.9867,-4.0441,-4.1348,-4.2198,-4.2878,-4.3214,-4.3178,-4.3003,-4.2754,-4.2595,-4.2474,-4.2328,-4.2308,-4.2308,-4.2308,-4.2308,-4.2308,-4.2308,-4.2308,-4.2308,-4.2308,-4.2308,-4.2308,-4.2308,-4.2308,-4.2308,-4.2308,-4.2308,-4.2308,-4.2308,-4.2308,-4.2308,-4.2308,-4.2308,-4.2308,-4.2308,-4.2308,-4.2308,-4.2287,-4.2019,-4.1849,-2.0991,-2.2058,-2.3,-2.4281,-2.4882,-2.5287,0.0,0.0,-2.6141,0.0,-2.8034,-2.8999,-3.0156,-3.1054,-3.1774,-3.2272,-3.23,-3.2307,-3.2492,-3.2453,-3.2398,-3.2398,-3.2398,-3.2398,-3.2398,-3.2398,-3.2398,-3.2398,-3.2398,-3.2398,-3.2398,-3.2922,-3.3182,-3.3182,-3.3912,-3.4333,-3.4455,-3.5243,-3.5859,-3.6301,-3.6301,-3.6301,-3.6301,-3.6301,-3.6301,-3.6301,-3.6301,-3.6301,-3.6301,-3.6301,-3.6301,-3.6301,-3.6301,-3.6301,-3.6301,-3.6301,-3.6343,-3.6444,-3.6768,-3.7009,-3.7222,-3.7503,-3.781,-3.8119,-3.8186,-3.8334,-3.8541,-3.8803,-3.9043,-3.9401,-4.0191,-4.0698,-4.1311,-4.25,-4.2965,-4.3262,-4.3875,-4.3795,-4.3477,-4.3014,-4.2789,-4.2634,-4.2432,-4.2391,-4.2371,-4.2308,-4.243,-4.2492,-4.2412,-4.2391,-4.2391,-4.2391,-4.2348,-4.2308,-4.2308,-4.2308,-4.2308,-4.2308,-4.2308,-4.2308,-4.2308,-4.2308,-4.2267,-4.2205,-4.2267,-4.2308,-4.2308,-4.2246,-4.2205,-4.2187,-4.1874,-4.1635,-1.9058,-2.0708,-2.2587,-2.331,-2.4245,-2.5223,0.0,0.0,-2.6298,-2.6362,-2.7513,-2.8662,-2.9106,-3.0274,-3.1369,-3.2094,-3.2014,-3.2091,-3.2776,-3.2594,-3.2398,-3.2398,-3.2398,-3.2398,-3.2398,-3.2398,-3.2398,-3.2398,-3.2398,-3.2398,-3.2398,-3.2922,-3.3182,-3.3182,-3.4095,-3.4752,-3.5151,-3.5881,-3.628,-3.6301,-3.6301,-3.6301,-3.6301,-3.6301,-3.6301,-3.6301,-3.6301,-3.6301,-3.6301,-3.6301,-3.6301,-3.6301,-3.6301,-3.6301,-3.6301,-3.6301,-3.6444,-3.6745,-3.7206,-3.7486,-3.7739,-3.8203,-3.835,-3.843,-3.8683,-3.8777,-3.8818,-3.9031,-3.9681,-4.0331,-4.0383,-4.1534,-4.2705,-4.2779,-4.3373,-4.3949,-4.3986,-4.3795,-4.3579,-4.3562,-4.3087,-4.2711,-4.2692,-4.2692,-4.2595,-4.2348,-4.2786,-4.305,-4.2711,-4.2692,-4.2692,-4.2692,-4.2434,-4.2308,-4.2308,-4.2308,-4.2308,-4.2308,-4.2308,-4.2308,-4.2308,-4.2308,-4.2166,-4.1934,-4.2166,-4.2308,-4.2308,-4.204,-4.1917,-4.1895,-4.1458,-4.1232,-1.8787,-2.0276,0.0,-2.2527,-2.3954,-2.5263,-2.5445,-2.574,-2.6097,-2.6526,-2.7041,-2.7563,-2.8105,-2.9578,-3.0879,-3.1403,-3.1414,-3.1407,-3.1534,-3.1809,-3.194,-3.1778,-3.2136,-3.2398,-3.2398,-3.2398,-3.2398,-3.2398,-3.2398,-3.2398,-3.2398,-3.324,-3.3751,-3.3836,-3.4918,-3.5616,-3.5902,-3.6156,-3.6301,-3.6301,-3.6301,-3.6301,-3.6301,-3.6301,-3.6301,-3.6301,-3.6301,-3.6301,-3.6301,-3.6301,-3.6301,-3.6301,-3.6301,-3.6301,-3.6322,-3.6502,-3.6693,-3.6956,-3.7431,-3.7756,-3.8,-3.8302,-3.8528,-3.8667,-3.8777,-3.8892,-3.9114,-3.9756,-4.016,-4.0639,-4.1664,-4.237,-4.2927,-4.3448,-4.3782,-4.4005,-4.4005,-4.3908,-4.3812,-4.3629,-4.3303,-4.2957,-4.275,-4.2711,-4.2673,-4.2555,-4.292,-4.3087,-4.275,-4.2711,-4.2634,-4.2454,-4.2369,-4.2308,-4.2308,-4.2308,-4.2308,-4.2308,-4.2308,-4.2207,-4.2061,-4.204,-4.1934,-4.1697,-4.1784,-4.1866,-4.1866,-4.1892,-4.1831,-4.1697,-4.1368,-4.1209,-1.8386,-1.9501,-2.0743,0.0,-2.3135,-2.449,-2.5096,0.0,-2.5814,-2.6442,-2.6749,-2.7038,-2.7331,-2.865,-2.99,-3.0584,-3.0799,-3.0907,-3.0936,-3.1248,-3.1374,-3.1085,-3.1459,-3.1813,-3.2028,-3.2044,-3.2151,-3.2382,-3.2398,0.0,-3.2398,-3.3423,-3.4243,-3.4783,-3.5633,-3.6148,-3.6301,-3.6301,-3.6301,-3.6301,-3.6301,-3.6301,-3.6301,-3.6301,-3.6301,-3.6301,-3.6301,-3.6301,-3.6301,-3.6301,-3.6301,-3.6301,-3.6301,-3.6301,-3.6343,-3.669,-3.6937,-3.7209,-3.7756,-3.81,-3.8382,-3.8569,-3.8755,-3.8906,-3.8906,-3.9192,-3.9658,-4.0248,-4.0791,-4.1441,-4.2519,-4.3002,-4.3336,-4.3875,-4.4005,-4.4005,-4.4005,-4.4005,-4.3908,-4.3664,-4.3461,-4.3232,-4.292,-4.2939,-4.2958,-4.2883,-4.3142,-4.3214,-4.2902,-4.2769,-4.2634,-4.2434,-4.2351,-4.2308,-4.2308,-4.2308,-4.2308,-4.2308,-4.2225,-4.2082,-4.1913,-4.1849,-4.1697,-4.1475,-4.1542,-4.1515,-4.1358,-4.1587,-4.1591,-4.1453,-4.1226,-4.1094,0.0,0.0,0.0,0.0,0.0,0.0,-2.4954,0.0,-2.5447,-2.5975,-2.6652,-2.7073,-2.6839,-2.7506,-2.846,-2.9621,-3.0158,-3.0608,-3.1042,-3.092,-3.0674,-3.0407,-3.0386,-3.0674,-3.1316,-3.1378,-3.1628,-3.229,-3.2351,-3.2367,-3.2394,-3.3433,-3.4633,-3.5954,-3.6122,-3.6229,-3.6301,-3.6301,-3.6301,-3.6301,-3.6301,-3.6301,-3.6301,-3.6301,-3.6301,-3.6301,-3.6301,-3.6301,-3.6301,-3.6301,-3.6301,-3.6301,-3.6301,-3.6322,-3.6367,-3.6843,-3.719,-3.7523,-3.8178,-3.8582,-3.8833,-3.9031,-3.9101,-3.9101,-3.912,-3.9733,-4.0416,-4.0471,-4.159,-4.2816,-4.2835,-4.341,-4.4005,-4.4005,-4.4005,-4.4005,-4.4005,-4.4005,-4.3908,-4.3646,-4.3614,-4.3529,-4.325,-4.3426,-4.3512,-4.325,-4.3426,-4.3512,-4.3232,-4.292,-4.2711,-4.2692,-4.2472,-4.2308,-4.2308,-4.2308,-4.2287,-4.2287,-4.204,-4.1895,-4.1874,-4.1697,-4.1453,-4.1209,-4.1453,-4.1358,-4.0912,-4.1094,-4.1209,-4.1186,-4.0989,-4.0912,-1.7811,0.0,0.0,0.0,0.0,0.0,0.0,0.0,-2.5081,-2.558,-2.5866,-2.6117,-2.6388,-2.7122,-2.7715,-2.7856,-2.8647,-2.9263,-2.9173,-2.9832,-3.0272,-3.0199,-3.0309,-3.0541,-3.0928,-3.0778,-3.074,0.0,-3.1397,-3.1847,-3.2228,-3.3925,-3.5214,-3.5975,-3.6191,-3.628,-3.6301,-3.6301,-3.6301,-3.6301,-3.6301,-3.6301,-3.6301,-3.6301,-3.6301,-3.6301,-3.6301,-3.6301,-3.6301,-3.6301,-3.6301,-3.6301,-3.6301,-3.6495,-3.6843,-3.717,-3.7632,-3.8178,-3.8569,-3.8829,-3.9017,-3.9087,-3.9101,-3.9212,-3.9844,-4.0211,-4.0639,-4.1813,-4.2463,-4.2927,-4.3522,-4.3838,-4.4005,-4.4005,-4.4005,-4.4005,-4.4005,-4.4005,-4.3989,-4.3892,-4.373,-4.358,-4.3512,-4.3563,-4.3562,-4.3495,-4.3545,-4.3512,-4.3232,-4.292,-4.2634,-4.2432,-4.2331,-4.2308,-4.2308,-4.2308,-4.2225,-4.2019,-4.1956,-4.1744,-4.1413,-4.1346,-4.1203,-4.0989,-4.1059,-4.1035,-4.0912,-4.1094,-4.1117,-4.0989,-4.0918,-4.0912,-1.78,-1.8138,-1.8562,-1.8821,0.0,0.0,0.0,0.0,0.0,0.0,-2.5485,-2.5792,-2.5967,-2.6638,-2.7089,-2.6818,-2.7624,-2.8225,-2.8151,-2.8736,-2.9211,-2.9407,-2.9343,-2.9565,-3.0314,-3.0149,-3.0094,-3.0371,-3.0933,-3.1744,-3.2854,-3.4379,-3.5464,-3.6062,-3.6216,-3.6301,-3.6301,-3.6301,-3.6301,-3.6301,-3.6301,-3.6301,-3.6301,-3.6301,-3.6301,-3.6301,-3.6301,-3.6301,-3.6322,-3.6492,-3.6451,-3.6322,-3.6492,-3.6741,-3.7058,-3.7578,-3.8046,-3.8449,-3.8796,-3.8989,-3.9101,-3.9101,-3.9342,-3.9733,-4.0248,-4.0866,-4.159,-4.2537,-4.3039,-4.341,-4.3875,-4.4005,-4.4005,-4.4005,-4.4005,-4.4005,-4.4005,-4.4005,-4.3974,-4.3844,-4.3795,-4.373,-4.3631,-4.3679,-4.373,-4.3631,-4.3512,-4.3321,-4.3032,-4.2729,-4.2474,-4.2328,-4.2308,-4.2308,-4.2308,-4.2205,-4.2061,-4.1895,-4.1723,-4.1503,-4.1209,-4.1117,-4.1018,-4.0894,-4.0912,-4.0912,-4.0912,-4.1035,-4.1018,-4.0912,-4.0912,-4.0912,-1.7817,-1.78,-1.7952,-1.8606,0.0,0.0,0.0,0.0,0.0,0.0,-2.5043,-2.5524,-2.5488,-2.6031,-2.6404,-2.6132,-2.6768,-2.7428,-2.7705,-2.7822,-2.8001,-2.8467,-2.8031,-2.8246,-2.9594,-2.9486,-2.9593,-3.0289,-3.0829,-3.1959,-3.3804,-3.4705,-3.5487,-3.6182,-3.6276,-3.6301,-3.6301,-3.6301,-3.6301,-3.6301,-3.6301,-3.6301,-3.6301,-3.6301,-3.6301,-3.6301,-3.6364,-3.6385,-3.6388,-3.6801,-3.6739,-3.6409,-3.6821,-3.7057,-3.723,-3.8028,-3.8371,-3.8545,-3.897,-3.9101,-3.912,-3.9212,-3.977,-4.0434,-4.062,-4.1664,-4.2816,-4.2909,-4.3448,-4.4005,-4.4005,-4.4005,-4.4005,-4.4005,-4.4005,-4.4005,-4.4005,-4.4005,-4.3923,-4.3697,-4.3828,-4.3908,-4.3697,-4.3812,-4.3876,-4.3647,-4.3339,-4.305,-4.275,-4.2472,-4.2308,-4.2308,-4.2308,-4.2287,-4.2267,-4.204,-4.1874,-4.1831,-4.1436,-4.1186,-4.1163,-4.0995,-4.0912,-4.0912,-4.0912,-4.0912,-4.0912,-4.0912,-4.0912,-4.0912,-4.0912,-4.0912,0.0,0.0,0.0,0.0,0.0,0.0,0.0,0.0,0.0,0.0,-2.2949,-2.3434,-2.4582,-2.5001,-2.5074,-2.474,-2.5541,-2.6505,-2.7372,-2.7847,0.0,0.0,0.0,0.0,-2.923,-2.9065,-2.9197,-2.9874,-3.089,-3.2193,-3.3816,-3.458,-3.5339,-3.617,-3.6276,-3.6301,-3.6301,-3.6301,-3.6301,-3.6301,-3.6301,-3.6301,-3.6301,-3.6301,-3.6301,-3.6322,-3.6638,-3.6781,-3.6801,-3.7227,-3.7151,-3.6821,-3.7284,-3.7684,-3.8061,-3.8307,-3.8621,-3.8984,-3.9073,-3.9101,-3.9212,-3.9918,-4.0253,-4.0639,-4.1943,-4.2556,-4.2946,-4.3578,-4.3875,-4.4005,-4.4005,-4.4005,-4.4005,-4.4005,-4.4005,-4.4005,-4.4005,-4.4005,-4.3971,-4.3923,-4.3955,-4.3989,-4.3923,-4.3795,-4.3646,-4.3614,-4.3123,-4.2769,-4.2711,-4.2472,-4.2308,-4.2308,-4.2308,-4.2207,-4.1998,-4.1917,-4.1744,-4.1368,-4.1255,-4.1117,-4.0965,-4.0918,-4.0912,-4.0912,-4.0912,-4.0912,-4.0912,-4.0912,-4.0912,-4.0912,-4.0912,-4.0912,0.0,0.0,0.0,-1.78,0.0,0.0,0.0,0.0,0.0,0.0,0.0,-2.2153,-2.3286,-2.386,-2.422,-2.4423,-2.4953,-2.5495,0.0,0.0,0.0,0.0,0.0,0.0,-2.8613,-2.8445,-2.8698,-2.9675,-3.0957,-3.2181,-3.328,-3.4375,-3.5183,-3.5704,-3.609,-3.6301,-3.6301,-3.6301,-3.6301,-3.6301,-3.6301,-3.6301,-3.6301,-3.6301,-3.6301,-3.6322,-3.6512,-3.6701,-3.6939,-3.7322,-3.7505,-3.7523,-3.779,-3.8062,-3.8323,-3.8594,-3.8884,-3.9101,-3.9101,-3.938,-3.9807,-4.0253,-4.094,-4.1739,-4.2556,-4.3076,-4.3485,-4.3893,-4.4005,-4.4005,-4.4005,-4.4005,-4.4005,-4.4005,-4.4005,-4.4005,-4.4005,-4.3974,-4.3958,-4.3989,-4.3974,-4.3958,-4.3989,-4.3779,-4.3545,-4.3409,-4.292,-4.2478,-4.2315,-4.2086,-4.1952,-4.1952,-4.1952,-4.1909,-4.1762,-4.1635,-4.1458,-4.1192,-4.1111,-4.1012,-4.0894,-4.0912,-4.0912,-4.0912,-4.0912,-4.0912,-4.0912,-4.0912,-4.0912,-4.0912,-4.0912,-4.0912,0.0,0.0,0.0,0.0,0.0,-1.7952,0.0,0.0,0.0,0.0,0.0,0.0,0.0,0.0,0.0,0.0,0.0,0.0,0.0,0.0,0.0,0.0,0.0,0.0,-2.8123,-2.8097,-2.8552,-2.9724,-3.0858,-3.1867,-3.2747,-3.4054,-3.4923,-3.518,-3.5921,-3.6301,-3.6301,-3.6301,-3.6301,-3.6301,-3.6301,-3.6301,-3.6301,-3.6301,-3.6301,-3.6322,-3.6471,-3.6719,-3.7055,-3.7542,-3.7913,-3.8218,-3.8298,-3.836,-3.847,-3.8859,-3.905,-3.912,-3.9287,-3.9807,-4.0438,-4.0754,-4.185,-4.302,-4.302,-4.3485,-4.4005,-4.4005,-4.4005,-4.4005,-4.4005,-4.4005,-4.4005,-4.4005,-4.4005,-4.4005,-4.4005,-4.3961,-4.3913,-4.3958,-4.3929,-4.3881,-4.386,-4.361,-4.3338,-4.3032,-4.2555,-4.2151,-4.1892,-4.1697,-4.1604,-4.1604,-4.1604,-4.1582,-4.1538,-4.1323,-4.1186,-4.114,-4.0989,-4.0912,-4.0912,-4.0912,-4.0912,-4.0912,-4.0912,-4.0912,-4.0912,-4.0912,-4.0912,-4.0912,-4.0912,-4.0912,0.0,0.0,0.0,0.0,-1.8285,0.0,0.0,0.0,0.0,-1.8877,0.0,0.0,0.0,0.0,0.0,0.0,0.0,0.0,0.0,0.0,0.0,0.0,0.0,0.0,0.0,-2.8623,-2.9317,-3.0263,-3.0359,-3.1079,-3.2715,-3.3573,-3.439,-3.518,-3.5921,-3.6301,-3.6301,-3.6301,-3.6301,-3.6301,-3.6301,-3.6301,-3.6301,-3.6301,-3.6301,-3.6343,-3.7055,-3.7395,-3.7487,-3.8252,-3.8596,-3.8643,-3.8716,-3.8773,-3.8848,-3.895,-3.905,-3.9212,-3.9974,-4.0323,-4.0639,-4.2054,-4.3132,-4.3856,-4.3856,-4.3931,-4.4005,-4.4005,-4.4005,-4.4005,-4.4005,-4.4005,-4.4005,-4.4005,-4.4005,-4.4005,-4.4005,-4.3961,-4.3897,-4.3913,-4.3851,-4.3701,-4.3353,-4.3069,-4.2734,-4.22,-4.1878,-4.1692,-4.1648,-4.1604,-4.1604,-4.1604,-4.1604,-4.1498,-4.1255,-4.1232,-4.1117,-4.0942,-4.0894,-4.0912,-4.0912,-4.0912,-4.0912,-4.0912,-4.0912,-4.0912,-4.0912,-4.0912,-4.0912,-4.0912,-4.0912,-4.0912,0.0,0.0,0.0,0.0,0.0,0.0,-1.8538,0.0,-1.8403,0.0,0.0,0.0,0.0,0.0,0.0,0.0,-2.0285,0.0,0.0,0.0,0.0,0.0,0.0,0.0,0.0,0.0,0.0,0.0,-2.9895,-3.07,-3.1537,-3.2691,-3.3709,-3.4545,-3.5266,-3.587,-3.6301,-3.6301,-3.6301,-3.6301,-3.6301,-3.6301,-3.6301,-3.6301,-3.6301,-3.6322,-3.6658,-3.7075,-3.7523,-3.7861,-3.8269,-3.8707,-3.8719,-3.8807,-3.8906,-3.9021,-3.9407,-3.99,-4.0285,-4.101,-4.198,-4.3113,-4.3726,-4.4005,-4.4005,-4.4005,-4.4005,-4.4005,-4.4005,-4.4005,-4.4005,-4.4005,-4.4005,-4.4005,-4.3958,-4.3945,-4.3945,-4.3832,-4.3666,-4.3475,-4.339,-4.3123,-4.2464,-4.256,-4.2578,-4.2077,-4.1622,-4.1386,-4.1386,-4.1272,-4.1198,-4.1198,-4.1198,-4.1152,-4.1059,-4.1035,-4.0989,-4.0912,-4.0912,-4.0912,-4.0912,-4.0912,-4.0912,-4.0912,-4.0912,-4.0912,-4.0912,-4.0912,-4.0912,-4.0912,-4.0912,-4.0912,-2.2912,0.0,0.0,0.0,0.0,0.0,0.0,0.0,0.0,0.0,0.0,0.0,0.0,0.0,0.0,0.0,0.0,0.0,0.0,0.0,0.0,0.0,0.0,0.0,0.0,0.0,0.0,0.0,0.0,-3.0035,-3.0679,-3.1903,-3.3059,-3.4079,-3.4818,-3.5542,-3.6284,-3.6301,-3.6301,-3.6301,-3.6301,-3.6301,-3.6301,-3.6301,-3.6301,-3.6301,-3.6409,-3.686,-3.7505,-3.7614,-3.8068,-3.8707,-3.8719,-3.8924,-3.9228,-3.9322,-3.9801,-4.041,-4.0884,-4.1962,-4.3225,-4.3819,-4.4005,-4.4005,-4.4005,-4.4005,-4.4005,-4.4005,-4.4005,-4.4005,-4.4005,-4.3989,-4.3974,-4.3974,-4.3929,-4.3832,-4.3697,-4.3546,-4.3338,-4.2959,-4.2829,-4.2541,-4.1778,-4.2074,-4.2259,-4.1756,-4.1373,-4.1117,-4.1117,-4.0989,-4.0912,-4.0912,-4.0912,-4.0912,-4.0912,-4.0912,-4.0912,-4.0912,-4.0912,-4.0912,-4.0912,-4.0912,-4.0912,-4.0912,-4.0912,-4.0912,-4.0912,-4.0912,-4.0912,-4.0912,-4.0912,-4.0912,0.0,0.0,0.0,-2.2198,0.0,0.0,0.0,0.0,-1.8894,0.0,0.0,0.0,0.0,0.0,0.0,0.0,0.0,0.0,0.0,0.0,0.0,0.0,0.0,0.0,0.0,0.0,0.0,0.0,0.0,0.0,-3.061,-3.142,-3.2524,-3.4061,-3.4818,-3.5542,-3.6284,-3.6301,-3.6301,-3.6301,-3.6301,-3.6301,-3.6301,-3.6301,-3.6301,-3.6322,-3.6719,-3.7132,-3.7542,-3.7913,-3.8336,-3.8707,-3.8762,-3.9271,-3.997,-4.0043,-4.0119,-4.0452,-4.2136,-4.3262,-4.3968,-4.3986,-4.4005,-4.4005,-4.4005,-4.4005,-4.4005,-4.4005,-4.4005,-4.4005,-4.4005,-4.3942,-4.3897,-4.3897,-4.3851,-4.3667,-4.3212,-4.3069,-4.2884,-4.2406,-4.2282,-4.2074,-4.1583,-4.1626,-4.1534,-4.1012,-4.0918,-4.0912,-4.0912,-4.0894,-4.0912,-4.0912,-4.0912,-4.0912,-4.0912,-4.0912,-4.0912,-4.0912,-4.0912,-4.0912,-4.0912,-4.0912,-4.0912,-4.0912,-4.0912,-4.0912,-4.0912,-4.0912,-4.0912,-4.0912,-4.0912,-4.0912,-2.5045,-2.4258,-2.3402,-2.3053,0.0,0.0,0.0,0.0,0.0,0.0,0.0,0.0,0.0,0.0,0.0,0.0,0.0,0.0,0.0,0.0,0.0,0.0,0.0,0.0,0.0,0.0,0.0,0.0,0.0,0.0,0.0,-3.0644,-3.1748,-3.3266,-3.4059,-3.4818,-3.5559,-3.6059,-3.6301,-3.6301,-3.6301,-3.6301,-3.6301,-3.6301,-3.6301,-3.6322,-3.6451,-3.688,-3.7505,-3.765,-3.8409,-3.9496,-3.9525,-4.0021,-4.0682,-4.0268,-4.084,-4.2008,-4.315,-4.3675,-4.3867,-4.3867,-4.3915,-4.3945,-4.3945,-4.3958,-4.3989,-4.3961,-4.3945,-4.3929,-4.3883,-4.3851,-4.3818,-4.3818,-4.3548,-4.3232,-4.3069,-4.2752,-4.2322,-4.1867,-4.1739,-4.16,-4.1186,-4.114,-4.1111,-4.0918,-4.0912,-4.0912,-4.0912,-4.0912,-4.0912,-4.0912,-4.0912,-4.0912,-4.0912,-4.0912,-4.0912,-4.0912,-4.0912,-4.0912,-4.0912,-4.0912,-4.0912,-4.0912,-4.0912,-4.0912,-4.0912,-4.0912,-4.0912,-4.0912,-4.0912,-4.0912,-2.6047,-2.5313,-2.4478,-2.4105,-2.3817,0.0,-2.2524,0.0,0.0,0.0,0.0,0.0,0.0,0.0,0.0,0.0,0.0,0.0,0.0,0.0,0.0,0.0,0.0,0.0,0.0,0.0,0.0,0.0,0.0,0.0,0.0,0.0,-3.0955,-3.2455,-3.3542,-3.4458,-3.518,-3.5921,-3.6301,-3.6301,-3.6301,-3.6301,-3.6301,-3.6301,-3.6301,-3.6322,-3.6451,-3.688,-3.7541,-3.7972,-3.8843,-3.9918,-4.0212,-4.0818,-4.1495,-4.107,-4.1844,-4.3164,-4.3682,-4.3853,-4.3804,-4.3804,-4.3837,-4.3867,-4.3867,-4.3881,-4.3857,-4.3532,-4.3645,-4.3777,-4.3451,-4.3448,-4.3513,-4.3513,-4.3124,-4.2675,-4.2501,-4.22,-4.1821,-4.1356,-4.1283,-4.1192,-4.0942,-4.0912,-4.0912,-4.0912,-4.0912,-4.0912,-4.0912,-4.0912,-4.0912,-4.0912,-4.0912,-4.0912,-4.0912,-4.0912,-4.0912,-4.0912,-4.0912,-4.0912,-4.0912,-4.0912,-4.0912,-4.0912,-4.0912,-4.0912,-4.0912,-4.0912,-4.0912,-4.0912,-4.0912,-4.0912]},{"header":{"parameterUnit":"m.s-1","parameterCategory":1,"la1":30.6,"la2":29.2853,"lo1":-89.7004,"lo2":-87.6739,"dx":0.0162,"dy":0.0183,"nx":112,"ny":82,"refTime":"2023-01-02T18:00:00:Z","depth":0,"parameterNumber":3,"parameterNumberName":"V-component_of_WINDS"},"data":[0.0,0.0,0.0,0.0,0.0,0.0,0.0,0.0,0.0,0.0,0.0,0.0,0.0,0.0,0.0,0.0,0.0,0.0,0.0,0.0,0.0,0.0,0.0,0.0,0.0,0.0,0.0,0.0,0.0,0.0,0.0,0.0,0.0,0.0,0.0,0.0,0.0,0.0,0.0,0.0,0.0,0.0,0.0,0.0,0.0,0.0,0.0,0.0,0.0,0.0,0.0,0.0,0.0,0.0,0.0,0.0,0.0,0.0,0.0,0.0,0.0,0.0,0.0,0.0,0.0,0.0,0.0,0.0,0.0,0.0,0.0,0.0,0.0,0.0,0.0,0.0,0.0,0.0,0.0,0.0,0.0,0.0,0.0,0.0,0.0,0.0,0.0,0.0,0.0,0.0,0.4491,0.4491,0.4491,0.4491,0.4491,0.4491,0.4239,0.3627,0.0,0.0,0.0,0.0,0.0,0.0,0.0,0.0,0.0,0.0,0.0,0.0,0.0,0.0,0.0,0.0,0.0,0.0,0.0,0.0,0.0,0.0,0.0,0.0,0.0,0.0,0.0,0.0,0.0,0.0,0.0,0.0,0.0,0.0,0.0,0.0,0.0,0.0,0.0,0.0,0.0,0.0,0.0,0.0,0.0,0.0,0.0,0.0,0.0,0.0,0.0,0.0,0.0,0.0,0.0,0.0,0.0,0.0,0.0,0.0,0.0,0.0,0.0,0.0,0.0,0.0,0.0,0.0,0.0,0.0,0.0,0.0,0.0,0.0,0.0,0.0,0.0,0.0,0.0,0.0,0.0,0.0,0.0,0.0,0.0,0.0,0.0,0.0,0.0,0.0,0.0,0.0,0.0,0.0,0.0,0.0,0.0,0.0,0.0,0.0,0.0,0.0,0.0,0.0,0.4491,0.4491,0.4491,0.4491,0.4491,0.4491,0.4239,0.3627,0.0,0.0,0.0,0.0,0.0,0.0,0.0,0.0,0.0,0.0,0.0,0.0,0.0,0.0,0.0,0.0,0.0,0.0,0.0,0.0,0.0,0.0,0.0,0.0,0.0,0.0,0.0,0.0,0.0,0.0,0.0,0.0,0.0,0.0,0.0,0.0,0.0,0.0,0.0,0.0,0.0,0.0,0.0,0.0,0.0,0.0,0.0,0.0,0.0,0.0,0.0,0.0,0.0,0.0,0.0,0.0,0.0,0.0,0.0,0.0,0.0,0.0,0.0,0.0,0.0,0.0,0.0,0.0,0.0,0.0,0.0,0.0,0.0,0.0,0.0,0.0,0.0,0.0,0.0,0.0,0.0,0.0,0.0,0.0,0.0,0.0,0.0,0.0,0.0,0.0,0.0,0.0,0.0,0.0,0.0,0.0,0.0,0.0,0.0,0.0,0.0,0.0,0.0,0.4406,0.4491,0.4491,0.4491,0.4491,0.4491,0.4491,0.4405,0.4211,0.3952,0.0,0.0,0.0,0.0,0.0,0.0,0.0,0.0,0.0,0.0,0.0,0.0,0.0,0.0,0.0,0.0,0.0,0.0,0.0,0.0,0.0,0.0,0.0,0.0,0.0,0.0,0.0,0.0,0.0,0.0,0.0,0.0,0.0,0.0,0.0,0.0,0.0,0.0,0.0,0.0,0.0,0.0,0.0,0.0,0.0,0.0,0.0,0.0,0.0,0.0,0.0,0.0,0.0,0.0,0.0,0.0,0.0,0.0,0.0,0.0,0.0,0.0,0.0,0.0,0.0,0.0,0.0,0.0,0.0,0.0,0.0,0.0,0.0,0.0,0.0,0.0,0.0,0.0,0.0,0.0,0.0,0.0,0.0,0.0,0.0,0.0,0.0,0.0,0.0,0.0,0.0,0.0,0.0,0.0,0.0,0.0,0.0,0.0,0.0,0.0,0.0,0.0,0.4598,0.4639,0.4567,0.4545,0.4573,0.4601,0.4601,0.4643,0.4743,0.4444,0.0,0.0,0.0,0.0,0.0,0.0,0.0,0.0,0.0,0.0,0.0,0.0,0.0,0.0,0.0,0.0,0.0,0.0,0.0,0.0,0.0,0.0,0.0,0.0,0.0,0.0,0.0,0.0,0.0,0.0,0.0,0.0,0.0,0.0,0.0,0.0,0.0,0.0,0.0,0.0,0.0,0.0,0.0,0.0,0.0,0.0,0.0,0.0,0.0,0.0,0.0,0.0,0.0,0.0,0.0,0.0,0.0,0.0,0.0,0.0,0.0,0.0,0.0,0.0,0.0,0.0,0.0,0.0,0.0,0.0,0.0,0.0,0.0,0.0,0.0,0.0,0.0,0.0,0.0,0.0,0.0,0.0,0.0,0.0,0.0,0.0,0.0,0.0,0.0,0.0,0.0,0.0,0.0,0.0,0.0,0.0,0.0,0.0,0.0,0.0,0.0,0.0,0.4924,0.5096,0.4718,0.4674,0.4735,0.4854,0.4883,0.4873,0.4881,0.4566,0.0,0.0,0.0,0.0,0.0,0.0,0.0,0.0,0.0,0.0,0.0,0.0,0.0,0.0,0.0,0.0,0.0,0.0,0.0,0.0,0.0,0.0,0.0,0.0,0.0,0.0,0.0,0.0,0.0,0.0,0.0,0.0,0.0,0.0,0.0,0.0,0.0,0.0,0.0,0.0,0.0,0.0,0.0,0.0,0.0,0.0,0.0,0.0,0.0,0.0,0.0,0.0,0.0,0.0,0.0,0.0,0.0,0.0,0.0,0.0,0.0,0.0,0.0,0.0,0.0,0.0,0.0,0.0,0.0,0.0,0.0,0.0,0.0,0.0,0.0,0.0,0.0,0.0,0.0,0.0,0.0,0.0,0.0,0.0,0.0,0.0,0.0,0.0,0.0,0.0,0.0,0.0,0.0,0.0,0.0,0.0,0.0,0.0,0.0,0.0,0.0,0.0,0.5874,0.5895,0.5316,0.5479,0.5485,0.5128,0.5385,0.5469,0.5235,0.0,0.0,0.0,0.0,0.0,0.0,0.0,0.0,0.0,0.0,0.0,0.0,0.0,0.0,0.0,0.0,0.0,0.0,0.0,0.0,0.0,0.0,0.0,0.0,0.0,0.0,0.0,0.0,0.0,0.0,0.0,0.0,0.0,0.0,0.0,0.0,0.0,0.0,0.0,0.0,0.0,0.0,0.0,0.0,0.0,0.0,0.0,0.0,0.0,0.0,0.0,0.0,0.0,0.0,0.0,0.0,0.0,0.0,0.0,0.0,0.0,0.0,0.0,0.0,0.0,0.0,0.0,0.0,0.0,0.0,0.0,0.0,0.0,0.0,0.0,0.0,0.0,0.0,0.0,0.0,0.0,0.0,0.0,0.0,0.0,0.0,0.0,0.0,0.0,0.0,0.0,0.0,0.0,0.0,0.0,0.0,0.0,0.0,0.0,0.0,0.0,0.0,0.6405,0.6763,0.6764,0.6318,0.6512,0.6502,0.6106,0.6324,0.6365,0.6076,0.0,0.0,0.0,0.0,0.0,0.0,0.0,0.0,0.0,0.0,0.0,0.0,0.0,0.0,0.0,0.0,0.0,0.0,0.0,0.0,0.0,0.0,0.0,0.0,0.0,0.0,0.0,0.0,0.0,0.0,0.0,0.0,0.0,0.0,0.0,0.0,0.0,0.0,0.0,0.0,0.0,0.0,0.0,0.0,0.0,0.0,0.0,0.0,0.0,0.0,0.0,0.0,0.0,0.0,0.0,0.0,0.0,0.0,0.0,0.0,0.0,0.0,0.0,0.0,0.0,0.0,0.0,0.0,0.0,0.0,0.0,0.0,0.0,0.0,0.0,0.0,0.0,0.0,0.0,0.0,0.0,0.0,0.0,0.0,0.0,0.0,0.0,0.0,0.0,0.0,0.0,0.0,0.0,0.0,0.0,0.0,0.0,0.0,0.0,0.0,0.0,0.0,0.7086,0.7458,0.7717,0.7721,0.7711,0.7778,0.798,0.7708,0.7507,0.0,0.0,0.0,0.0,0.0,0.0,0.0,0.0,0.0,0.0,0.0,0.0,0.0,0.0,0.0,0.0,0.0,0.0,0.0,0.0,0.0,0.0,0.0,0.0,0.0,0.0,0.0,0.0,0.0,0.0,0.0,0.0,0.0,0.0,0.0,0.0,0.0,0.0,0.0,0.0,0.0,0.0,0.0,0.0,0.0,0.0,0.0,0.0,0.0,0.0,0.0,0.0,0.0,0.0,0.0,0.0,0.0,0.0,0.0,0.0,0.0,0.0,0.0,0.0,0.0,0.0,0.0,0.0,0.0,0.0,0.0,0.0,0.0,0.0,0.0,0.0,0.0,0.0,0.0,0.0,0.0,0.0,0.0,0.0,0.0,0.0,0.0,0.0,0.0,0.0,0.0,0.0,0.0,0.0,0.0,0.0,0.0,0.0,0.0,0.0,0.0,0.0,0.0,0.8195,0.8577,0.8645,0.8368,0.8626,0.8631,0.818,0.844,0.8381,0.7746,0.0,0.0,0.0,0.0,0.0,0.0,0.0,0.0,0.0,0.0,0.0,0.0,0.0,0.0,0.0,0.0,0.0,0.0,0.0,0.0,0.0,0.0,0.0,0.0,0.0,0.0,0.0,0.0,0.0,0.0,0.0,0.0,0.0,0.0,0.0,0.0,0.0,0.0,0.0,0.0,0.0,0.0,0.0,0.0,0.0,0.0,0.0,0.0,0.0,0.0,0.0,0.0,0.0,0.0,0.0,0.0,0.0,0.0,0.0,0.0,0.0,0.0,0.0,0.0,0.0,0.0,0.0,0.0,0.0,0.0,0.0,0.0,0.0,0.0,0.0,0.0,0.0,0.0,0.0,0.0,0.0,0.0,0.0,0.0,0.0,0.0,0.0,0.0,0.0,0.0,0.0,0.0,0.0,0.0,0.0,0.0,0.0,0.0,0.0,0.0,0.0,0.0,0.9052,0.934,0.9444,0.9408,0.9649,0.9652,0.9186,0.9364,0.9272,0.8741,0.0,0.0,0.0,0.0,0.0,0.0,0.0,0.0,0.0,0.0,0.0,0.0,0.0,0.0,0.0,0.0,0.0,0.0,0.0,0.0,0.0,0.0,0.0,0.0,0.0,0.0,0.0,0.0,0.0,0.0,0.0,0.0,0.0,0.0,0.0,0.0,0.0,0.0,0.0,0.0,0.0,0.0,0.0,0.0,0.0,0.0,0.0,0.0,0.0,0.0,0.0,0.0,0.0,0.0,0.0,0.0,0.0,0.0,0.0,0.0,0.0,0.0,0.0,0.0,0.0,0.0,0.0,0.0,0.0,0.0,0.0,0.0,0.0,0.0,0.0,0.0,0.0,0.0,0.0,0.0,0.0,0.0,0.0,0.0,0.0,0.0,0.0,0.0,0.0,0.0,0.0,0.0,0.0,0.0,0.0,0.0,0.0,0.0,0.0,0.0,0.0,0.0,0.9606,0.9821,1.0087,1.0559,1.0593,1.0593,1.0593,1.0314,1.0117,1.0083,0.0,0.0,0.0,0.0,0.0,0.0,0.0,0.0,0.0,0.0,0.0,0.0,0.0,0.0,0.0,0.0,0.0,0.0,0.0,0.0,0.0,0.0,0.0,0.0,0.0,0.0,0.0,0.0,0.0,0.0,0.0,0.0,0.0,0.0,0.0,0.0,0.0,0.0,0.0,0.0,0.0,0.0,0.0,0.0,0.0,0.0,0.0,0.0,0.0,0.0,0.0,0.0,0.0,0.0,0.0,0.0,0.0,0.0,0.0,0.0,0.8609,0.7732,0.0,0.0,0.0,0.0,0.0,0.0,0.0,0.0,0.0,0.0,0.0,0.0,0.0,0.0,0.0,0.0,0.0,0.0,0.0,0.0,0.0,0.0,0.0,0.0,0.0,0.0,0.0,0.0,0.0,0.0,0.0,0.0,0.0,0.0,0.0,0.0,0.0,0.0,0.0,0.0,0.9633,0.9903,1.0203,1.0559,1.0593,1.0593,1.0593,1.0533,1.0399,1.0134,0.9726,0.0,0.0,0.0,0.0,0.0,0.0,0.0,0.0,0.0,0.0,0.0,0.0,0.0,0.0,0.0,0.0,0.0,0.0,0.0,0.0,0.0,0.0,0.0,0.0,0.0,0.0,0.0,0.0,0.0,0.0,0.0,0.0,0.0,0.0,0.0,0.0,0.0,0.0,0.0,0.0,0.0,0.0,0.0,0.0,0.0,0.0,0.0,0.0,0.0,0.0,0.0,0.0,0.0,0.0,0.0,0.0,0.0,0.0,0.0,0.9735,0.8991,0.0,0.0,0.0,0.0,0.0,0.0,0.0,0.0,0.0,0.0,0.0,0.0,0.0,0.0,0.0,0.0,0.0,0.0,0.0,0.0,0.0,0.0,0.0,0.0,0.0,0.0,0.0,0.0,0.0,0.0,0.0,0.0,0.0,0.0,0.0,0.0,0.0,0.0,0.0,0.0,1.0799,1.1092,1.1317,1.1485,1.1233,1.1021,1.1021,1.0782,1.0526,1.0341,1.0053,0.0,0.0,0.0,0.0,0.0,0.0,0.0,0.0,0.0,0.0,0.0,0.0,0.0,0.0,0.0,0.0,0.0,0.0,0.0,0.0,0.0,0.0,0.0,0.0,0.0,0.0,0.0,0.0,0.0,0.0,0.0,0.0,0.0,0.0,0.0,0.0,0.0,0.0,0.0,0.0,0.0,0.0,0.0,0.0,0.0,0.0,0.0,0.0,0.0,0.0,0.0,0.0,0.0,1.2726,1.2726,1.2726,1.2726,1.2757,1.2787,1.112,1.0616,1.0965,1.0378,0.0,0.0,0.0,0.0,0.0,0.0,0.0,0.0,0.0,0.0,0.0,0.0,0.0,0.0,0.0,0.0,0.0,0.0,0.0,0.0,0.0,0.0,1.0064,1.0493,1.0597,1.0241,0.8845,0.0,0.0,0.0,0.0,0.0,0.0,0.0,0.0,0.0,0.0,0.0,1.2052,1.2328,1.2536,1.2599,1.2119,1.1805,1.1896,1.1354,1.1041,1.1041,1.067,1.056,0.0,0.0,0.0,0.0,0.0,0.0,0.0,0.0,0.0,0.0,0.0,0.0,0.0,0.0,0.0,0.0,0.0,0.0,0.0,0.0,0.0,0.0,0.0,0.0,0.0,0.0,0.0,0.0,0.0,0.0,0.0,0.0,1.1694,1.1694,0.0,0.0,0.0,0.0,0.0,0.0,0.0,0.0,0.0,0.0,0.0,0.0,0.0,1.276,1.3012,1.3004,1.3148,1.3557,1.3557,1.3557,1.3557,1.3557,1.386,1.4357,1.3526,0.0,1.2232,1.1933,0.0,0.0,0.0,0.0,0.0,0.0,0.0,0.0,0.0,0.0,0.0,0.0,0.0,0.0,0.0,0.0,0.0,0.0,0.0,0.0,0.0,0.0,1.1356,1.1447,1.1439,1.1387,1.1162,1.0559,1.0078,1.0078,1.0353,1.0486,0.0,0.0,0.0,0.0,0.0,0.0,1.2084,1.2328,1.2631,1.2981,1.2949,1.3043,1.3369,1.3026,1.2765,1.2765,1.2179,1.1862,1.1903,1.0925,0.0,0.0,0.0,0.0,0.0,0.0,0.0,0.0,0.0,0.0,0.0,0.0,0.0,0.0,0.0,0.0,0.0,0.0,0.0,0.0,0.0,0.0,0.0,0.0,0.0,0.0,0.0,0.0,0.0,1.174,1.2114,1.2618,1.257,1.2569,0.0,0.0,0.0,0.0,0.0,0.0,0.0,0.0,0.0,1.3882,1.425,1.4475,1.4545,1.4545,1.4663,1.482,1.482,1.482,1.482,1.482,1.4991,1.5236,1.4959,1.4629,1.4227,1.3108,1.2507,1.2228,0.0,0.0,0.0,0.0,1.1941,1.1718,1.1837,1.188,1.1848,1.1648,0.0,0.0,0.0,0.0,0.0,0.0,0.0,1.1668,1.2031,1.2114,1.2178,1.2491,1.2555,1.2555,1.2555,1.2286,1.1831,1.1199,1.1219,1.1275,1.1088,1.165,0.0,0.0,0.0,1.3267,1.3739,1.3909,1.412,1.451,1.4223,1.4063,1.4255,1.3762,1.3436,1.3436,1.2964,1.2718,1.2875,1.1955,1.132,0.0,0.0,0.0,0.0,0.0,0.0,0.0,0.0,0.0,0.0,0.0,0.0,0.0,0.0,0.0,0.0,0.0,0.0,0.0,0.0,0.0,0.0,0.0,0.0,0.0,0.0,0.0,0.0,1.2716,1.2887,1.3597,1.3414,1.3334,0.0,0.0,0.0,0.0,0.0,0.0,1.5153,1.5361,1.5414,1.532,1.5606,1.5808,1.5845,1.5854,1.59,1.6001,1.6001,1.6001,1.6001,1.6001,1.6001,1.6001,1.6001,1.6001,1.5889,1.4377,1.367,1.3517,1.3357,1.3037,1.2709,1.3048,1.2991,1.2755,1.2733,1.2701,1.268,1.2405,1.2284,1.22,1.22,0.0,0.0,0.0,0.0,1.2464,1.2898,1.3011,1.3095,1.3514,1.3607,1.3607,1.3607,1.3607,1.3311,1.2248,1.2106,1.2175,1.2047,1.2591,0.0,1.3274,1.3825,1.4414,1.5019,1.5184,1.5404,1.5808,1.542,1.5169,1.5256,1.4696,1.4372,1.4372,1.3998,1.3821,1.3918,1.3139,1.2574,1.2296,0.0,0.0,0.0,0.0,0.0,0.0,0.0,0.0,0.0,0.0,0.0,0.0,0.0,0.0,0.0,0.0,0.0,0.0,0.0,0.0,0.0,0.0,0.0,0.0,0.0,0.0,0.0,0.0,0.0,1.4718,1.5041,0.0,0.0,0.0,0.0,1.5995,1.6364,1.6502,1.6408,1.6427,1.6278,1.5968,1.5964,1.6095,1.6285,1.6251,1.6477,1.6844,1.6844,1.6844,1.6844,1.6844,1.6844,1.6844,1.6844,1.6844,1.678,1.5917,1.5201,1.4681,1.5312,1.4519,1.3219,1.4497,1.432,1.3541,1.4172,1.4389,1.438,1.4362,1.4088,1.3789,1.3789,1.3789,0.0,0.0,1.4052,1.4362,1.4392,1.4392,1.4421,1.4421,1.4451,1.4451,1.4451,1.4451,1.4192,1.3387,1.3505,1.367,1.3277,0.0,1.4293,1.3909,1.4543,1.5056,1.5093,1.5423,1.5817,1.6239,1.6251,1.6373,1.6748,1.6394,1.6184,1.6184,1.5793,1.5414,1.5022,1.4599,1.3945,1.3056,1.2294,0.0,0.0,0.0,0.0,0.0,0.0,0.0,0.0,0.0,0.0,0.0,0.0,0.0,0.0,0.0,0.0,0.0,0.0,0.0,0.0,0.0,0.0,0.0,0.0,0.0,0.0,0.0,0.0,1.5156,1.5566,0.0,1.6453,1.6809,1.7195,1.7683,1.7533,1.7378,1.7347,1.7378,1.7345,1.7216,1.7481,1.7631,1.772,1.772,1.762,1.7407,1.7774,1.774,1.7442,1.7774,1.7944,1.791,1.7569,1.7407,1.7389,1.6723,1.6187,1.5734,1.5701,1.5308,1.4822,1.5319,1.5251,1.4908,1.4881,1.4891,1.4845,1.4588,1.4414,1.4286,1.4286,1.4286,1.4344,1.4637,1.5057,1.5479,1.578,1.6075,1.6219,1.5871,1.5778,1.5685,1.5361,1.5267,1.5184,1.4891,1.4744,1.4625,1.4478,1.4909,1.5221,1.5065,1.5294,1.5579,1.5845,1.601,1.6248,1.6652,1.6697,1.6752,1.6899,1.678,1.6697,1.6697,1.6312,1.6028,1.589,1.5239,1.4726,1.4399,1.3627,1.2838,0.0,0.0,0.0,0.0,0.0,0.0,0.0,0.0,0.0,0.0,0.0,0.0,0.0,0.0,0.0,0.0,0.0,0.0,0.0,0.0,0.0,0.0,0.0,0.0,0.0,0.0,1.5677,1.5938,1.6607,1.7203,1.7641,1.7974,1.8341,1.8833,1.8707,1.8574,1.8574,1.8615,1.8621,1.8556,1.868,1.8734,1.8677,1.8576,1.8307,1.7969,1.8341,1.8307,1.7969,1.8341,1.8509,1.8465,1.8138,1.7969,1.7935,1.7569,1.7281,1.6973,1.6335,1.6141,1.6183,1.6183,1.609,1.5899,1.5449,1.5294,1.5258,1.4992,1.5032,1.5175,1.5175,1.5296,1.5508,1.582,1.6146,1.6433,1.6769,1.7083,1.7211,1.6847,1.6752,1.6668,1.6319,1.6233,1.6192,1.6,1.5605,1.5294,1.5294,1.5515,1.5689,1.5689,1.5808,1.6001,1.6285,1.6431,1.6615,1.6881,1.6908,1.6908,1.6908,1.6908,1.6908,1.6908,1.6661,1.6425,1.6321,1.5799,1.5441,1.5304,1.4634,1.3885,1.3034,0.0,0.0,0.0,0.0,0.0,0.0,0.0,0.0,0.0,0.0,0.0,0.0,0.0,0.0,0.0,0.0,0.0,0.0,0.0,0.0,0.0,0.0,0.0,1.5652,1.6422,1.7132,1.7143,1.8143,1.8819,1.8849,1.9217,1.946,1.9491,1.9898,2.0139,2.0139,2.0128,2.0053,1.9857,1.9519,1.9276,1.9044,1.8744,1.8543,1.8533,1.8543,1.8543,1.8533,1.8543,1.8543,1.8543,1.8533,1.8533,1.8509,1.8509,1.8509,1.8408,1.7373,1.7035,1.7143,1.7143,1.6896,1.6487,1.5955,1.5762,1.5753,1.5753,1.6087,1.6522,1.6522,1.6888,1.7305,1.7305,1.7315,1.7367,1.7357,1.7367,1.7377,1.7377,1.7346,1.7356,1.7356,1.7356,1.7189,1.6665,1.6134,1.5781,1.5748,1.5716,1.5725,1.5758,1.6107,0.0,1.6364,1.6704,1.6934,1.6943,1.6934,1.6908,1.6908,1.6908,1.6908,1.6908,1.6908,1.6734,1.6315,1.6321,1.612,1.5698,1.5313,1.4735,1.3966,0.0,0.0,0.0,0.0,0.0,0.0,0.0,0.0,0.0,0.0,0.0,0.0,0.0,0.0,0.0,0.0,0.0,0.0,0.0,0.0,0.0,0.0,1.7658,1.7341,1.7535,1.7907,1.8306,1.8864,1.9457,1.9969,2.0412,2.0854,2.1389,2.1318,2.1262,2.1262,2.1019,2.086,2.0816,2.072,2.0495,2.0172,2.0074,1.9704,1.9067,1.9452,1.9462,1.91,1.9495,1.9671,1.9638,1.9243,1.9067,1.9034,1.8667,1.8509,1.8476,1.8172,1.8069,1.8138,1.8138,1.7859,1.7481,1.7352,1.7091,1.6867,1.6867,1.6961,1.7076,1.7076,1.718,1.7367,1.7698,1.8051,1.8385,1.8743,1.9062,1.9222,1.8844,1.8736,1.8639,1.8246,1.819,1.8114,1.7972,1.785,1.7387,1.6326,1.6386,1.6705,1.7091,1.7229,1.7475,1.787,1.8002,1.791,1.7501,1.7476,1.7304,1.6943,1.6908,1.6908,1.6908,1.6908,1.6862,1.6752,1.6434,1.612,1.5698,1.5579,1.5414,0.0,0.0,0.0,0.0,0.0,0.0,0.0,0.0,0.0,0.0,0.0,0.0,0.0,0.0,0.0,0.0,0.0,0.0,0.0,0.0,0.0,0.0,1.8948,1.9165,1.94,1.9218,1.9153,1.9497,2.0143,2.073,2.1155,2.1424,2.182,2.2479,2.2353,2.2341,2.2567,2.2386,2.2289,2.2289,2.2115,2.192,2.168,2.1395,2.0886,2.0193,2.0357,2.0161,1.966,1.9976,2.0118,2.0074,1.9758,1.9649,1.9616,1.9287,1.9154,1.9121,0.0,0.0,0.0,0.0,1.868,1.8455,1.8226,1.7999,1.7787,1.7787,1.7948,1.814,1.814,1.83,1.8533,1.8817,1.9073,1.9362,1.9618,1.99,2.0009,1.9693,1.9649,1.9561,1.9253,1.9154,1.9088,1.8877,1.8834,0.0,1.7422,1.7417,1.7672,1.8003,1.8037,1.8138,1.8476,1.8509,1.8365,1.807,1.8037,1.791,1.7604,1.7373,0.0,0.0,0.0,1.6908,1.6908,1.6688,0.0,0.0,0.0,1.5863,1.5689,1.546,0.0,0.0,1.4011,1.3919,0.0,0.0,0.0,0.0,0.0,0.0,0.0,0.0,0.0,0.0,0.0,0.0,0.0,0.0,0.0,0.0,2.0382,2.0887,2.1416,2.107,2.0765,2.0707,2.1637,2.2282,2.2282,2.233,2.257,2.3039,2.3095,2.3312,2.3782,0.0,0.0,0.0,0.0,2.3236,2.3136,2.2548,2.1992,2.142,2.114,2.0686,2.0194,2.0194,2.0162,2.0118,2.0118,2.0118,2.0118,2.0118,2.0118,2.0009,1.9054,1.8977,1.9408,1.9408,1.9408,1.9309,1.8844,0.0,0.0,1.8677,1.9011,1.9408,1.9408,1.9726,2.0118,2.0118,2.0118,2.0118,2.0118,2.0118,2.0118,2.0118,2.0118,2.0118,2.0118,2.0118,1.9976,1.9474,1.9408,1.9243,1.8777,1.8566,1.8509,1.8566,1.86,1.862,1.8748,1.8782,1.8768,1.8751,1.8762,0.0,1.866,1.8218,1.7953,1.7953,1.7445,1.7088,1.6972,1.6972,1.6789,1.6395,1.6386,1.6202,1.5826,1.578,1.5762,1.5753,1.5349,1.5166,0.0,0.0,0.0,0.0,0.0,0.0,0.0,0.0,0.0,0.0,0.0,0.0,0.0,0.0,0.0,2.0918,2.1175,2.144,2.1969,2.2308,2.2353,2.1923,2.2447,2.2867,2.2867,2.3252,2.3541,2.3649,2.3649,2.3697,2.3794,2.3806,2.3806,2.3806,2.3727,2.3394,2.2809,2.2685,2.2252,2.1543,2.152,0.0,2.0763,2.0763,2.0511,2.0118,2.0118,2.0118,2.0118,2.0118,2.0118,2.0074,1.9878,1.9835,1.9944,1.9944,1.9944,1.9944,1.9835,1.9802,1.9802,1.9802,1.9868,1.9944,1.9944,2.0009,0.0,2.0118,2.0118,2.0118,2.0118,2.0118,2.0118,2.0118,2.0118,2.0118,2.0118,2.0118,2.0085,1.9976,1.9944,1.99,1.9802,1.9088,1.8643,1.9067,1.9144,1.9446,2.0318,2.0439,2.042,2.0341,2.0348,2.0172,1.9748,1.9606,1.958,1.958,1.8951,1.8222,1.743,1.7385,1.7193,1.6798,1.6789,1.6752,1.667,1.6349,1.6193,1.6184,1.5771,1.5579,0.0,0.0,0.0,0.0,0.0,0.0,0.0,0.0,0.0,0.0,0.0,1.9552,0.0,0.0,2.0767,2.132,2.1849,2.2282,2.2546,2.3071,2.3216,2.2654,2.3083,2.3408,2.3408,2.3649,2.3914,2.4133,2.4145,2.4266,2.453,2.4542,2.4542,2.4542,2.4542,2.4359,2.4013,2.3828,2.3351,2.2541,2.2366,2.1889,2.1255,2.1004,2.0763,2.0489,2.0216,2.0118,2.0118,2.0118,2.0118,2.0118,2.0118,2.0118,2.0118,2.0118,2.0118,2.0118,2.0118,2.0118,2.0118,2.0118,2.0118,2.0118,2.0118,2.0118,2.0118,2.0118,2.0118,2.0118,2.0118,2.0118,2.0118,2.0118,2.0118,2.0118,2.0118,2.0118,2.0118,2.0118,2.0303,2.05,2.05,2.0249,2.0075,2.0111,2.0306,2.0654,2.1188,2.1255,2.125,2.1199,2.1196,2.109,2.0807,2.0548,2.0309,2.0021,1.9377,1.8761,1.8271,1.7944,1.7715,1.7487,1.7513,1.7513,1.7513,1.7285,1.7185,1.722,1.7009,1.6688,0.0,0.0,0.0,0.0,0.0,0.0,0.0,0.0,1.93,1.9829,1.9965,2.0117,2.067,2.1199,2.1596,2.1692,2.251,2.3168,2.3168,2.3613,2.3794,2.3328,2.3652,2.395,2.395,2.4047,2.4242,2.4638,2.4675,2.482,2.5288,2.5312,2.5312,2.5312,2.5312,2.5276,2.5218,2.4921,2.4364,2.3509,2.3178,2.2564,2.1712,2.1354,2.1069,2.0861,2.0325,2.0118,2.0118,2.0118,2.0118,2.0118,2.0118,2.0118,2.0118,2.0118,2.0118,2.0118,2.0118,2.0118,2.0118,2.0118,2.0118,2.0118,2.0118,2.0118,2.0118,2.0118,2.0118,2.0118,2.0118,2.0118,2.0118,2.0118,2.0118,2.0118,2.0118,2.0118,2.014,2.0238,2.0598,2.0927,2.1015,2.1441,2.1559,2.1113,2.1376,2.1625,2.1723,2.1734,2.1767,2.1854,2.1865,2.1865,2.1865,2.1464,2.0999,2.0457,1.9889,1.9509,1.9311,1.8852,1.849,1.8267,1.8258,1.823,1.8091,1.8091,1.8091,1.8091,1.8091,1.7734,1.8649,1.8819,1.8806,1.8845,1.8893,1.9049,0.0,0.0,1.9853,2.0406,2.0526,2.0682,2.1211,2.1753,2.2258,2.2727,2.3324,2.371,2.371,2.4121,2.441,2.4328,2.4398,2.4434,2.4434,2.4867,2.5155,2.5216,2.5216,2.5252,2.5312,2.5312,2.5312,2.5312,2.5312,2.5147,2.4861,2.4825,2.4394,2.3588,2.3551,2.3086,2.2237,2.2182,2.168,2.0861,2.0325,2.0118,2.0118,2.0118,2.0118,2.0118,2.0118,2.0118,2.0118,2.0118,2.0118,2.0118,2.0118,2.0118,2.0118,2.0118,2.0118,2.0118,2.0118,2.0118,2.0118,2.0118,2.0118,2.0118,2.0118,2.0118,2.0118,2.0118,2.0118,2.0118,2.0118,2.0118,2.0238,2.073,2.0861,2.1036,2.1463,2.1909,2.2073,2.1581,2.1559,2.1745,2.2182,2.2237,2.239,2.2794,2.2848,2.2848,2.2848,2.28,2.2504,2.1906,2.1793,2.1343,2.0461,2.0376,1.9881,1.8902,1.8893,1.8655,1.8091,1.8091,1.8091,1.8091,1.8091,1.8036,1.8854,1.8987,1.9059,0.0,1.9483,1.9627,2.0141,2.0273,2.0418,2.0959,2.1079,2.1332,2.2161,2.2498,2.2855,0.0,2.3869,2.4206,2.4206,2.465,2.4975,2.4975,2.53,2.5357,2.5022,2.5495,2.5664,2.5347,2.5896,2.6,2.5347,2.5629,2.5838,2.5838,2.5838,2.5781,2.5618,2.5618,2.5159,2.4309,2.4043,2.3649,2.3036,2.2988,2.2443,2.1496,2.0945,2.07,2.07,2.07,2.07,2.0635,2.0237,2.0118,2.0118,2.0118,2.0118,2.0118,2.0118,2.0118,2.0118,2.0118,2.0118,2.0118,2.0118,2.0118,2.0118,2.0118,2.0118,2.0118,2.0118,2.0118,2.0118,2.0118,2.0118,2.0118,2.0118,2.0336,2.062,2.0861,2.1354,2.1778,2.1974,2.24,2.2652,2.2444,2.2411,2.2488,2.2684,2.2717,2.2783,2.2979,2.3001,2.3001,2.3001,2.3001,2.2889,2.2628,2.2289,2.1903,2.148,2.0741,2.0157,1.9707,1.9364,1.9067,1.8806,1.8806,1.8806,1.8806,1.8806,1.8661,1.9323,1.9444,0.0,1.9929,2.0037,2.0153,2.0706,2.081,2.0983,2.1512,2.174,2.2077,2.2879,2.322,2.3532,2.3917,2.441,2.47,2.47,2.5211,2.5488,2.5312,2.5978,2.6186,2.5594,2.6082,2.6186,2.5594,2.6449,2.662,2.5791,2.6186,2.6427,2.6427,2.6427,2.6427,2.6427,2.6427,2.6013,2.5218,2.4683,2.4311,2.4131,2.3688,2.3106,2.2425,2.1687,2.1376,2.1376,2.1187,2.1092,2.1028,2.0356,2.0118,2.0118,2.0118,2.0118,2.0118,2.0118,2.0118,2.0118,2.0118,2.0118,2.0118,2.0118,2.0118,2.0118,2.0118,2.0118,2.0118,2.0118,2.0118,2.0118,2.0118,2.0118,2.0151,2.0282,2.062,2.0971,2.1244,2.1832,2.2321,2.2488,2.2783,2.3001,2.3001,2.3001,2.3001,2.3001,2.3001,2.3001,2.3001,2.3001,2.3001,2.3001,2.3001,2.3001,2.3001,2.244,2.2101,2.2101,2.1049,2.0401,2.0206,1.9775,1.946,1.9301,1.9301,1.9301,1.9301,1.9301,1.9152,2.0533,0.0,2.0562,2.0579,2.0574,2.073,2.126,2.138,2.1536,2.2065,2.2582,2.2975,2.2999,2.3797,2.4448,2.446,2.4939,2.5288,2.5288,2.5791,2.5943,2.5382,2.6277,2.6769,0.0,2.6667,2.6735,2.6198,2.6701,2.6973,2.6939,2.6973,2.6973,2.6973,2.6973,2.6973,2.6973,2.6973,2.6778,2.6343,2.5417,2.5134,2.5414,2.4215,2.3688,2.3604,2.2527,2.207,2.2009,2.1376,2.1092,2.1028,2.0356,2.0118,2.0118,2.0118,2.0118,2.0118,2.0118,2.0118,2.0118,2.0118,2.0118,2.0118,2.0118,2.0118,2.0118,2.0118,2.0118,2.0118,2.0118,2.0118,2.0118,2.0118,2.0118,2.0238,2.0774,2.0883,2.1179,2.2095,2.2302,2.2419,2.2903,2.299,2.3001,2.3001,2.3001,2.3001,2.3001,2.3001,2.3001,2.3001,2.3001,2.3001,2.3001,2.3001,2.3001,2.3001,2.244,2.2101,2.2101,2.151,2.0857,2.0196,2.0167,1.9893,1.9301,1.9301,1.9301,1.9301,1.9301,1.9301,2.0581,0.0,2.0694,2.1031,2.1127,2.1272,2.1813,2.1921,2.1981,2.2149,2.265,2.3119,2.3469,2.4061,2.4604,2.4987,2.5192,2.5453,2.5838,2.6082,2.6255,2.6414,2.7061,0.0,0.0,0.0,0.0,2.6769,2.7543,2.7743,2.704,2.7343,2.7543,2.7543,2.7543,2.7543,2.7543,2.7543,2.7263,2.6778,2.6079,2.5941,2.6249,2.4917,2.4359,2.4392,2.3685,2.3133,2.2743,2.2531,2.2163,2.171,2.104,2.0485,2.0118,2.0118,2.0118,2.0118,2.0118,2.0118,2.0118,2.0118,2.0118,2.0118,2.0118,2.0118,2.0118,2.0118,2.0118,2.0118,2.0118,2.0118,2.0118,2.0118,2.0358,2.0664,2.0861,2.1408,2.1931,2.2248,2.2564,2.2815,2.2968,2.3001,2.3001,2.3001,2.3001,2.3001,2.3001,2.3001,2.3001,2.3001,2.3001,2.3001,2.3001,2.3001,2.3001,2.3001,2.244,2.2101,2.2101,2.1088,2.043,2.0206,1.9814,1.9499,1.9301,1.9301,1.9301,1.9301,1.9301,1.9152,2.1175,2.1175,2.126,2.1596,2.1692,2.1777,2.2113,2.2197,2.2197,2.2197,2.2794,2.3396,2.3746,2.4338,2.4915,2.5252,2.5488,2.5769,2.6164,2.6371,2.6598,2.6973,2.7477,2.7643,0.0,0.0,0.0,2.7343,2.8085,2.8281,2.761,2.7908,2.8085,2.8085,2.8085,2.8085,2.8085,2.8085,2.7729,2.7082,2.6879,2.6778,2.6684,2.577,2.5285,2.5135,2.4599,2.4007,2.3442,2.3207,2.2847,2.2378,2.171,2.104,2.0453,2.0453,2.0302,2.0118,2.0118,2.0118,2.0118,2.0118,2.0118,2.0118,2.0118,2.0118,2.0118,2.0118,2.0118,2.0118,2.0118,2.0118,2.0162,2.0325,2.0642,2.0993,2.1343,2.1876,2.2368,2.2531,2.2805,2.3001,2.3001,2.3001,2.3001,2.3001,2.3001,2.3001,2.3001,2.3001,2.3001,2.3001,2.3001,2.3001,2.3001,2.3001,2.3001,2.3001,2.2241,2.1787,2.1787,2.0547,1.9893,1.9893,1.9499,1.9301,1.9301,1.9301,1.9301,1.9301,1.9301,1.9152,2.2197,2.2197,2.2197,2.2197,2.2197,2.2197,2.2197,2.2197,2.2197,2.2197,2.3047,2.3758,0.0,0.0,2.5264,2.5264,2.5779,2.6198,2.6233,2.6701,2.704,0.0,0.0,0.0,0.0,0.0,0.0,2.7888,0.0,2.8587,2.8587,2.8587,2.8587,2.8587,2.8587,2.8587,2.8587,2.8587,2.8157,2.7278,2.7842,2.7623,2.6752,2.6726,2.636,2.5754,2.524,2.4665,2.4054,2.3412,2.3148,2.3058,2.2408,2.171,2.1092,2.1092,2.0667,2.0118,2.0118,2.0118,2.0118,2.0118,2.0118,2.0118,2.0118,2.0118,2.0118,2.0118,2.0118,2.0118,2.0118,2.0129,2.026,2.0785,2.0938,2.1222,2.2116,2.2299,2.2488,2.2914,2.3001,2.3001,2.3001,2.3001,2.3001,2.3001,2.3001,2.3001,2.3001,2.3001,2.3001,2.3001,2.3001,2.3001,2.3001,2.2964,2.2964,2.3001,2.1852,2.1165,2.1203,1.9962,1.9301,1.9301,1.9301,1.9301,1.9301,1.9301,1.9301,1.9301,1.932,1.9338,2.2197,2.2197,2.2197,2.2197,2.2197,2.2197,2.2197,2.2197,2.2197,2.2197,2.2758,2.3216,0.0,0.0,0.0,2.4723,2.5546,0.0,2.6735,2.7276,0.0,2.8151,0.0,2.8392,2.8392,2.8522,0.0,0.0,2.8522,2.8587,2.8587,2.8587,2.8587,2.8587,2.8587,2.8587,2.8587,2.8587,2.8476,2.8235,2.8131,2.798,2.7709,2.7033,2.636,2.5754,2.524,2.4711,2.4218,2.3969,2.3619,2.3225,2.2955,2.2144,2.1092,2.1092,2.0667,2.0118,2.0118,2.0118,2.0118,2.0118,2.0118,2.0118,2.0118,2.0118,2.0118,2.0118,2.0118,2.0118,2.0118,2.0413,2.0741,2.0861,2.1417,2.2018,2.2269,2.2586,2.2859,2.2979,2.3001,2.3001,2.3001,2.3001,2.3001,2.3001,2.3001,2.3001,2.3001,2.3001,2.3001,2.3001,2.3001,2.3001,2.3001,2.259,2.2515,2.2964,2.1385,2.0663,2.1165,1.9962,1.9301,1.9301,1.9301,1.9301,1.9301,1.9301,1.9301,1.9311,1.9622,1.9557,2.2197,2.2197,2.2197,2.2197,2.2197,2.2197,2.2197,2.2197,2.2197,2.2197,2.265,0.0,0.0,0.0,0.0,0.0,0.0,0.0,2.6934,2.7443,2.7987,0.0,2.8392,0.0,2.8587,2.8587,2.8587,0.0,2.8587,2.8587,2.8587,2.8587,2.8587,2.8587,2.8587,2.8587,2.8587,2.8587,2.8587,2.8587,2.8276,2.8112,2.8066,2.713,2.6392,2.5847,2.5332,2.483,2.4421,2.4261,2.4015,2.3712,2.359,2.2725,2.1522,2.1522,2.0944,2.0118,2.0118,2.0118,2.0118,2.0118,2.0118,2.0118,2.0118,2.0118,2.0118,2.0118,2.0118,2.0162,2.0402,2.0664,2.1004,2.143,2.192,2.2379,2.2575,2.2815,2.3001,2.3001,2.3001,2.3001,2.3001,2.3001,2.3001,2.3001,2.3001,2.3001,2.3001,2.3001,2.3001,2.3001,2.3001,2.3001,2.3001,2.244,2.2252,2.259,2.1088,2.0352,2.0741,1.9805,1.9301,1.9301,1.9301,1.9301,1.9301,1.9485,1.9456,1.9255,1.9866,1.9808,2.2173,2.2197,2.2197,2.2197,2.2197,2.2197,2.2197,2.2137,2.2089,2.2089,0.0,2.2666,2.2666,2.3192,2.3734,2.4145,0.0,2.6359,2.6827,2.7471,2.8085,2.8554,2.8183,2.8085,2.8554,2.8587,2.8587,2.8587,2.8587,2.8587,2.8587,2.8587,2.8587,2.8587,2.8587,2.8587,2.8587,2.8587,2.8587,2.8554,2.8243,2.8112,2.8066,2.7051,2.6409,2.6003,2.5404,2.4911,2.4578,2.4379,2.4292,2.4292,2.4157,2.3263,2.2101,2.2101,2.125,2.0118,2.0118,2.0118,2.0118,2.0118,2.0118,2.0118,2.0118,2.0118,2.0118,2.0118,2.0118,2.0216,2.0774,2.0938,2.1222,2.2095,2.2368,2.251,2.2914,2.3001,2.3001,2.3001,2.3001,2.3001,2.3001,2.3001,2.3001,2.3001,2.3001,2.3001,2.3001,2.3001,2.3001,2.3001,2.3001,2.2964,2.2889,2.2327,2.1987,2.1987,2.0789,2.0128,2.0206,1.9618,1.9301,1.9301,1.9356,1.9384,1.9384,1.9765,1.9752,1.9297,2.0117,2.0,2.1942,2.2197,2.2197,2.2197,2.2197,2.2197,2.2197,2.1861,0.0,0.0,2.1272,2.1031,2.1031,2.1813,2.2486,2.2582,0.0,0.0,0.0,0.0,2.849,0.0,0.0,0.0,0.0,0.0,0.0,0.0,2.8587,2.8587,2.8587,2.8587,2.8587,2.8587,2.8587,2.8587,2.8587,2.8587,2.8522,2.8365,2.8164,2.8112,2.8052,2.6739,2.6153,2.6179,2.5146,2.4656,2.4578,2.4379,2.4292,2.4292,2.4157,2.3263,2.2101,2.2101,2.125,2.0118,2.0118,2.0118,2.0118,2.0118,2.0118,2.0118,2.0118,2.0118,2.0118,2.0118,2.0118,2.0216,2.0774,2.119,2.1614,2.2182,2.2608,2.2903,2.2979,2.3001,2.3001,2.3001,2.3001,2.3001,2.3001,2.3001,2.3001,2.3001,2.3001,2.3001,2.3001,2.3001,2.3001,2.3001,2.3001,2.2815,2.2289,2.1711,2.1357,2.1357,2.0157,1.9696,2.0167,1.9618,1.9301,1.9301,1.9641,1.9783,1.9783,2.0218,2.0168,1.9722,2.0189,1.9931,2.1174,2.1754,2.2197,2.2197,2.1993,2.1777,2.1777,0.0,0.0,0.0,2.0791,2.0581,2.0581,0.0,0.0,2.2101,0.0,0.0,0.0,0.0,0.0,0.0,0.0,0.0,0.0,0.0,0.0,2.8587,2.8587,2.8587,2.8587,2.8587,2.8587,2.8587,2.8587,2.8587,2.8587,2.8509,2.8444,2.8444,2.8118,2.8033,2.8143,2.6683,2.6153,2.635,2.5215,2.452,2.4176,2.3989,2.3682,2.3255,2.31,2.2463,2.1585,2.1585,2.0944,2.0118,2.0118,2.0118,2.0118,2.0118,2.0118,2.0118,2.0118,2.0118,2.0118,2.0118,2.0292,2.0631,2.1112,2.1603,2.2084,2.2553,2.2848,2.3001,2.3001,2.274,2.2628,2.2927,2.274,2.2628,2.2964,2.3001,2.3001,2.3001,2.3001,2.3001,2.3001,2.3001,2.3001,2.3001,2.2703,2.2402,2.2101,2.1252,2.0663,2.0663,1.9805,1.942,1.9736,1.945,1.9402,1.9622,1.9783,1.9994,2.0195,2.0377,2.0198,1.9739,2.0157,1.9838,2.0235,2.0967,2.1696,2.1818,2.1548,2.1235,2.1235,2.0827,0.0,0.0,2.0346,2.0273,2.0273,0.0,2.0706,0.0,2.2788,0.0,0.0,0.0,0.0,0.0,0.0,0.0,0.0,0.0,0.0,2.8587,2.8587,2.8587,2.8587,2.8587,2.8587,2.8587,2.8587,2.8587,2.8587,2.843,2.843,2.8522,2.7987,2.7874,2.8072,2.6617,2.6012,2.6058,2.5018,2.4163,2.3463,2.3344,2.2895,2.2243,2.2132,2.1678,2.1092,2.1092,2.0667,2.0118,2.0118,2.0118,2.0118,2.0118,2.0118,2.0118,2.0118,2.0118,2.0129,2.0238,2.0566,2.1036,2.1592,2.2029,2.2433,2.2892,2.3001,2.3001,2.3001,2.2515,2.2252,2.2703,2.244,2.2252,2.274,2.2927,2.3001,2.3001,2.3001,2.2964,2.2815,2.2815,2.2777,2.2617,2.2327,2.1987,2.1721,2.0789,2.0118,2.001,1.9569,1.9347,1.943,1.9439,1.9632,2.0003,2.0095,2.0254,2.048,2.0533,2.0245,1.9686,2.0019,1.9646,1.9338,1.9835,2.0058,2.0609,2.0701,2.0653,2.0653,0.0,0.0,1.988,1.948,1.9143,1.9143,0.0,0.0,0.0,0.0,2.3457,0.0,0.0,0.0,0.0,0.0,0.0,0.0,0.0,2.8587,2.8587,2.8587,2.8587,2.8587,2.8587,2.8587,2.8587,2.8587,2.8587,2.8587,2.8587,2.8476,2.832,2.7776,2.7499,2.7435,2.6248,2.5423,2.4845,2.419,2.3344,2.2457,2.2427,2.2317,2.2132,2.2101,2.1678,2.1092,2.1092,2.0667,2.0118,2.0118,2.0118,2.0118,2.0118,2.0118,2.0118,2.0118,2.0118,2.0205,2.0675,2.0861,2.1113,2.2007,2.228,2.2433,2.2892,2.3001,2.3001,2.3001,2.2515,2.2101,2.2176,2.2138,2.2101,2.2176,2.2628,2.3001,2.3001,2.3001,2.2815,2.2252,2.2176,2.1977,2.1433,2.1825,2.1634,2.0469,2.0284,1.9971,1.942,1.9341,1.9476,1.982,1.9829,2.0021,2.0457,2.0814,2.08,2.0411,2.0758,2.0494,1.9596,1.9675,1.9371,1.8368,1.9186,1.9848,2.0466,2.037,2.0117,2.0117,0.0,0.0,1.9338,1.9143,1.8987,1.8987,1.9167,1.9408,1.9748,2.1301,0.0,2.3965,0.0,0.0,0.0,0.0,0.0,0.0,0.0,2.8587,2.8587,2.8587,2.8587,2.8587,2.8587,2.8587,2.8587,2.8587,2.8587,2.8587,2.8476,2.8444,2.8476,2.7723,2.7453,2.7539,2.6266,2.5322,2.4676,2.4075,2.3015,2.1772,2.1772,2.1408,2.0912,2.1135,2.0912,2.0506,2.0732,2.0518,2.0118,2.0118,2.0118,2.0118,2.0118,2.0118,2.0118,2.0118,2.0118,2.0216,2.0763,2.1102,2.1461,2.2138,2.2521,2.2772,2.2957,2.274,2.2478,2.2478,2.1672,2.1098,2.1482,2.1252,2.1213,2.1949,2.2289,2.259,2.2964,2.2703,2.2365,2.2138,2.1787,2.1318,2.0663,2.0818,2.0741,2.0245,1.9883,1.9578,1.9301,1.954,1.9719,1.9884,2.0122,2.0466,2.0869,2.0732,2.0712,2.0766,2.0333,1.9957,1.9592,1.9279,1.9012,1.7503,1.8342,1.9155,1.9932,1.9841,1.9567,0.0,0.0,0.0,1.8987,1.8987,1.8987,1.8987,1.8987,1.9107,1.9519,2.073,2.205,2.3156,0.0,0.0,0.0,0.0,2.836,0.0,2.836,2.836,2.836,2.836,2.8425,2.8587,2.8457,2.8457,2.8587,2.8587,2.8587,2.8587,2.8476,2.8365,2.8346,2.7419,2.704,2.7171,2.5735,2.4736,2.4055,2.3492,2.2378,2.1019,2.1019,2.0635,2.0107,2.0356,2.0291,2.0118,2.0367,2.0302,2.0118,2.0118,2.0118,2.0118,2.0118,2.0118,2.0118,2.0118,2.0216,2.0423,2.0971,2.1422,2.1797,2.1949,2.2344,2.2703,2.2505,2.2289,2.2063,2.1873,2.0972,2.0362,2.0818,2.0508,2.0479,2.1367,2.1711,2.1977,2.2392,2.209,2.1749,2.1558,2.1165,2.0663,2.001,1.9932,1.9932,1.9932,1.9529,1.9356,1.9476,1.9729,1.9994,2.0264,2.0549,2.0879,2.1282,2.0809,2.0722,2.0997,2.0048,1.9592,1.96,1.9058,1.8781,1.6849,1.7213,1.7518,1.8721,1.8999,1.8999,0.0,0.0,0.0,1.8987,1.8987,1.8987,1.8987,1.8987,1.8987,1.8999,1.9916,2.0998,2.2085,2.3611,0.0,0.0,0.0,2.7809,2.7809,2.7809,2.7809,2.7809,2.7809,2.8052,2.8554,2.8085,2.8052,2.8587,2.8587,2.8587,2.8587,2.8587,2.8314,2.7809,2.6739,2.6136,2.5967,2.4418,2.3313,2.2604,2.2113,2.123,2.0107,2.0107,2.0107,2.0118,2.0118,2.0118,2.0118,2.0118,2.0118,2.0118,2.0118,2.0118,2.0118,2.0118,2.0118,2.0118,2.0118,2.0478,2.0993,2.1439,2.1825,2.1977,2.1357,2.1672,2.1949,2.1357,2.1672,2.1949,2.1357,2.0663,2.0206,2.0196,2.0206,2.0206,2.0206,2.0779,2.1203,2.1203,2.1203,2.0972,2.0323,2.0196,1.9962,1.9381,1.9301,1.9301,1.9301,1.9301,1.9476,1.9857,1.9893,2.0283,2.1062,2.1099,2.13,2.1678,2.1221,2.0988,2.0997,2.0048,1.9592,1.96,1.9058,1.8781,1.6218,1.6821,1.7396,1.8174,1.8682,1.8987,1.8987,0.0,1.8987,1.8987,1.8987,1.8987,1.8987,1.8987,1.8987,1.8987,2.0168,2.1215,0.0,0.0,0.0,0.0,2.6693,2.741,0.0,0.0,2.7809,2.7809,2.7809,2.7709,2.751,2.7676,2.8052,2.8587,2.8249,2.8216,2.8587,2.7888,2.761,2.7776,2.633,2.5617,2.5471,2.4003,2.2914,2.2094,2.1721,2.1135,2.0421,2.0205,2.0237,2.0453,2.0453,2.0302,2.0118,2.0356,2.0302,2.0118,2.0118,2.0118,2.0118,2.0118,2.0118,2.0074,1.9988,2.0077,2.0294,2.0679,2.1135,2.1443,2.1242,2.1357,2.1443,2.1242,2.1011,2.0741,2.0547,2.004,1.9569,1.9569,1.9569,1.9736,2.0128,2.0391,2.0663,2.1126,2.0818,2.043,2.0235,1.9854,1.9499,1.9301,1.9558,1.9692,1.9692,1.9692,1.9857,2.0259,2.0585,2.0842,2.1099,2.1339,2.1416,2.1221,2.0781,2.0374,2.0048,1.9371,1.905,1.9058,1.8874,1.8781,1.5977,1.668,1.7341,1.7957,1.8536,1.8987,0.0,0.0,1.8987,1.8987,1.8987,1.8987,1.8987,1.8987,1.8987,1.8987,2.0165,2.1113,0.0,0.0,0.0,2.5635,0.0,0.0,0.0,2.7209,2.7209,2.7209,2.7209,2.7142,2.7007,2.7142,2.7443,2.7987,2.7888,2.7842,2.7987,2.7343,2.7074,2.7196,2.5761,2.4991,2.4757,2.3306,2.2293,2.1702,2.1431,2.1051,0.0,2.0356,2.0421,2.0571,2.0453,2.0291,2.0118,2.0324,2.027,2.0118,2.0118,2.0118,2.0118,2.0118,2.0063,1.9956,1.9618,1.9803,2.0124,2.0289,2.0572,2.0779,2.0537,2.0663,2.0779,2.0537,2.0352,2.0118,1.9932,1.9578,1.9301,1.9301,1.9301,1.942,1.9805,1.9854,2.0001,2.043,2.0118,1.9854,1.9854,1.9539,1.9366,1.9522,1.9729,2.0012,2.0347,2.0195,2.0278,2.0714,2.097,2.1181,2.1337,2.1549,2.1454,2.0997,2.0555,2.0155,1.9874,1.9371,1.9012,1.8781,1.8781,1.8781,0.0,1.6617,1.7285,1.7902,1.8483,1.8934,1.8987,1.8987,0.0,1.8987,1.8987,1.8987,1.8987,1.8987,1.8999,1.9035,1.9925,2.0815,0.0,2.2855,0.0,0.0,2.6164,0.0,2.6267,2.6233,2.6198,2.6198,2.6198,2.6393,2.6858,2.6461,2.6393,2.6858,2.741,2.7477,2.7007,2.6939,2.6641,2.6124,2.5066,2.4316,2.3829,2.2333,2.1557,2.1388,2.1221,2.0967,2.0635,2.0603,2.0603,2.0582,2.0237,2.0118,2.0118,2.0118,2.0118,2.0118,2.0118,2.0074,2.0053,2.002,1.9944,1.9733,1.9117,1.96,2.0301,2.0159,2.0128,2.001,1.946,1.9736,2.0001,1.942,1.9736,1.9962,1.942,1.9301,1.9301,1.9301,1.9301,1.9301,1.9301,1.9301,1.9301,1.9301,1.9301,1.9301,1.9301,1.9329,1.9494,1.9847,1.9939,2.031,2.1044,2.0769,2.0723,2.1126,2.1154,2.1328,2.1678,2.1696,2.1454,2.0952,2.0464,2.0201,2.0201,1.9737,1.9279,1.8781,1.8781,1.8781,1.4557,0.0,1.6669,1.7257,1.7875,1.8429,0.0,1.8987,1.8987,1.8987,1.8987,1.8987,1.8987,1.8987,1.9119,1.9555,2.0177,2.0935,2.1873,0.0,0.0,2.6042,2.5804,2.5861,2.6735,2.6427,2.6198,2.6198,2.6198,2.6047,2.5721,2.6013,2.6047,2.5721,2.6289,2.6701,2.7007,2.6139,2.5664,2.5564,2.4496,2.3589,2.2823,2.1809,2.1285,2.1221,2.0892,2.0871,2.1031,2.0743,2.0603,2.0582,2.0237,2.0118,2.0118,2.0118,2.0118,2.0118,2.0118,1.9835,1.9472,1.9366,1.9229,1.9163,1.9331,1.9524,1.9687,1.9536,1.9499,1.9499,1.9341,1.942,1.9499,1.9341,1.942,1.946,1.9341,1.9301,1.9301,1.9301,1.9301,1.9301,1.9301,1.9301,1.9301,1.9301,1.9301,1.9301,1.9301,1.9586,1.9783,1.9875,2.0466,2.0906,2.1089,2.1016,2.1145,2.1522,2.1549,2.1586,2.1687,2.1696,2.1329,2.0464,1.96,1.915,1.915,1.905,1.892,1.8781,1.8781,1.8781,1.3821,1.4737,1.5896,1.671,1.7373,1.8042,1.8821,1.8987,1.8987,1.8987,1.8987,1.8987,1.8987,1.9191,1.9444,0.0,2.0454,0.0,0.0,0.0,2.5092,2.5697,2.5488,2.5546,0.0,2.5978,2.5804,2.5804,2.5804,2.5629,2.5312,2.5629,2.5629,2.5312,2.5629,2.5943,2.6208,2.5616,2.5187,2.4995,2.4001,2.3077,2.2199,2.1323,2.0839,2.069,2.0646,2.0732,2.0903,2.07,2.0603,2.0582,2.0237,2.0118,2.0118,2.0118,2.0118,2.0042,1.9835,1.9386,1.8916,1.879,1.8809,1.8915,1.9108,1.9248,1.9406,1.9316,1.9301,1.9301,1.9301,1.9301,1.9301,1.9301,1.9301,1.9301,1.9301,1.9301,1.9301,1.9301,1.9301,1.9301,1.9301,1.9301,1.9301,1.9301,1.9301,1.9366,1.9567,1.9787,2.0031,2.0387,2.0851,2.1181,2.1383,2.1392,2.1449,2.1678,2.1696,2.1696,2.1696,2.1696,2.1239,2.0337,1.9554,1.9058,1.8781,1.8781,1.8781,1.8781,1.8781,1.8781,1.3408,1.4139,1.5185,1.6308,1.698,1.7653,1.8761,1.8987,1.8987,1.8987,1.8987,1.9011,1.9122,1.948,0.0,0.0,0.0,0.0,2.3722,2.4711,2.5335,2.5418,2.5347,0.0,2.5418,2.5347,2.5312,2.5312,2.5312,2.5312,2.5312,2.5312,2.5312,2.5312,2.5312,2.5312,2.5312,2.5228,2.4892,2.4296,2.3467,2.2605,2.169,2.102,2.0485,2.0205,2.055,2.0667,2.0603,2.0603,2.0571,2.0518,2.0205,2.0118,2.0074,2.0009,1.9976,1.99,1.9276,1.8818,1.8442,1.8318,1.8545,1.8862,1.8793,1.9036,1.9301,1.9301,1.9301,1.9301,1.9301,1.9301,1.9301,1.9301,1.9301,1.9301,1.9301,1.9301,1.9301,1.9301,1.9301,1.9301,1.9301,1.9301,1.932,1.9384,1.9393,1.9549,1.993,2.0031,2.0323,2.1034,2.1163,2.1346,2.1659,2.1696,2.1696,2.1696,2.1696,2.1696,2.1696,2.1553,2.1105,2.0337,1.9737,1.9234,1.8781,1.8781,1.8781,1.8781,1.8781,1.8781,1.3003,1.3745,1.4822,1.6258,1.6662,1.7141,1.8643,1.8987,1.8987,1.8987,1.8987,1.9158,1.9603,1.9748,2.0109,0.0,0.0,2.364,0.0,0.0,2.5488,2.6013,0.0,2.5488,2.6013,2.5594,2.5312,2.5312,2.5312,2.5312,2.5312,2.5312,2.5312,2.5312,2.5312,2.5312,2.5312,2.4867,2.4203,2.3376,2.2848,2.1974,2.0812,2.1001,2.0903,2.055,2.0935,2.0903,2.0603,2.0603,2.0421,2.0172,2.0107,2.0118,2.0042,1.9584,1.9408,1.9276,1.8273,1.81,1.8302,1.8173,1.8405,1.8802,1.913,1.9256,1.9301,1.9301,1.9301,1.9301,1.9301,1.9301,1.9301,1.9301,1.9301,1.9301,1.9301,1.9301,1.9301,1.9301,1.9301,1.9301,1.9301,1.9301,1.9421,1.9778,1.9793,1.9939,2.0374,2.0723,2.097,2.1099,2.1385,2.1623,2.1687,2.1696,2.1696,2.1696,2.1696,2.1696,2.1696,2.0925,2.0428,2.0292,1.9371,1.8874,1.8781,1.8781,1.8781,1.8781,1.8781,1.8781,1.2837,1.3407,1.4297,1.5832,1.6647,1.7405,1.8708,1.8987,1.8987,1.8987,1.8987,1.9143,1.9712,0.0,2.067,2.2041,0.0,2.3974,2.4412,2.4975,2.5418,0.0,0.0,2.5418,2.5699,2.5453,2.5312,2.5312,2.5312,2.5312,2.5312,2.5312,2.5312,2.5312,2.5312,2.5312,2.5312,2.43,2.3607,2.3203,2.2509,2.1737,2.0935,2.0679,2.0614,2.0603,2.0614,2.0485,2.0335,2.0335,2.0237,2.0118,2.0118,1.99,1.9584,1.9077,1.8667,1.8405,1.8129,1.7957,1.7947,1.8303,1.8568,1.8788,1.9182,1.9301,1.9301,1.9301,1.9301,1.9301,1.9301,1.9301,1.9301,1.9301,1.9301,1.9301,1.9301,1.9301,1.9301,1.9301,1.9301,1.9301,1.9301,1.9494,1.9705,1.9857,2.0076,2.0393,2.0787,2.0998,2.12,2.142,2.1577,2.1696,2.1696,2.1696,2.1696,2.1696,2.1696,2.1597,2.132,2.0916,2.0464,1.992,1.9463,1.9104,1.8781,1.8781,1.8781,1.8781,1.8781,1.8781,1.291,1.3431,1.4205,1.5697,1.6673,1.7589,1.8735,1.8987,1.9049,1.9143,1.9206,1.9399,0.0,2.0718,0.0,2.3111,2.3722,2.4121,2.4638,2.5059,2.5312,2.5312,2.5312,2.5312,2.5312,2.5312,2.5312,2.5312,2.5312,2.5312,2.5312,2.5312,2.5312,2.5312,2.5312,2.5276,2.5182,2.3857,2.3169,2.3056,2.2073,2.1352,2.0946,2.0432,2.0291,2.0485,2.0291,2.0172,2.0118,2.0118,2.0118,2.0085,1.9976,1.9528,1.8877,1.8465,1.8037,1.77,1.8005,1.7965,1.788,1.8513,1.8779,1.8907,1.921,1.9301,1.9301,1.9301,1.9301,1.9301,1.9301,1.9301,1.9301,1.9301,1.9301,1.9301,1.9301,1.9301,1.9301,1.9301,1.9301,1.9329,1.943,1.9714,1.9948,2.0131,2.0424,2.0805,2.12,2.1255,2.1383,2.1659,2.1696,2.1651,2.1553,2.1553,2.1508,2.1374,2.1374,2.1186,2.0862,2.0727,2.0311,1.9592,1.9463,1.9234,1.8781,1.8781,1.8781,1.8781,1.8781,1.8781,1.335,1.4174,1.5175,1.6275,1.6614,1.7088,1.8643,1.8987,1.9131,1.9652,1.9748,2.0073,0.0,2.2125,2.3159,2.423,2.4412,2.465,2.518,0.0,2.5312,2.5312,2.5312,2.5312,2.5312,2.5312,2.5312,2.5312,2.5312,2.5312,2.5312,2.5312,2.5312,2.5312,2.5312,2.5147,2.4825,2.3732,2.3023,2.2729,2.1337,2.0519,2.0183,2.0453,2.0421,2.014,2.0453,2.0388,2.0118,2.0118,2.0118,2.0042,1.9551,1.8744,1.7808,1.7774,1.7644,1.7521,1.7558,1.8027,1.8632,1.8687,1.8962,1.9265,1.9292,1.9301,1.9301,1.9301,1.9301,1.9301,1.9301,1.9301,1.9301,1.9301,1.9301,1.9301,1.9301,1.9301,1.9301,1.9301,1.9301,1.943,1.9774,1.9866,2.0131,2.0915,2.1044,2.1218,2.1595,2.165,2.1659,2.1687,2.1696,2.1508,2.1087,2.1042,2.0862,2.0428,2.0382,2.0382,2.0337,1.992,1.9691,1.9592,1.9096,1.8827,1.8781,1.8781,1.8781,1.8781,1.8781,1.8781,1.3242,1.424,1.5269,1.633,1.7071,1.7783,1.878,1.8987,1.9143,1.97,1.9808,0.0,0.0,0.0,2.3316,2.435,2.4484,2.4699,2.524,2.5312,2.5312,2.5312,2.5312,2.5312,2.5312,2.5312,2.5312,2.5312,2.5312,2.5312,2.5312,2.5312,2.5312,2.5312,2.5123,2.4921,2.479,2.3537,2.2843,2.2684,2.1543,2.0903,2.0775,2.0679,2.0518,2.0421,2.0324,2.0205,2.0118,2.0118,2.0118,2.0009,1.9144,1.8341,1.7701,1.7621,1.7535,1.7568,1.8073,1.8458,1.8751,1.8999,1.9182,1.9301,1.9301,1.9301,1.9301,1.9301,1.9301,1.9301,1.9301,1.9301,1.9301,1.9301,1.9301,1.9301,1.9301,1.9301,1.9301,1.9301,1.9512,1.9701,1.9866,2.0296,2.0769,2.1062,2.1056,2.1193,2.1624,2.1195,2.0916,2.1221,2.1006,2.0744,2.06,2.032,2.0048,1.9874,2.0155,2.0155,1.9874,1.9683,1.9463,1.9104,1.892,1.8781,1.8781,1.8781,1.8781,1.8781,1.8781,1.8781,1.3576,1.435,1.5101,1.6675,1.7463,1.8011,1.8827,1.9119,1.9396,1.9925,2.047,2.1205,2.245,0.0,0.0,0.0,2.4736,2.4891,2.5264,2.5312,2.5312,2.5312,2.5312,2.5312,2.5312,2.5312,2.5312,2.5312,2.5312,2.5312,2.5312,2.5312,2.5312,2.5312,2.4957,2.4754,2.461,2.3236,2.2571,2.265,2.1673,2.1126,2.0999,2.0743,2.055,2.0421,2.0205,2.0118,2.0085,1.99,1.9671,1.9264,1.8543,1.7988,1.7634,1.7528,1.766,1.7963,1.8513,1.8788,1.8944,1.9219,1.9301,1.9301,1.9301,1.9301,1.9301,1.9301,1.9301,1.9262,1.9152,1.9183,1.9301,1.9301,1.9183,1.9112,1.9112,1.8993,1.894,1.9066,1.9317,1.9546,1.9805,2.0289,2.0718,2.0844,2.0829,2.0916,2.1239,2.0699,2.0419,2.0736,2.051,2.0246,2.0102,1.9783,1.9554,1.9371,1.9646,1.9691,1.9371,1.9371,1.9188,1.8827,1.8781,1.8781,1.8781,1.8781,1.8781,1.8781,1.8781,1.8781,1.4481,1.4572,1.4757,1.7436,1.7644,1.7534,1.8747,1.9435,1.9937,2.0514,2.1873,2.3168,2.371,2.4181,0.0,2.5216,2.5312,2.5312,2.5312,2.5312,2.5312,2.5312,2.5312,2.5312,2.5312,2.5312,2.5312,2.5312,2.5312,2.5312,2.5312,2.5312,2.5312,2.5312,2.4957,2.461,2.42,2.2887,2.2343,2.2593,2.164,2.0999,2.0614,2.0614,2.0421,2.0074,2.0074,2.0085,2.0042,1.9518,1.8677,1.7716,1.7716,1.7628,1.7504,1.7504,1.8018,1.8715,1.8715,1.8971,1.9301,1.9301,1.9301,1.9301,1.9301,1.9301,1.9301,1.9301,1.9301,1.9183,1.8812,1.9002,1.9301,1.9301,1.9002,1.87,1.87,1.8331,1.8111,1.8519,1.8588,1.8845,1.9571,1.97,1.9828,2.024,2.0292,2.0292,2.0292,2.0292,2.0292,2.0292,2.0292,2.011,1.9646,1.9592,1.9371,1.8827,1.8781,1.8781,1.8781,1.8781,1.8781,1.8781,1.8781,1.8781,1.8781,1.8781,1.8781,1.8781,1.8781,1.8781,1.3898,1.4851,1.5688,1.7126,1.7984,1.8669,1.9401,1.97,2.0073,2.0971,2.2137,2.3168,2.371,2.4181,0.0,2.5216,2.5312,2.5312,2.5312,2.5312,2.5312,2.5312,2.5312,2.5312,2.5312,2.5312,2.5312,2.5312,2.5312,2.5312,2.5312,2.5312,2.5312,2.5312,2.4694,2.4309,2.42,2.344,2.2891,2.2605,2.2271,2.1739,2.1031,2.1031,2.0474,1.9551,1.9551,1.932,1.8944,1.8811,1.8476,1.8104,1.8104,1.8026,1.7972,1.8247,1.8504,1.8751,1.9026,1.9201,1.9301,1.9301,1.9112,1.8891,1.8891,1.8891,1.8891,1.8891,1.8891,1.8931,1.9073,1.8754,1.8393,1.8393,1.8571,1.862,1.8282,1.8327,1.8459,1.8562,1.9025,1.9426,1.9657,1.9913,2.0163,2.0275,2.0011,1.9691,1.9288,1.9554,1.9646,1.9288,1.9234,1.9196,1.9058,1.905,1.8966,1.8827,1.8781,1.8781,1.8781,1.8781,1.8781,1.8781,1.8781,1.8781,1.8781,1.8781,1.8781,1.8781,1.8781,1.8781,1.3945,1.4982,1.5871,1.7207,1.8093,1.8898,1.9881,2.0273,2.067,0.0,2.2558,2.3421,2.3746,2.435,0.0,2.5252,2.5312,2.5312,2.5312,2.5312,2.5312,2.5312,2.5312,2.5312,2.5312,2.5312,2.5312,2.5312,2.5312,2.5312,2.5312,2.5182,2.5147,2.5312,2.4575,2.4273,2.4454,2.3624,2.2993,2.265,2.2235,2.1565,2.0635,2.0635,2.0139,1.9299,1.9067,1.8677,1.8182,1.835,1.824,1.7996,1.8165,1.8276,1.8385,1.8623,1.8815,1.8981,1.9219,1.9301,1.9301,1.9301,1.9042,1.87,1.87,1.858,1.8411,1.8411,1.8411,1.8442,1.8514,1.8273,1.804,1.8241,1.804,1.7831,1.7942,1.7813,1.7834,1.8377,1.8844,1.9201,1.9306,1.955,1.97,1.97,1.9463,1.9188,1.8827,1.9096,1.9142,1.8827,1.8781,1.8781,1.8781,1.8781,1.8781,1.8781,1.8781,1.8781,1.8781,1.8781,1.8781,1.8781,1.8781,1.8781,1.8781,1.8781,1.8781,1.8781,1.8781,1.8781,1.4215,1.4946,1.5558,1.7488,1.8093,1.8674,2.0227,2.1019,2.1572,2.2149,0.0,2.3818,2.3866,2.465,2.5312,2.5312,2.5312,2.5312,2.5312,2.5312,2.5312,2.5312,2.5312,2.5312,2.5312,2.5312,2.5312,2.5312,2.5312,2.5276,2.5276,2.4992,2.4957,2.5241,2.4622,2.4418,2.479,2.3658,2.2921,2.2662,2.1891,2.093,1.9833,1.9813,1.9573,1.9133,1.8617,1.8129,1.7724,1.811,1.8026,1.7642,1.8027,1.8421,1.876,1.876,1.899,1.9301,1.9301,1.9301,1.9301,1.9262,1.8962,1.862,1.858,1.8282,1.7959,1.7959,1.7959,1.7878,1.7554,1.7635,1.7919,1.8371,1.7424,1.666,1.7569,1.6989,1.6733,1.8042,1.8327,1.8446,1.8772,1.8781,1.8781,1.8781,1.8781,1.8781,1.8781,1.8781,1.8781,1.8781,1.8781,1.8781,1.8781,1.8781,1.8781,1.8781,1.8781,1.8781,1.8781,1.8781,1.8781,1.8781,1.8781,1.8781,1.8781,1.8781,1.8781,1.8781,1.8781,1.8781,1.3021,1.4493,1.5913,1.6716,1.8186,1.9642,2.0437,2.1019,2.1668,2.2618,2.336,2.3926,2.429,2.4879,2.5312,2.5312,2.5312,2.5312,2.5312,2.5312,2.5312,2.5312,2.5312,2.5312,2.5312,2.5312,2.5312,2.5312,2.5312,2.5182,2.4921,2.5087,2.5123,2.4921,2.4754,2.4718,2.479,2.4541,2.3764,2.2557,2.2351,2.1504,2.0093,1.9903,1.9177,1.8022,1.7808,1.7642,1.7572,1.7999,1.8239,1.8458,1.855,1.8825,1.9173,1.9173,1.9228,1.9301,1.9301,1.9301,1.9262,1.8922,1.8523,1.808,1.7797,1.7595,1.7514,1.7514,1.7514,1.7595,1.7797,1.7049,1.6312,1.6763,1.664,1.6454,1.6592,1.6652,1.6991,1.8082,1.8526,1.874,1.8765,1.8781,1.8781,1.8781,1.8781,1.8781,1.8781,1.8781,1.8781,1.8781,1.8781,1.8781,1.8781,1.8781,1.8781,1.8781,1.8781,1.8781,1.8781,1.8781,1.8781,1.8781,1.8781,1.8781,1.8781,1.8781,1.8781,1.8781,1.8781,1.8781,1.2661,1.4158,1.5765,1.7004,1.8267,1.9475,2.0401,2.071,2.1242,2.2714,2.3433,2.3878,2.4109,2.4795,2.5312,2.5312,2.5312,2.5312,2.5312,2.5312,2.5312,2.5312,2.5312,2.5312,2.5312,2.5312,2.5312,2.5312,2.5312,2.5206,2.5052,2.5052,2.5052,2.5052,2.4897,2.4897,2.5052,2.4394,2.3541,2.2499,2.1814,2.0834,1.9555,1.9414,1.8839,1.7879,1.7815,1.7798,1.7825,1.8238,1.8522,1.8733,1.8916,1.9118,1.9301,1.9301,1.9301,1.9301,1.9301,1.9183,1.8962,1.8772,1.825,1.7676,1.7473,1.7229,1.6984,1.6689,1.6607,1.6558,1.6468,1.5809,1.5229,1.5289,1.5283,1.5418,1.5879,1.6234,1.6809,1.7834,1.8417,1.8781,1.8781,1.8781,1.8781,1.8781,1.8781,1.8781,1.8781,1.8781,1.8781,1.8781,1.8781,1.8781,1.8781,1.8781,1.8781,1.8781,1.8781,1.8781,1.8781,1.8781,1.8781,1.8781,1.8781,1.8781,1.8781,1.8781,1.8781,1.8781,1.8781,1.892,1.2455,1.3811,1.5468,1.7378,1.8182,1.8818,1.9954,2.0192,2.0624,2.2214,2.3235,2.383,2.3914,2.4675,2.5312,2.5312,2.5312,2.5312,2.5312,2.5312,2.5312,2.5312,2.5312,2.5312,2.5312,2.5312,2.5312,2.5312,2.5312,2.5276,2.5206,2.5016,2.4992,2.5218,2.4957,2.4873,2.504,2.3877,2.2934,2.2176,2.0863,1.9759,1.8984,1.8984,1.8648,1.8091,1.8155,1.8191,1.8219,1.865,1.8815,1.8843,1.9173,1.9301,1.9301,1.9301,1.9301,1.9301,1.9222,1.8962,1.87,1.8531,1.8008,1.7351,1.7188,1.6861,1.6402,1.5733,1.5526,1.5401,1.4859,1.465,1.4499,1.4189,1.4057,1.4325,1.5277,1.5749,1.6327,1.7485,1.8303,1.8781,1.8781,1.8781,1.8781,1.8781,1.8781,1.8781,1.8781,1.8781,1.8781,1.8781,1.8781,1.8781,1.8781,1.8781,1.8781,1.8781,1.8781,1.8781,1.8781,1.8781,1.8781,1.8781,1.8781,1.8781,1.8781,1.8781,1.8781,1.8781,1.8874,1.9188,1.1623,1.3361,1.529,1.6512,1.7503,1.8253,0.0,0.0,2.0241,0.0,2.2388,2.3938,2.4338,2.4915,2.5312,2.5312,2.5312,2.5312,2.5312,2.5312,2.5312,2.5312,2.5312,2.5312,2.5312,2.5312,2.5312,2.5312,2.5312,2.5182,2.4897,2.5123,2.5111,2.4861,2.4825,2.4539,2.4,2.3537,2.2542,2.1016,1.9945,1.9388,1.9254,1.9254,1.8847,1.8109,1.8485,1.8632,1.8669,1.9063,1.9219,1.9228,1.9283,1.9301,1.9301,1.9301,1.9301,1.9262,1.8891,1.8732,1.858,1.7806,1.7473,1.7229,1.6229,1.5858,1.5692,1.5026,1.4817,1.4817,1.4734,1.4426,1.4152,1.4104,1.4,1.4127,1.4903,1.5121,1.565,1.7392,1.8303,1.8781,1.8781,1.8781,1.8781,1.8781,1.8781,1.8781,1.8781,1.8781,1.8781,1.8781,1.8781,1.8781,1.8781,1.8781,1.8781,1.8781,1.8781,1.8781,1.8781,1.8781,1.8781,1.8781,1.8781,1.8781,1.8781,1.8781,1.8781,1.8827,1.9279,1.9546,1.2064,1.3482,1.4877,1.5866,1.6988,1.8011,1.8578,1.9228,1.9894,2.0561,2.1714,2.2852,2.3627,2.4209,2.4718,2.5228,2.5312,2.5312,2.5312,2.5312,2.5312,2.5312,2.5312,2.5312,2.5312,2.5312,2.5312,2.5312,2.5312,2.5241,2.5087,2.4802,2.4576,2.4407,2.3852,2.3427,2.3147,2.2301,2.125,1.9952,1.949,1.9301,1.9301,1.9301,1.9118,1.8788,1.8971,1.9045,1.9054,1.9228,1.9301,1.9301,1.9301,1.9301,1.9301,1.9301,1.9301,1.9222,1.8851,1.8531,1.821,1.7603,1.6984,1.6353,1.5858,1.5443,1.4985,1.4321,1.4153,1.4108,1.3847,1.3679,1.3629,1.3935,1.3915,1.4036,1.4512,1.492,1.5705,1.7382,1.7971,1.8303,1.8735,1.8781,1.8781,1.8781,1.8781,1.8781,1.8781,1.8781,1.8781,1.8781,1.8781,1.8781,1.8781,1.8781,1.8781,1.8781,1.8781,1.8781,1.8781,1.8781,1.8781,1.8781,1.8781,1.8781,1.8781,1.8781,1.8781,1.8827,1.9371,1.9737,1.2119,1.3156,1.4164,1.4952,1.6158,1.7379,0.0,0.0,1.9343,0.0,2.0791,2.1556,2.2519,2.3242,2.3943,2.4708,2.4897,2.5015,2.5158,2.5241,2.5312,2.5312,2.5312,2.5312,2.5312,2.5312,2.5312,2.5312,2.5312,2.5312,2.5312,2.4528,2.4108,2.4108,2.3036,2.2403,2.2215,2.1019,2.0031,1.9301,1.9301,1.9301,1.9301,1.9301,1.9301,1.9301,1.9301,1.9301,1.9301,1.9301,1.9301,1.9301,1.9301,1.9301,1.9301,1.9301,1.9222,1.9073,1.8482,1.7951,1.7505,1.6894,1.6147,1.5401,1.5235,1.4859,1.4314,1.3646,1.3491,1.3471,1.3204,1.3224,1.3423,1.3809,1.396,1.4057,1.4256,1.4867,1.5717,1.6889,1.7451,1.7878,1.845,1.8542,1.8589,1.8781,1.8504,1.8311,1.8496,1.8542,1.8542,1.8542,1.8689,1.8781,1.8781,1.8781,1.8781,1.8781,1.8781,1.8781,1.8781,1.8781,1.8874,1.9012,1.8874,1.8781,1.8781,1.892,1.9012,1.9004,1.9637,2.0138,1.0975,1.1866,1.2909,1.3492,1.4712,1.5915,0.0,0.0,1.8457,1.8502,1.931,2.0256,2.1146,2.2097,2.2948,2.3479,2.3851,2.4237,2.4755,2.5123,2.5312,2.5312,2.5312,2.5312,2.5312,2.5312,2.5312,2.5312,2.5312,2.5312,2.5312,2.4528,2.4108,2.4108,2.2835,2.1821,2.1173,1.9991,1.9341,1.9301,1.9301,1.9301,1.9301,1.9301,1.9301,1.9301,1.9301,1.9301,1.9301,1.9301,1.9301,1.9301,1.9301,1.9301,1.9301,1.9301,1.9073,1.8571,1.7448,1.6837,1.6312,1.5193,1.4817,1.4608,1.3984,1.3779,1.3603,1.2918,1.2941,1.3153,1.3121,1.3495,1.3876,1.39,1.4093,1.428,1.4292,1.4867,1.5432,1.548,1.6702,1.7692,1.7738,1.7738,1.7971,1.8689,1.7613,1.6958,1.7692,1.7738,1.7738,1.7738,1.8396,1.8781,1.8781,1.8781,1.8781,1.8781,1.8781,1.8781,1.8781,1.8781,1.905,1.9554,1.905,1.8781,1.8781,1.9325,1.9546,1.9592,2.0501,2.0952,1.0819,1.1559,0.0,1.2973,1.4286,1.5481,1.5669,1.6557,1.7437,1.785,1.8239,1.8723,1.9452,2.0855,2.2127,2.2868,2.3086,2.3293,2.3709,2.4188,2.4564,2.4772,2.5107,2.5312,2.5312,2.5312,2.5312,2.5312,2.5312,2.5312,2.5312,2.4095,2.3305,2.3147,2.1555,2.0459,1.9952,1.9529,1.9301,1.9301,1.9301,1.9301,1.9301,1.9301,1.9301,1.9301,1.9301,1.9301,1.9301,1.9301,1.9301,1.9301,1.9301,1.9301,1.9262,1.9002,1.8545,1.7925,1.696,1.6221,1.5643,1.4943,1.4405,1.4026,1.3779,1.3392,1.304,1.2965,1.3049,1.3155,1.3538,1.3767,1.3948,1.4117,1.4226,1.4298,1.4298,1.4532,1.4819,1.5289,1.6244,1.7138,1.7598,1.7692,1.7785,1.8064,1.7232,1.6864,1.7598,1.7692,1.7878,1.835,1.8643,1.8781,1.8781,1.8781,1.8781,1.8781,1.8781,1.8958,1.9279,1.9325,1.9554,2.0056,1.9874,1.9745,1.9745,1.9646,1.9729,2.0056,2.0682,2.0997,1.0615,1.1145,1.1766,0.0,1.356,1.457,1.5154,0.0,1.6406,1.709,1.7371,1.7643,1.8262,1.9416,2.0598,2.1665,2.207,2.2455,2.2944,2.344,2.3857,2.4232,2.4578,2.4855,2.5023,2.5035,2.5119,2.53,2.5312,0.0,2.5312,2.3841,2.2611,2.1735,2.0469,1.9627,1.9301,1.9301,1.9301,1.9301,1.9301,1.9301,1.9301,1.9301,1.9301,1.9301,1.9301,1.9301,1.9301,1.9301,1.9301,1.9301,1.9301,1.9301,1.9222,1.8594,1.7965,1.7302,1.6124,1.5345,1.4734,1.4181,1.3724,1.3349,1.3349,1.3114,1.2886,1.3029,1.3254,1.3465,1.3815,1.3972,1.4081,1.4256,1.4298,1.4298,1.4298,1.4298,1.4532,1.5248,1.5818,1.6433,1.7178,1.7131,1.703,1.7271,1.6669,1.648,1.7225,1.7552,1.7878,1.8396,1.8635,1.8781,1.8781,1.8781,1.8781,1.8781,1.8966,1.9234,1.96,1.9737,2.0056,2.051,2.0374,2.0473,2.0789,2.0283,2.0229,2.0555,2.1006,2.1221,0.0,0.0,0.0,0.0,0.0,0.0,1.4589,0.0,1.5442,1.6113,1.6614,1.7082,1.7555,1.782,1.8394,1.9792,2.0775,2.1632,2.2502,2.2932,2.3325,2.3703,2.3794,2.3965,2.4412,2.446,2.4711,2.5228,2.5276,2.5288,2.5252,2.3793,2.201,1.9981,1.9715,1.9518,1.9301,1.9301,1.9301,1.9301,1.9301,1.9301,1.9301,1.9301,1.9301,1.9301,1.9301,1.9301,1.9301,1.9301,1.9301,1.9301,1.9301,1.9262,1.9134,1.8069,1.7342,1.6657,1.4991,1.409,1.3561,1.2918,1.2705,1.2705,1.2711,1.291,1.3083,1.3101,1.3513,1.3912,1.3918,1.4105,1.4298,1.4298,1.4298,1.4298,1.4298,1.4298,1.4532,1.5242,1.5391,1.5629,1.644,1.5913,1.5676,1.644,1.5913,1.5676,1.6487,1.7232,1.7692,1.7738,1.8357,1.8781,1.8781,1.8781,1.8827,1.8827,1.9325,1.9592,1.9637,2.0056,2.0555,2.0997,2.0555,2.0789,2.1696,2.1221,2.0997,2.1042,2.1508,2.1696,1.0283,0.0,0.0,0.0,0.0,0.0,0.0,0.0,1.4371,1.5181,1.5389,1.5654,1.6409,1.6783,1.7234,1.7961,1.9141,2.0112,2.0617,2.1575,2.2298,2.2397,2.3257,2.3754,2.3572,2.3831,2.4071,0.0,2.453,2.4492,2.3956,2.2455,2.1106,1.9942,1.9548,1.9341,1.9301,1.9301,1.9301,1.9301,1.9301,1.9301,1.9301,1.9301,1.9301,1.9301,1.9301,1.9301,1.9301,1.9301,1.9301,1.9301,1.9301,1.8847,1.8069,1.7432,1.6314,1.4991,1.4181,1.3512,1.296,1.2747,1.2705,1.2741,1.2946,1.3017,1.3155,1.3586,1.3797,1.3948,1.4141,1.4244,1.4298,1.4298,1.4298,1.4298,1.4298,1.4298,1.4346,1.458,1.5057,1.5486,1.5676,1.5534,1.548,1.5724,1.5527,1.5676,1.6487,1.7232,1.7878,1.845,1.8681,1.8781,1.8781,1.8781,1.8966,1.9371,1.9509,1.9911,2.0591,2.0727,2.1051,2.1508,2.1374,2.1419,2.1696,2.1221,2.1177,2.1508,2.1642,2.1696,1.0303,1.0419,1.0582,1.0839,0.0,0.0,0.0,0.0,0.0,0.0,1.4529,1.4779,1.5449,1.5848,1.6236,1.6717,1.7599,1.8505,1.9212,1.9981,2.0597,2.0928,2.1911,2.2686,2.2895,2.3239,2.3565,2.3782,2.379,2.3329,2.2369,2.1534,2.0682,1.9784,1.946,1.9301,1.9301,1.9301,1.9301,1.9301,1.9301,1.9301,1.9301,1.9301,1.9301,1.9301,1.9301,1.9301,1.9262,1.8895,1.8975,1.9262,1.8895,1.8318,1.7577,1.6437,1.5323,1.428,1.3548,1.3045,1.2705,1.2705,1.2783,1.291,1.3029,1.3278,1.3513,1.3821,1.3984,1.4105,1.4256,1.4298,1.4298,1.4298,1.4298,1.4298,1.4298,1.4298,1.4394,1.4723,1.4867,1.5057,1.5343,1.5146,1.5057,1.5343,1.5676,1.6197,1.6951,1.7699,1.8303,1.8735,1.8781,1.8781,1.8781,1.9012,1.9279,1.9592,1.9957,2.0411,2.0997,2.1177,2.141,2.1687,2.1696,2.1696,2.1696,2.1419,2.141,2.1696,2.1696,2.1696,1.0312,1.0303,1.0391,1.0742,0.0,0.0,0.0,0.0,0.0,0.0,1.3881,1.4221,1.4642,1.4991,1.536,1.5818,1.6163,1.6808,1.8121,1.8371,1.8666,1.9337,2.0133,2.0997,2.1999,2.2371,2.281,2.3346,2.276,2.1913,2.0868,2.0853,2.0488,1.9645,1.939,1.9301,1.9301,1.9301,1.9301,1.9301,1.9301,1.9301,1.9301,1.9301,1.9301,1.9301,1.9183,1.9143,1.9094,1.8198,1.8367,1.9054,1.8158,1.7626,1.7163,1.5316,1.449,1.4077,1.3039,1.2705,1.2711,1.2741,1.2922,1.3089,1.3149,1.3538,1.3912,1.3942,1.4117,1.4298,1.4298,1.4298,1.4298,1.4298,1.4298,1.4298,1.4298,1.4298,1.4484,1.5153,1.4771,1.4532,1.5153,1.4819,1.4627,1.5296,1.615,1.6958,1.7598,1.8357,1.8781,1.8781,1.8781,1.8827,1.8874,1.9325,1.9637,1.9729,2.0546,2.1042,2.1087,2.1454,2.1696,2.1696,2.1696,2.1696,2.1696,2.1696,2.1696,2.1696,2.1696,2.1696,0.0,0.0,0.0,0.0,0.0,0.0,0.0,0.0,0.0,0.0,1.2984,1.3157,1.3944,1.4037,1.4186,1.4646,1.4746,1.5303,1.6897,1.7613,0.0,0.0,0.0,0.0,1.9393,1.9743,2.0207,2.0773,2.0494,2.046,2.0774,2.0066,1.9639,1.9587,1.939,1.9301,1.9301,1.9301,1.9301,1.9301,1.9301,1.9301,1.9301,1.9301,1.9301,1.9262,1.8567,1.8238,1.8198,1.731,1.7472,1.8158,1.7139,1.6142,1.5233,1.4657,1.3866,1.2997,1.279,1.2705,1.2741,1.297,1.3079,1.3155,1.3628,1.3827,1.3954,1.4159,1.4256,1.4298,1.4298,1.4298,1.4298,1.4298,1.4298,1.4298,1.4298,1.4298,1.434,1.4484,1.4388,1.4346,1.4484,1.4867,1.5242,1.5391,1.6608,1.7552,1.7692,1.8357,1.8781,1.8781,1.8781,1.8958,1.9417,1.9546,1.9911,2.0682,2.0907,2.1177,2.1553,2.1642,2.1696,2.1696,2.1696,2.1696,2.1696,2.1696,2.1696,2.1696,2.1696,2.1696,0.0,0.0,0.0,1.0303,0.0,0.0,0.0,0.0,0.0,0.0,0.0,1.2566,1.3141,1.3396,1.3633,1.4065,1.4082,1.4314,0.0,0.0,0.0,0.0,0.0,0.0,1.8228,1.8561,1.8815,1.8996,1.9344,1.948,1.9311,1.9202,1.9153,1.9134,1.924,1.9301,1.9301,1.9301,1.9301,1.9301,1.9301,1.9301,1.9301,1.9301,1.9301,1.9262,1.8856,1.8399,1.7917,1.7058,1.6698,1.6657,1.5944,1.5282,1.4615,1.3999,1.3294,1.2705,1.2705,1.2795,1.2934,1.3079,1.3302,1.3562,1.3827,1.3996,1.4129,1.4262,1.4298,1.4298,1.4298,1.4298,1.4298,1.4298,1.4298,1.4298,1.4298,1.4394,1.4442,1.4346,1.4394,1.4442,1.4346,1.4914,1.5527,1.5961,1.7178,1.8195,1.8619,1.918,1.9563,1.9563,1.9563,1.9654,1.992,2.0138,2.0501,2.0988,2.123,2.1463,2.1687,2.1696,2.1696,2.1696,2.1696,2.1696,2.1696,2.1696,2.1696,2.1696,2.1696,2.1696,0.0,0.0,0.0,0.0,0.0,1.0391,0.0,0.0,0.0,0.0,0.0,0.0,0.0,0.0,0.0,0.0,0.0,0.0,0.0,0.0,0.0,0.0,0.0,0.0,1.7318,1.7728,1.7885,1.7728,1.8496,1.8631,1.7827,1.849,1.8814,1.8705,1.91,1.9301,1.9301,1.9301,1.9301,1.9301,1.9301,1.9301,1.9301,1.9301,1.9301,1.9262,1.8935,1.8407,1.7674,1.6617,1.5801,1.5103,1.4845,1.4629,1.4336,1.3428,1.2924,1.2711,1.2765,1.2934,1.3139,1.3242,1.3598,1.3978,1.3978,1.4129,1.4298,1.4298,1.4298,1.4298,1.4298,1.4298,1.4298,1.4298,1.4298,1.4298,1.4298,1.4496,1.464,1.4442,1.4592,1.4736,1.4675,1.5283,1.6096,1.6951,1.8064,1.8988,1.9646,2.0056,2.0292,2.0292,2.0292,2.0337,2.0428,2.0772,2.1042,2.1132,2.1508,2.1696,2.1696,2.1696,2.1696,2.1696,2.1696,2.1696,2.1696,2.1696,2.1696,2.1696,2.1696,2.1696,0.0,0.0,0.0,0.0,1.0557,0.0,0.0,0.0,0.0,1.0898,0.0,0.0,0.0,0.0,0.0,0.0,0.0,0.0,0.0,0.0,0.0,0.0,0.0,0.0,0.0,1.636,1.6799,1.6992,1.722,1.7494,1.7763,1.8229,1.8527,1.8705,1.91,1.9301,1.9301,1.9301,1.9301,1.9301,1.9301,1.9301,1.9301,1.9301,1.9301,1.9222,1.7674,1.6944,1.6739,1.5068,1.4334,1.4208,1.3948,1.373,1.3519,1.3222,1.2924,1.2741,1.2988,1.3053,1.3155,1.3664,1.4014,1.425,1.425,1.4274,1.4298,1.4298,1.4298,1.4298,1.4298,1.4298,1.4298,1.4298,1.4298,1.4298,1.4298,1.4496,1.4688,1.464,1.4885,1.5261,1.5886,1.6586,1.7483,1.8734,1.9583,2.011,2.0201,2.0292,2.0292,2.0292,2.0292,2.0464,2.0907,2.0952,2.1177,2.1597,2.1687,2.1696,2.1696,2.1696,2.1696,2.1696,2.1696,2.1696,2.1696,2.1696,2.1696,2.1696,2.1696,2.1696,0.0,0.0,0.0,0.0,0.0,0.0,1.0703,0.0,1.0625,0.0,0.0,0.0,0.0,0.0,0.0,0.0,1.1741,0.0,0.0,0.0,0.0,0.0,0.0,0.0,0.0,0.0,0.0,0.0,1.6529,1.693,1.6945,1.752,1.8018,1.8319,1.8751,1.9072,1.9301,1.9301,1.9301,1.9301,1.9301,1.9301,1.9301,1.9301,1.9301,1.9262,1.8527,1.7634,1.6657,1.5925,1.5026,1.4088,1.3997,1.3695,1.3349,1.3009,1.2899,1.2964,1.3041,1.3276,1.364,1.4008,1.4208,1.4298,1.4298,1.4298,1.4298,1.4298,1.4298,1.4298,1.4298,1.4298,1.4298,1.4298,1.4442,1.4544,1.4544,1.4879,1.5302,1.5663,1.5954,1.6608,1.8079,1.7902,1.7909,1.901,2.0076,2.069,2.069,2.0916,2.1105,2.1105,2.1105,2.1195,2.1374,2.1419,2.1508,2.1696,2.1696,2.1696,2.1696,2.1696,2.1696,2.1696,2.1696,2.1696,2.1696,2.1696,2.1696,2.1696,2.1696,2.1696,1.3362,0.0,0.0,0.0,0.0,0.0,0.0,0.0,0.0,0.0,0.0,0.0,0.0,0.0,0.0,0.0,0.0,0.0,0.0,0.0,0.0,0.0,0.0,0.0,0.0,0.0,0.0,0.0,0.0,1.6435,1.6312,1.6963,1.7578,1.8072,1.8513,1.8898,1.9292,1.9301,1.9301,1.9301,1.9301,1.9301,1.9301,1.9301,1.9301,1.9301,1.9054,1.8078,1.6698,1.6453,1.5477,1.4088,1.3997,1.3832,1.3555,1.3157,1.3076,1.3227,1.3284,1.3634,1.4045,1.4238,1.4298,1.4298,1.4298,1.4298,1.4298,1.4298,1.4298,1.4298,1.4298,1.4346,1.4394,1.4394,1.4592,1.4879,1.5153,1.5581,1.6096,1.6868,1.725,1.7948,1.9704,1.9063,1.865,1.9749,2.0628,2.1177,2.1177,2.1508,2.1696,2.1696,2.1696,2.1696,2.1696,2.1696,2.1696,2.1696,2.1696,2.1696,2.1696,2.1696,2.1696,2.1696,2.1696,2.1696,2.1696,2.1696,2.1696,2.1696,2.1696,2.1696,0.0,0.0,0.0,1.288,0.0,0.0,0.0,0.0,1.0908,0.0,0.0,0.0,0.0,0.0,0.0,0.0,0.0,0.0,0.0,0.0,0.0,0.0,0.0,0.0,0.0,0.0,0.0,0.0,0.0,0.0,1.6276,1.6707,1.7293,1.8063,1.8513,1.8898,1.9292,1.9301,1.9301,1.9301,1.9301,1.9301,1.9301,1.9301,1.9301,1.9262,1.8407,1.7513,1.6617,1.5801,1.4908,1.4088,1.3822,1.3906,1.4154,1.3886,1.3667,1.3535,1.3792,1.4057,1.4286,1.4292,1.4298,1.4298,1.4298,1.4298,1.4298,1.4298,1.4298,1.4298,1.4298,1.449,1.4688,1.4688,1.4885,1.5356,1.6264,1.664,1.7163,1.8164,1.8549,1.9063,2.0113,2.0022,2.0257,2.1463,2.1642,2.1696,2.1696,2.1687,2.1696,2.1696,2.1696,2.1696,2.1696,2.1696,2.1696,2.1696,2.1696,2.1696,2.1696,2.1696,2.1696,2.1696,2.1696,2.1696,2.1696,2.1696,2.1696,2.1696,2.1696,2.1696,1.5049,1.4539,1.3992,1.3546,0.0,0.0,0.0,0.0,0.0,0.0,0.0,0.0,0.0,0.0,0.0,0.0,0.0,0.0,0.0,0.0,0.0,0.0,0.0,0.0,0.0,0.0,0.0,0.0,0.0,0.0,0.0,1.6294,1.6881,1.7688,1.8109,1.8513,1.8907,1.9173,1.9301,1.9301,1.9301,1.9301,1.9301,1.9301,1.9301,1.9262,1.8975,1.8037,1.6698,1.637,1.5518,1.4376,1.424,1.4418,1.4657,1.4013,1.3913,1.4056,1.4333,1.4613,1.4838,1.4838,1.4694,1.4544,1.4544,1.4442,1.4346,1.4496,1.4544,1.4592,1.479,1.4885,1.4981,1.4981,1.5635,1.6379,1.6695,1.749,1.8457,1.9467,1.9741,2.0121,2.1042,2.1132,2.123,2.1642,2.1696,2.1696,2.1696,2.1696,2.1696,2.1696,2.1696,2.1696,2.1696,2.1696,2.1696,2.1696,2.1696,2.1696,2.1696,2.1696,2.1696,2.1696,2.1696,2.1696,2.1696,2.1696,2.1696,2.1696,2.1696,2.1696,1.5845,1.5398,1.4817,1.4376,1.4134,0.0,1.3135,0.0,0.0,0.0,0.0,0.0,0.0,0.0,0.0,0.0,0.0,0.0,0.0,0.0,0.0,0.0,0.0,0.0,0.0,0.0,0.0,0.0,0.0,0.0,0.0,0.0,1.6459,1.7257,1.7834,1.8274,1.8705,1.91,1.9301,1.9301,1.9301,1.9301,1.9301,1.9301,1.9301,1.9262,1.8975,1.8037,1.6665,1.6461,1.5644,1.4529,1.4636,1.4856,1.5052,1.4443,1.4357,1.46,1.4775,1.4939,1.5083,1.5083,1.4987,1.4838,1.4838,1.4736,1.4621,1.4671,1.4762,1.486,1.4908,1.5332,1.573,1.573,1.6662,1.7677,1.8041,1.8734,1.9613,2.0619,2.0808,2.0988,2.1597,2.1696,2.1696,2.1696,2.1696,2.1696,2.1696,2.1696,2.1696,2.1696,2.1696,2.1696,2.1696,2.1696,2.1696,2.1696,2.1696,2.1696,2.1696,2.1696,2.1696,2.1696,2.1696,2.1696,2.1696,2.1696,2.1696,2.1696,2.1696,2.1696]}]]